[[{"header":{"parameterUnit":"m.s-1","parameterCategory":1,"la1":30.6,"la2":29.2853,"lo1":-89.7004,"lo2":-87.6739,"dy":0.0162,"dx":0.0183,"nx":112,"ny":82,"refTime":"2023-10-06T12:00:00:Z","depth":0,"parameterNumber":2,"parameterNumberName":"U-component_of_WINDS"},"data":[0.0,0.0,0.0,0.0,0.0,0.0,0.0,0.0,0.0,0.0,0.0,0.0,0.0,0.0,0.0,0.0,0.0,0.0,0.0,0.0,0.0,0.0,0.0,0.0,0.0,0.0,0.0,0.0,0.0,0.0,0.0,0.0,0.0,0.0,0.0,0.0,0.0,0.0,0.0,0.0,0.0,0.0,0.0,0.0,0.0,0.0,0.0,0.0,0.0,0.0,0.0,0.0,0.0,0.0,0.0,0.0,0.0,0.0,0.0,0.0,0.0,0.0,0.0,0.0,0.0,0.0,0.0,0.0,0.0,0.0,0.0,0.0,0.0,0.0,0.0,0.0,0.0,0.0,0.0,0.0,0.0,0.0,0.0,0.0,0.0,0.0,0.0,0.0,0.0,0.0,0.0,-3.513,-3.7188,-3.8611,-3.8753,-3.9005,-3.8138,-3.5645,0.0,0.0,0.0,0.0,0.0,0.0,0.0,0.0,0.0,0.0,0.0,0.0,0.0,0.0,0.0,0.0,0.0,0.0,0.0,0.0,0.0,0.0,0.0,0.0,0.0,0.0,0.0,0.0,0.0,0.0,0.0,0.0,0.0,0.0,0.0,0.0,0.0,0.0,0.0,0.0,0.0,0.0,0.0,0.0,0.0,0.0,0.0,0.0,0.0,0.0,0.0,0.0,0.0,0.0,0.0,0.0,0.0,0.0,0.0,0.0,0.0,0.0,0.0,0.0,0.0,0.0,0.0,0.0,0.0,0.0,0.0,0.0,0.0,0.0,0.0,0.0,0.0,0.0,0.0,0.0,0.0,0.0,0.0,0.0,0.0,0.0,0.0,0.0,0.0,0.0,0.0,0.0,0.0,0.0,0.0,0.0,0.0,0.0,0.0,0.0,0.0,0.0,0.0,0.0,-3.5245,-3.6924,-3.7479,-3.7957,-3.8527,-3.8077,-3.7138,-3.5584,0.0,0.0,0.0,0.0,0.0,0.0,0.0,0.0,0.0,0.0,0.0,0.0,0.0,0.0,0.0,0.0,0.0,0.0,0.0,0.0,0.0,0.0,0.0,0.0,0.0,0.0,0.0,0.0,0.0,0.0,0.0,0.0,0.0,0.0,0.0,0.0,0.0,0.0,0.0,0.0,0.0,0.0,0.0,0.0,0.0,0.0,0.0,0.0,0.0,0.0,0.0,0.0,0.0,0.0,0.0,0.0,0.0,0.0,0.0,0.0,0.0,0.0,0.0,0.0,0.0,0.0,0.0,0.0,0.0,0.0,0.0,0.0,0.0,0.0,0.0,0.0,0.0,0.0,0.0,0.0,0.0,0.0,0.0,0.0,0.0,0.0,0.0,0.0,0.0,0.0,0.0,0.0,0.0,0.0,0.0,0.0,0.0,0.0,0.0,0.0,0.0,0.0,0.0,-3.4306,-3.5106,-3.6784,-3.7277,-3.7477,-3.7415,-3.7461,-3.6753,-3.491,-3.4607,0.0,0.0,0.0,0.0,0.0,0.0,0.0,0.0,0.0,0.0,0.0,0.0,0.0,0.0,0.0,0.0,0.0,0.0,0.0,0.0,0.0,0.0,0.0,0.0,0.0,0.0,0.0,0.0,0.0,0.0,0.0,0.0,0.0,0.0,0.0,0.0,0.0,0.0,0.0,0.0,0.0,0.0,0.0,0.0,0.0,0.0,0.0,0.0,0.0,0.0,0.0,0.0,0.0,0.0,0.0,0.0,0.0,0.0,0.0,0.0,0.0,0.0,0.0,0.0,0.0,0.0,0.0,0.0,0.0,0.0,0.0,0.0,0.0,0.0,0.0,0.0,0.0,0.0,0.0,0.0,0.0,0.0,0.0,0.0,0.0,0.0,0.0,0.0,0.0,0.0,0.0,0.0,0.0,0.0,0.0,0.0,0.0,0.0,0.0,0.0,0.0,0.0,-3.4691,-3.4983,-3.6353,-3.6953,-3.7061,-3.6538,-3.6815,-3.623,-3.43,-3.38,0.0,0.0,0.0,0.0,0.0,0.0,0.0,0.0,0.0,0.0,0.0,0.0,0.0,0.0,0.0,0.0,0.0,0.0,0.0,0.0,0.0,0.0,0.0,0.0,0.0,0.0,0.0,0.0,0.0,0.0,0.0,0.0,0.0,0.0,0.0,0.0,0.0,0.0,0.0,0.0,0.0,0.0,0.0,0.0,0.0,0.0,0.0,0.0,0.0,0.0,0.0,0.0,0.0,0.0,0.0,0.0,0.0,0.0,0.0,0.0,0.0,0.0,0.0,0.0,0.0,0.0,0.0,0.0,0.0,0.0,0.0,0.0,0.0,0.0,0.0,0.0,0.0,0.0,0.0,0.0,0.0,0.0,0.0,0.0,0.0,0.0,0.0,0.0,0.0,0.0,0.0,0.0,0.0,0.0,0.0,0.0,0.0,0.0,0.0,0.0,0.0,0.0,-3.4091,-3.4983,-3.6353,-3.6538,-3.6538,-3.6492,-3.5953,-3.5231,-3.4254,-3.3031,0.0,0.0,0.0,0.0,0.0,0.0,0.0,0.0,0.0,0.0,0.0,0.0,0.0,0.0,0.0,0.0,0.0,0.0,0.0,0.0,0.0,0.0,0.0,0.0,0.0,0.0,0.0,0.0,0.0,0.0,0.0,0.0,0.0,0.0,0.0,0.0,0.0,0.0,0.0,0.0,0.0,0.0,0.0,0.0,0.0,0.0,0.0,0.0,0.0,0.0,0.0,0.0,0.0,0.0,0.0,0.0,0.0,0.0,0.0,0.0,0.0,0.0,0.0,0.0,0.0,0.0,0.0,0.0,0.0,0.0,0.0,0.0,0.0,0.0,0.0,0.0,0.0,0.0,0.0,0.0,0.0,0.0,0.0,0.0,0.0,0.0,0.0,0.0,0.0,0.0,0.0,0.0,0.0,0.0,0.0,0.0,0.0,0.0,0.0,0.0,0.0,0.0,-3.4398,-3.546,0.0,-3.6492,-3.6492,-3.6492,-3.5799,-3.4804,-3.3541,0.0,0.0,0.0,0.0,0.0,0.0,0.0,0.0,0.0,0.0,0.0,0.0,0.0,0.0,0.0,0.0,0.0,0.0,0.0,0.0,0.0,0.0,0.0,0.0,0.0,0.0,0.0,0.0,0.0,0.0,0.0,0.0,0.0,0.0,0.0,0.0,0.0,0.0,0.0,0.0,0.0,0.0,0.0,0.0,0.0,0.0,0.0,0.0,0.0,0.0,0.0,0.0,0.0,0.0,0.0,0.0,0.0,0.0,0.0,0.0,0.0,0.0,0.0,0.0,0.0,0.0,0.0,0.0,0.0,0.0,0.0,0.0,0.0,0.0,0.0,0.0,0.0,0.0,0.0,0.0,0.0,0.0,0.0,0.0,0.0,0.0,0.0,0.0,0.0,0.0,0.0,0.0,0.0,0.0,0.0,0.0,0.0,0.0,0.0,0.0,0.0,0.0,-3.2967,-3.4106,-3.5168,0.0,-3.5907,-3.5769,-3.5723,-3.4973,-3.3968,-3.2682,0.0,0.0,0.0,0.0,0.0,0.0,0.0,0.0,0.0,0.0,0.0,0.0,0.0,0.0,0.0,0.0,0.0,0.0,0.0,0.0,0.0,0.0,0.0,0.0,0.0,0.0,0.0,0.0,0.0,0.0,0.0,0.0,0.0,0.0,0.0,0.0,0.0,0.0,0.0,0.0,0.0,0.0,0.0,0.0,0.0,0.0,0.0,0.0,0.0,0.0,0.0,0.0,0.0,0.0,0.0,0.0,0.0,0.0,0.0,0.0,0.0,0.0,0.0,0.0,0.0,0.0,0.0,0.0,0.0,0.0,0.0,0.0,0.0,0.0,0.0,0.0,0.0,0.0,0.0,0.0,0.0,0.0,0.0,0.0,0.0,0.0,0.0,0.0,0.0,0.0,0.0,0.0,0.0,0.0,0.0,0.0,0.0,0.0,0.0,0.0,0.0,0.0,-3.2228,-3.2998,-3.3879,-3.5049,-3.4606,-3.4134,-3.3985,-3.3363,-3.2622,0.0,0.0,0.0,0.0,0.0,0.0,0.0,0.0,0.0,0.0,0.0,0.0,0.0,0.0,0.0,0.0,0.0,0.0,0.0,0.0,0.0,0.0,0.0,0.0,0.0,0.0,0.0,0.0,0.0,0.0,0.0,0.0,0.0,0.0,0.0,0.0,0.0,0.0,0.0,0.0,0.0,0.0,0.0,0.0,0.0,0.0,0.0,0.0,0.0,0.0,0.0,0.0,0.0,0.0,0.0,0.0,0.0,0.0,0.0,0.0,0.0,0.0,0.0,0.0,0.0,0.0,0.0,0.0,0.0,0.0,0.0,0.0,0.0,0.0,0.0,0.0,0.0,0.0,0.0,0.0,0.0,0.0,0.0,0.0,0.0,0.0,0.0,0.0,0.0,0.0,0.0,0.0,0.0,0.0,0.0,0.0,0.0,0.0,0.0,0.0,0.0,0.0,0.0,-3.2275,-3.3299,-3.4283,-3.511,-3.4485,-3.4045,-3.3985,-3.2481,-3.1233,-3.0522,0.0,0.0,0.0,0.0,0.0,0.0,0.0,0.0,0.0,0.0,0.0,0.0,0.0,0.0,0.0,0.0,0.0,0.0,0.0,0.0,0.0,0.0,0.0,0.0,0.0,0.0,0.0,0.0,0.0,0.0,0.0,0.0,0.0,0.0,0.0,0.0,0.0,0.0,0.0,0.0,0.0,0.0,0.0,0.0,0.0,0.0,0.0,0.0,0.0,0.0,0.0,0.0,0.0,0.0,0.0,0.0,0.0,0.0,0.0,0.0,0.0,0.0,0.0,0.0,0.0,0.0,0.0,0.0,0.0,0.0,0.0,0.0,0.0,0.0,0.0,0.0,0.0,0.0,0.0,0.0,0.0,0.0,0.0,0.0,0.0,0.0,0.0,0.0,0.0,0.0,0.0,0.0,0.0,0.0,0.0,0.0,0.0,0.0,0.0,0.0,0.0,0.0,-3.1702,-3.2482,-3.3156,-3.3758,-3.3186,-3.2617,-3.2224,-3.1052,-2.9985,-2.9103,0.0,0.0,0.0,0.0,0.0,0.0,0.0,0.0,0.0,0.0,0.0,0.0,0.0,0.0,0.0,0.0,0.0,0.0,0.0,0.0,0.0,0.0,0.0,0.0,0.0,0.0,0.0,0.0,0.0,0.0,0.0,0.0,0.0,0.0,0.0,0.0,0.0,0.0,0.0,0.0,0.0,0.0,0.0,0.0,0.0,0.0,0.0,0.0,0.0,0.0,0.0,0.0,0.0,0.0,0.0,0.0,0.0,0.0,0.0,0.0,0.0,0.0,0.0,0.0,0.0,0.0,0.0,0.0,0.0,0.0,0.0,0.0,0.0,0.0,0.0,0.0,0.0,0.0,0.0,0.0,0.0,0.0,0.0,0.0,0.0,0.0,0.0,0.0,0.0,0.0,0.0,0.0,0.0,0.0,0.0,0.0,0.0,0.0,0.0,0.0,0.0,0.0,-3.0669,-3.0832,-3.1116,-3.1655,-3.1097,-3.0315,-2.9496,-2.9316,-2.8783,-2.7605,0.0,0.0,0.0,0.0,0.0,0.0,0.0,0.0,0.0,0.0,0.0,0.0,0.0,0.0,0.0,0.0,0.0,0.0,0.0,0.0,0.0,0.0,0.0,0.0,0.0,0.0,0.0,0.0,0.0,0.0,0.0,0.0,0.0,0.0,0.0,0.0,0.0,0.0,0.0,0.0,0.0,0.0,0.0,0.0,0.0,0.0,0.0,0.0,0.0,0.0,0.0,0.0,0.0,0.0,0.0,0.0,0.0,0.0,0.0,0.0,-3.6486,0.0,0.0,0.0,0.0,0.0,0.0,0.0,0.0,0.0,0.0,0.0,0.0,0.0,0.0,0.0,0.0,0.0,0.0,0.0,0.0,0.0,0.0,0.0,0.0,0.0,0.0,0.0,0.0,0.0,0.0,0.0,0.0,0.0,0.0,0.0,0.0,0.0,0.0,0.0,0.0,0.0,-2.9435,-2.9851,-3.0301,-3.0931,-3.0259,-2.9506,-2.8933,-2.7931,-2.7111,-2.6411,-2.5396,0.0,0.0,0.0,0.0,0.0,0.0,0.0,0.0,0.0,0.0,0.0,0.0,0.0,0.0,0.0,0.0,0.0,0.0,0.0,0.0,0.0,0.0,0.0,0.0,0.0,0.0,0.0,0.0,0.0,0.0,0.0,0.0,0.0,0.0,0.0,0.0,0.0,0.0,0.0,0.0,0.0,0.0,0.0,0.0,0.0,0.0,0.0,0.0,0.0,0.0,0.0,0.0,0.0,0.0,0.0,0.0,0.0,0.0,0.0,0.0,-3.6535,0.0,0.0,0.0,0.0,0.0,0.0,0.0,0.0,0.0,0.0,0.0,0.0,0.0,0.0,0.0,0.0,0.0,0.0,0.0,0.0,0.0,0.0,0.0,0.0,0.0,0.0,0.0,0.0,0.0,0.0,0.0,0.0,0.0,0.0,0.0,0.0,0.0,0.0,0.0,0.0,-2.8828,-2.8838,-2.8933,-2.924,-2.8629,-2.7961,-2.738,-2.6701,-2.6089,-2.5514,-2.4793,0.0,0.0,0.0,0.0,0.0,0.0,0.0,0.0,0.0,0.0,0.0,0.0,0.0,0.0,0.0,0.0,0.0,0.0,0.0,0.0,0.0,0.0,0.0,0.0,0.0,0.0,0.0,0.0,0.0,0.0,0.0,0.0,0.0,0.0,0.0,0.0,0.0,0.0,0.0,0.0,0.0,0.0,0.0,0.0,0.0,0.0,0.0,0.0,0.0,0.0,0.0,0.0,0.0,-4.3516,-4.3626,-4.3332,-4.2159,-4.1866,-4.2101,-4.0284,-3.8811,-3.7626,0.0,0.0,0.0,0.0,0.0,0.0,0.0,0.0,0.0,0.0,0.0,0.0,0.0,0.0,0.0,0.0,0.0,0.0,0.0,0.0,0.0,0.0,0.0,0.0,0.0,-2.9629,-2.9877,0.0,0.0,0.0,0.0,0.0,0.0,0.0,0.0,0.0,0.0,0.0,0.0,-2.7926,-2.7738,-2.7474,-2.7385,-2.6918,-2.635,-2.5743,-2.568,-2.5432,-2.4857,-2.4684,-2.4416,0.0,0.0,0.0,0.0,0.0,0.0,0.0,0.0,0.0,0.0,0.0,0.0,0.0,0.0,0.0,0.0,0.0,0.0,0.0,0.0,0.0,0.0,0.0,0.0,0.0,0.0,0.0,0.0,0.0,0.0,0.0,0.0,-3.6671,-3.7362,0.0,0.0,0.0,0.0,0.0,0.0,0.0,0.0,0.0,0.0,0.0,0.0,0.0,-4.0249,-4.1974,-4.4176,-4.5314,-4.5461,-4.8324,-4.893,-4.7479,-4.6924,-4.5902,-4.4556,-4.3148,0.0,-3.9067,-3.7056,0.0,0.0,0.0,0.0,0.0,0.0,0.0,0.0,0.0,0.0,0.0,0.0,0.0,0.0,0.0,0.0,0.0,0.0,0.0,0.0,0.0,0.0,-2.8749,-2.8674,-2.8779,-2.8674,0.0,-2.8188,-2.8682,-2.8502,-2.8128,0.0,0.0,0.0,0.0,0.0,0.0,0.0,-2.5641,-2.6277,-2.6614,-2.6104,-2.5988,-2.5739,-2.5179,-2.5079,-2.4831,-2.4269,-2.4171,-2.4073,-2.3903,-2.3891,0.0,0.0,0.0,0.0,0.0,0.0,0.0,0.0,0.0,0.0,0.0,0.0,0.0,0.0,0.0,0.0,0.0,0.0,0.0,0.0,0.0,0.0,0.0,0.0,0.0,0.0,0.0,0.0,0.0,-3.5889,-3.7034,-3.6408,-3.6559,-3.6304,0.0,0.0,0.0,0.0,0.0,0.0,0.0,0.0,0.0,-4.0708,-4.2378,-4.4048,-4.5663,-4.7205,-4.7976,-4.7994,-4.9426,-4.9481,-4.8267,-4.7752,-4.6975,-4.5935,-4.4442,-4.3097,-4.1652,-3.8841,-3.7077,-3.5949,0.0,0.0,0.0,0.0,-3.4015,-3.4083,-3.4506,-3.4658,0.0,0.0,0.0,0.0,0.0,0.0,0.0,0.0,0.0,0.0,0.0,0.0,0.0,-2.8697,-2.9146,-2.949,-2.8846,-2.8652,-2.8487,0.0,-2.8397,-2.8457,-2.7745,0.0,0.0,0.0,0.0,0.0,-2.5585,-2.5643,-2.562,-2.5363,-2.5053,-2.4766,-2.4504,-2.4491,-2.4327,-2.4021,-2.3878,-2.376,-2.3641,-2.3641,-2.3582,0.0,0.0,0.0,0.0,0.0,0.0,0.0,0.0,0.0,0.0,0.0,0.0,0.0,0.0,0.0,0.0,0.0,0.0,0.0,0.0,0.0,0.0,0.0,0.0,0.0,0.0,0.0,0.0,-3.6559,-3.7876,-3.6372,-3.7468,-3.7589,0.0,0.0,0.0,0.0,0.0,0.0,-3.9038,-4.153,-4.3204,-4.3828,-4.5792,-4.7609,-4.9242,-4.9682,-4.9994,-5.0196,-4.9994,-4.9554,-4.8891,-4.8001,-4.7178,-4.6287,-4.462,-4.346,-4.26,-4.0079,-3.8511,-3.7466,-3.596,-3.5368,-3.5351,-3.5148,-3.5081,-3.5131,-3.5487,-3.5622,-3.552,-3.4962,0.0,-3.3094,-3.1586,0.0,0.0,0.0,0.0,-2.8301,-2.7936,-2.8561,-2.9102,-2.8682,-2.9325,-2.9834,-2.9205,-2.8816,-2.8442,0.0,-2.8502,-2.8757,-2.779,0.0,0.0,0.0,0.0,-2.6184,-2.5459,-2.5148,-2.4953,-2.476,-2.4374,-2.4112,-2.4112,-2.4112,-2.4067,-2.3891,-2.376,-2.3569,-2.3403,-2.3263,-2.3191,-2.3198,0.0,0.0,0.0,0.0,0.0,0.0,0.0,0.0,0.0,0.0,0.0,0.0,0.0,0.0,0.0,0.0,0.0,0.0,0.0,0.0,0.0,0.0,0.0,0.0,0.0,0.0,0.0,0.0,0.0,-3.9006,-4.0599,0.0,0.0,0.0,0.0,-3.8579,-4.011,-4.1691,-4.3112,-4.4154,-4.5717,-4.7939,-4.8912,-5.0178,-5.1793,-5.1096,-5.1114,-5.1867,-5.1096,-5.0729,-5.0597,-4.8722,-4.7002,-4.5372,-4.3406,-4.175,-4.029,-4.0087,-3.9985,-3.9766,-3.8311,-3.7736,-3.7652,-3.6924,-3.6654,-3.6569,-3.5859,-3.5622,-3.556,-3.5571,-3.459,-3.3338,-3.2896,-3.1162,0.0,0.0,-2.7725,-2.7775,-2.8368,-2.8113,-2.788,-2.8457,-2.8652,-2.8502,-2.7814,-2.8158,-2.8592,0.0,-2.8068,-2.77,-2.7625,0.0,-2.6563,-2.596,-2.5837,-2.5425,-2.4313,-2.4691,-2.4791,-2.421,-2.4138,-2.4112,-2.4112,-2.4112,-2.4067,-2.3891,-2.3891,-2.3713,-2.3403,-2.2896,-2.2857,-2.339,-2.2198,0.0,0.0,0.0,0.0,0.0,0.0,0.0,0.0,0.0,0.0,0.0,0.0,0.0,0.0,0.0,0.0,0.0,0.0,0.0,0.0,0.0,0.0,0.0,0.0,0.0,0.0,0.0,0.0,-3.9737,-4.2246,0.0,-3.9937,-4.097,-4.1607,-4.1071,-4.3479,-4.5223,-4.5792,-4.8142,-4.9593,-4.9903,-5.1206,-5.2197,-5.2766,-5.1977,-5.1463,-5.1224,-5.0398,-4.96,-4.8712,-4.7335,-4.6059,-4.4791,-4.3471,-4.2364,-4.1474,-4.1001,-4.0798,-4.0663,-3.9174,-3.8886,-3.9089,-3.7398,-3.7094,-3.7313,-3.6062,-3.5943,-3.6151,-3.4714,-3.3396,-3.2174,-3.1021,-2.9621,-2.8286,-2.781,-2.7625,-2.7685,-2.7874,-2.7754,-2.7685,-2.7874,-2.7934,-2.7874,-2.7619,-2.7769,-2.7934,-2.7934,-2.7739,-2.7625,-2.7625,-2.71,-2.651,-2.5892,-2.5536,-2.4991,-2.4229,-2.4287,-2.4345,-2.4112,-2.4008,-2.3949,-2.3949,-2.3878,-2.3592,-2.307,-2.3045,-2.2821,-2.221,-2.2009,-2.1996,-2.2198,-2.1398,-2.1108,0.0,0.0,0.0,0.0,0.0,0.0,0.0,0.0,0.0,0.0,0.0,0.0,0.0,0.0,0.0,0.0,0.0,0.0,0.0,0.0,0.0,0.0,0.0,0.0,0.0,0.0,-4.2202,-4.1328,-4.4557,-4.5618,-4.2408,-4.3863,-4.4829,-4.4428,-4.636,-4.794,-4.871,-5.0563,-5.1481,-5.1206,-5.2234,-5.2674,-5.2399,-5.1591,-5.0912,-5.038,-4.9554,-4.8477,-4.7174,-4.6259,-4.5106,-4.3802,-4.2856,-4.2108,-4.1508,-4.1018,-4.0984,-4.1085,-3.9851,-3.9648,-3.9834,-3.7889,-3.7483,-3.7719,-3.6451,-3.6028,-3.5756,-3.4383,-3.2875,-3.1336,-2.9937,-2.8824,-2.7974,-2.7675,-2.7625,-2.7565,-2.7305,-2.7245,-2.7245,-2.7245,-2.7245,-2.7305,-2.7565,-2.7625,-2.7625,-2.7625,-2.7625,-2.7524,-2.7306,-2.6826,-2.6176,-2.5632,-2.5048,-2.4563,-2.4171,-2.4112,-2.4054,-2.4067,-2.3949,-2.3813,-2.356,-2.3405,-2.3045,-2.2312,-2.2274,-2.2053,-2.1506,-2.1305,-2.1305,-2.1493,-2.0941,-2.0618,-2.0376,0.0,0.0,0.0,0.0,0.0,0.0,0.0,0.0,0.0,0.0,0.0,0.0,0.0,0.0,0.0,0.0,0.0,0.0,0.0,0.0,0.0,0.0,0.0,-3.9109,-4.2159,-4.4211,-4.3983,-4.7619,-4.8946,-4.584,-4.7716,-4.8952,-4.855,-4.8513,-4.9542,-5.183,-5.1224,-5.1151,-5.194,-5.1958,-5.1591,-5.082,-4.9994,-4.9572,-4.9536,-4.8673,-4.7636,-4.6436,-4.5614,-4.4212,-4.237,-4.1494,-4.0747,-4.007,-4.007,-4.051,-4.1085,-4.0341,-4.0054,-3.9901,-3.8413,-3.7855,-3.7736,-3.6975,-3.5667,-3.4376,-3.4535,-3.3001,-3.0933,-2.9878,-2.9038,-2.8319,-2.773,-2.7595,-2.738,-2.6722,-2.6557,-2.6557,-2.6557,-2.6557,-2.6737,-2.743,-2.75,-2.7515,-2.7515,-2.7515,-2.7312,-2.6774,-2.6176,-2.5632,-2.5048,-2.4505,0.0,-2.4112,-2.4054,-2.4054,-2.3891,-2.3891,-2.3599,-2.286,-2.2795,-2.2483,-2.1729,-2.1678,-2.161,-2.143,-2.097,-2.0945,-2.143,-2.097,-2.0363,-1.9798,0.0,0.0,0.0,0.0,0.0,0.0,0.0,0.0,0.0,0.0,0.0,0.0,0.0,0.0,0.0,0.0,0.0,0.0,0.0,0.0,0.0,0.0,-3.9106,-3.9953,-4.3539,-4.6435,-4.7385,-4.9659,-5.0354,-4.8415,-4.9313,-4.9635,-4.8642,-4.9066,-4.993,-5.1161,-5.0952,-5.0894,-5.1114,-5.1132,-5.1022,-5.0802,-4.9994,-4.926,-4.8655,-4.7829,-4.6775,-4.5504,-4.4214,-4.3163,-4.2241,-4.0948,-4.0273,-4.007,-4.007,-4.0206,-4.0307,-3.958,-3.9631,-3.9868,-3.7838,-3.6709,-3.5996,-3.4881,-3.4147,-3.3472,-3.2158,-3.0987,-2.9878,-2.9098,-2.8389,-2.7705,-2.704,-2.6856,-2.6707,-2.6048,-2.5869,-2.5869,-2.5869,-2.5869,-2.5929,-2.6108,-2.609,-2.5979,-2.5979,-2.5673,-2.5668,-2.6562,-2.6176,-2.5577,-2.4921,-2.4319,0.0,-2.376,-2.3747,-2.3747,-2.3688,-2.3582,-2.3458,-2.3234,-2.2723,-2.2198,-2.1574,-2.1159,-2.0756,-2.0288,-2.0125,-2.0112,-2.0263,-2.0112,-1.9962,0.0,0.0,0.0,0.0,0.0,0.0,0.0,0.0,0.0,0.0,0.0,0.0,0.0,0.0,0.0,0.0,0.0,0.0,0.0,0.0,0.0,0.0,-3.9461,-4.1209,-4.2403,-4.5033,-4.7357,-4.877,-5.0469,-5.1071,-4.9972,-5.0234,-5.0262,-4.975,-4.9455,-4.9767,-5.0851,-5.0533,-5.0328,-5.0288,-5.0288,-4.9958,-4.9279,-4.8783,-4.8122,-4.7297,-4.6838,-4.5935,-4.4708,-4.3578,-4.2626,0.0,-4.0639,-4.0138,-4.007,-4.007,-3.9901,0.0,0.0,0.0,0.0,0.0,-3.627,-3.5379,-3.4383,-3.3541,-3.2639,-3.1124,-2.9909,-2.8938,-2.8348,-2.7889,-2.755,-2.7111,-2.6797,-2.6437,-2.5779,-2.5405,-2.5196,-2.5196,-2.5196,-2.5224,-2.5446,-2.5301,-2.5096,-2.5047,-2.4581,0.0,-2.4976,-2.5007,-2.4695,-2.398,-2.3826,-2.376,-2.3628,-2.3628,-2.3569,-2.3509,-2.3463,-2.3242,-2.2942,-2.2342,0.0,0.0,0.0,-2.0162,-1.9811,-1.9798,0.0,0.0,0.0,-1.9798,-1.9798,0.0,0.0,0.0,-2.015,-2.0085,0.0,0.0,0.0,0.0,0.0,0.0,0.0,0.0,0.0,0.0,0.0,0.0,0.0,0.0,0.0,0.0,-4.1478,-4.3724,-4.5374,-4.6355,-4.7473,-4.901,-5.0431,-5.1147,-5.0691,-5.0598,-5.0665,-5.0917,-4.9602,-4.9344,-5.0556,0.0,0.0,0.0,0.0,-4.86,-4.7131,-4.7021,-4.6562,-4.5755,-4.5755,-4.515,-4.3951,-4.3358,-4.2353,-4.1076,-4.0549,-4.0204,-3.9952,-3.9952,-3.9478,-3.8734,-3.8734,-3.87,-3.8447,-3.7144,-3.6139,-3.5367,-3.4587,0.0,0.0,-3.0725,-2.9357,-2.8158,-2.771,-2.7565,-2.7505,-2.7505,-2.6931,-2.6243,-2.5644,-2.5016,-2.4462,-2.4462,-2.4462,-2.4627,-2.5055,-2.4828,-2.4413,-2.4267,-2.3758,-2.3187,-2.263,-2.3138,-2.3398,-2.2884,-2.316,-2.3492,-2.3556,-2.3569,-2.3509,-2.3403,0.0,0.0,-2.2447,-2.1895,-2.1343,-2.079,-2.0162,-1.9798,-1.9798,-1.9798,-1.9798,-1.9798,-1.9798,-1.9798,-1.9798,-1.9798,-1.9798,-1.9798,-1.9874,-1.9599,0.0,0.0,0.0,0.0,0.0,0.0,0.0,0.0,0.0,0.0,0.0,0.0,0.0,0.0,0.0,-3.9896,-4.2393,-4.4412,-4.5451,-4.6355,-4.776,-5.0085,-5.0231,-5.0361,-5.0941,-5.0571,-5.0019,-4.9375,-4.8989,-4.8881,-4.903,-4.8845,0.0,-4.8563,-4.7921,-4.7443,-4.7113,-4.6471,-4.5736,-4.4947,0.0,0.0,-4.3118,-4.2494,-4.1823,-4.1076,-4.0549,-3.9915,-3.9208,-3.9208,-3.8413,-3.7212,-3.7212,-3.6823,-3.6231,-3.596,-3.5638,-3.5061,-3.2947,-3.1823,-3.1036,-2.8909,-2.8006,-2.771,-2.7625,-2.72,0.0,-2.6782,-2.5929,-2.4986,-2.4852,-2.4313,-2.3789,-2.3789,-2.3789,-2.379,-2.3851,-2.3358,-2.2869,-2.2776,-2.1903,-2.1176,-2.1038,-2.2101,-2.2921,-2.2661,-2.2712,-2.2883,-2.3135,-2.3198,-2.3198,-2.3138,-2.3138,-2.31,-2.2987,-2.2472,-2.192,-2.1368,-2.0363,-1.9798,-1.9798,-1.9798,-1.9798,-1.9798,-1.9798,-1.9798,-1.9798,-1.9798,-1.9798,-1.9811,-2.0275,-2.018,0.0,0.0,0.0,0.0,0.0,0.0,0.0,0.0,0.0,0.0,0.0,-3.3207,0.0,0.0,-3.9435,-4.1989,-4.347,-4.4605,-4.547,-4.597,-4.6874,-4.8606,-4.9005,-4.9322,-4.9765,-4.9658,-4.9373,-4.8927,-4.8874,-4.8804,-4.8697,-4.8679,-4.8384,-4.7812,-4.7408,-4.6765,-4.592,-4.5498,-4.4911,-4.4103,-4.3907,-4.3469,-4.2882,-4.2098,-4.1525,-4.1076,-4.058,-4.0084,-3.9478,-3.8751,-3.7787,-3.6738,-3.6349,-3.596,-3.5622,-3.5622,-3.5251,-3.4476,-3.2349,-3.1214,-3.0417,-2.8263,-2.7625,-2.7565,-2.7186,-2.6856,-2.6512,-2.6198,-2.539,-2.4582,-2.4582,-2.4089,-2.3538,-2.3538,-2.348,-2.3407,-2.3334,-2.2663,-2.1988,-2.1894,-2.0979,-2.0207,-2.0207,-2.0824,-2.1392,-2.1627,-2.2084,-2.248,-2.2686,-2.2902,-2.3078,-2.3078,-2.3078,-2.3078,-2.3078,-2.2372,-2.1656,-2.1104,-2.0275,-1.9936,-2.0225,-1.9962,-1.9936,-2.0225,-1.9949,-1.9798,-1.9798,-1.9798,-1.9798,-1.9811,-1.9837,-1.9653,0.0,0.0,0.0,0.0,0.0,0.0,0.0,0.0,-3.0736,-3.2507,-3.3401,-3.4738,-3.7723,-3.9099,-4.0735,-4.3602,-4.4352,-4.4757,-4.5295,-4.5372,-4.5587,-4.6243,-4.7323,-4.8071,-4.8242,-4.8372,-4.8426,-4.8426,-4.8426,-4.841,-4.8305,-4.8305,-4.7903,-4.7113,-4.6893,-4.6103,-4.4727,-4.4544,-4.414,-4.3497,-4.3178,-4.292,-4.2729,-4.199,-4.1428,-4.0955,-4.0288,-3.9778,-3.9326,-3.8007,-3.7094,-3.6485,-3.5859,-3.552,-3.5419,-3.5571,-3.5043,-3.4019,-3.2219,-3.1038,-3.0006,-2.8206,-2.7625,-2.744,-2.6782,-2.6587,-2.6452,-2.5794,-2.5136,-2.4582,-2.4582,-2.4045,-2.3509,-2.3509,-2.3422,-2.3275,-2.3023,-2.2249,-2.1513,-2.1272,-2.0434,-1.9798,-1.9798,-1.9798,-1.9999,-2.063,-2.143,-2.2071,-2.2284,-2.2698,-2.2952,-2.3065,-2.3078,-2.3078,-2.3078,-2.2221,-2.1418,-2.092,-2.0288,-2.0125,-2.0489,-2.0049,-2.0024,-2.0542,-2.0037,-1.9798,-1.9798,-1.9798,-1.9759,-1.9656,-1.9291,-1.9088,-2.5703,-2.6281,-2.7452,-2.9716,-2.9757,-3.0263,0.0,0.0,-3.3529,-3.5863,-3.6416,-3.7022,-3.8821,-4.05,-4.1975,-4.3073,-4.4537,-4.5307,-4.4633,-4.4485,-4.4381,-4.4248,-4.5456,-4.6575,-4.7359,-4.7035,-4.6773,-4.6773,-4.6773,-4.6721,-4.6583,-4.6533,-4.641,-4.623,-4.5441,-4.4892,-4.4709,-4.3993,-4.3589,-4.3497,-4.3444,-4.3014,-4.2279,-4.2157,-4.1561,-4.0497,-3.8894,-3.7818,-3.7077,-3.6231,-3.5825,-3.574,-3.5656,-3.5216,-3.4692,-3.5368,-3.5015,-3.3963,-3.2236,-3.1007,-2.9911,-2.8171,-2.7625,-2.744,-2.6782,-2.6587,-2.6452,-2.5794,-2.5136,-2.4582,-2.4582,-2.4118,-2.3566,-2.3494,-2.3509,-2.3275,-2.2558,-2.1988,-2.1417,-2.0795,-2.0207,-1.9798,-1.9798,-1.9798,-1.9999,-2.063,-2.0819,-2.1204,-2.2184,-2.2372,-2.2585,-2.3027,-2.3078,-2.3078,-2.3078,-2.2573,-2.1983,-2.143,-2.0878,-2.0363,-1.9911,-1.9836,-1.9836,-1.9899,-1.9836,-1.9798,-1.9798,-1.9798,-1.9552,-1.9093,-1.95,-1.9364,-2.6328,-2.7043,0.0,0.0,-3.0482,-3.1573,-3.3912,-3.4272,-3.4667,-3.6567,-3.6968,-3.7588,-3.961,-4.0616,-4.1744,0.0,-4.4071,-4.428,-4.4395,-4.3975,-4.3374,-4.2603,-4.3335,-4.4549,-4.6137,-4.6426,-4.6494,-4.6494,-4.6494,-4.629,-4.5741,-4.5671,-4.5179,-4.4169,-4.3701,-4.3229,-4.2665,-4.2301,-4.2103,-4.2103,-4.1844,-4.1415,-4.0842,-4.0559,-3.9966,-3.9119,-3.8255,-3.7483,-3.6755,-3.6434,-3.6028,-3.5622,-3.5622,-3.5391,-3.5127,-3.5459,-3.4309,-3.2497,-3.1834,-3.0545,-2.9043,-2.7951,-2.7625,-2.744,-2.6782,-2.6587,-2.6378,-2.533,-2.4837,-2.4492,-2.406,-2.3703,-2.3407,-2.329,-2.3201,-2.3068,-2.2737,-2.2049,-2.1417,-2.114,-2.0396,-1.9798,-1.9798,-1.9798,-1.9886,-2.0125,-2.0504,-2.0882,-2.1292,-2.1631,-2.2046,-2.2598,-2.2661,-2.2786,-2.3053,-2.2636,-2.2209,-2.1983,-2.1443,-2.1041,-2.079,-2.0476,-2.03,-2.03,-1.9974,-1.9798,-1.9798,-1.9798,-1.9695,-1.9448,-1.9715,-1.9431,-2.6757,0.0,0.0,-2.9935,-3.1535,-3.3044,-3.3899,-3.4589,-3.5431,-3.6728,-3.682,-3.7308,-3.9427,-4.0068,-4.0945,-4.3046,-4.3288,-4.3342,-4.3674,-4.3018,-4.2229,-4.1585,-4.1626,-4.2484,-4.4419,-4.4946,-4.5138,-4.5138,-4.5138,-4.4878,-4.4302,-4.4252,-4.3664,-4.2415,-4.2266,-4.1875,-4.1204,-4.1126,-4.1111,-4.1079,-4.0771,-4.0348,-3.9878,-3.9217,-3.8451,-3.7598,-3.7356,-3.6738,-3.5842,-3.5842,-3.552,-3.5013,-3.5013,-3.4851,-3.4627,-3.4874,-3.3573,-3.1577,-3.1322,-2.999,-2.8367,-2.776,-2.744,-2.7186,-2.6512,-2.6318,-2.6033,-2.4717,-2.4448,-2.4403,-2.3688,-2.3407,-2.3275,-2.3127,-2.3037,-2.2843,-2.254,-2.1908,-2.1321,-2.1028,-2.0346,-1.9798,-1.9798,-1.9798,-1.9798,-1.9798,-2.0162,-2.0489,-2.0706,-2.1154,-2.1644,-2.2046,-2.2083,-2.2246,-2.2648,-2.2309,-2.202,-2.187,-2.1481,-2.1192,-2.1029,-2.0639,-2.0426,-2.0426,-2.0012,-1.9798,-1.9798,-1.9798,-1.9695,-1.9552,-1.9587,-1.9168,-2.6741,0.0,-2.9874,-3.1592,-3.3336,-3.4839,-3.5635,-3.5884,-3.6165,-3.6853,-3.637,-3.6289,-3.7797,-3.8813,-3.9754,-4.0662,-4.2154,-4.2927,-4.2188,-4.1277,-4.0881,-4.1431,-4.0596,-4.0536,0.0,-4.1885,-4.1739,-4.1739,-4.1739,-4.1739,-4.1702,-4.1661,-4.16,-4.1545,-4.1354,-4.1222,-4.1204,-4.1126,-4.1111,-4.1111,-4.1079,-4.0651,-3.9878,-3.8747,-3.741,-3.6044,-3.5779,-3.4861,-3.3508,-3.3508,-3.3491,-3.3474,-3.3474,-3.3034,-3.2476,-3.3111,-3.2879,-3.2004,-3.0765,-2.9438,-2.8207,-2.7745,-2.7141,-2.6497,-2.5839,-2.563,-2.536,-2.4014,-2.4045,-2.4327,-2.3688,-2.3407,-2.3275,-2.3127,-2.3082,-2.2783,-2.1657,-2.1417,-2.1077,-2.0055,-1.9798,-1.9798,-1.9798,-1.9798,-1.9798,-1.9798,-1.9823,-2.0037,-2.0589,-2.1154,-2.1493,-2.1506,-2.1506,-2.1518,-2.1543,-2.1518,-2.128,-2.0806,-2.0756,-2.0439,-1.9874,-1.9836,-1.9823,-1.9823,-1.9811,-1.9798,-1.9798,-1.9798,-1.954,-1.904,-1.8999,-1.8398,-2.769,0.0,-3.1504,-3.2676,-3.3841,-3.4923,-3.5759,-3.5532,-3.5196,-3.5368,-3.4237,-3.3689,-3.5319,-3.5836,-3.6856,-3.9425,-4.0359,-4.1049,-4.188,-4.1268,-4.0482,-3.9792,-3.9891,0.0,0.0,0.0,0.0,-4.159,-4.159,-4.1367,-4.0828,-4.0762,-4.0521,-3.9946,-3.9753,-3.9674,-3.9674,-3.9559,-3.9515,-3.9515,-3.8985,-3.8169,-3.7167,-3.6343,-3.5446,-3.4472,-3.4236,-3.3863,-3.3406,-3.3406,-3.3406,-3.3406,-3.3406,-3.2908,-3.215,-3.1832,-3.094,-2.9978,-3.0206,-2.9124,-2.7532,-2.7097,-2.6482,-2.5899,-2.5674,-2.5615,-2.542,-2.4537,-2.4388,-2.4327,-2.3541,-2.329,-2.3112,-2.2992,-2.2992,-2.2797,-2.2077,-2.167,-2.1175,-2.0446,-2.0055,-1.9798,-1.9798,-1.9798,-1.9798,-1.9798,-1.9798,-1.9874,-2.0075,-2.025,-2.0514,-2.0903,-2.0941,-2.1091,-2.1455,-2.1493,-2.1405,-2.123,-2.1204,-2.0953,-2.0401,-2.0376,-2.0147,-1.9668,-1.9656,-1.9604,-1.9512,-1.9121,-1.8845,-1.8655,-1.8669,-1.8194,-2.8506,-3.0313,-3.2272,-3.3158,-3.4258,-3.5192,-3.5462,-3.5091,-3.4502,-3.3805,-3.2518,-3.1825,-3.2857,-3.3258,-3.4378,-3.7181,-3.8179,-3.9158,-4.0861,-4.0397,-3.9753,-3.9442,-3.9565,-3.9409,0.0,0.0,0.0,-4.0756,-4.0727,-4.0504,-3.9955,-3.9937,-3.9677,-3.912,-3.8979,-3.891,-3.891,-3.878,-3.8627,-3.8465,-3.7416,-3.6498,-3.5776,-3.4944,-3.4086,-3.3294,-3.2836,-3.25,-3.2205,-3.1935,-3.1833,-3.1833,-3.1833,-3.1506,-3.0897,-3.0348,-2.9417,-2.8575,-2.8962,-2.8152,-2.6842,-2.6419,-2.5794,-2.5255,-2.5255,-2.5091,-2.4807,-2.4343,-2.4149,-2.3925,-2.3363,-2.3112,-2.2992,-2.2947,-2.2752,-2.2509,-2.2016,-2.1479,-2.0944,-2.0409,-2.0055,-1.9798,-1.9798,-1.9798,-1.9798,-1.9798,-1.9798,-1.9798,-1.9798,-1.9798,-1.9949,-2.0326,-2.0351,-2.0501,-2.0853,-2.0836,-2.0836,-2.0836,-2.0782,-2.0578,-2.027,-2.027,-1.9924,-1.9239,-1.9239,-1.9069,-1.875,-1.8363,-1.819,-1.819,-1.8036,-1.7728,-2.9214,-3.0734,-3.2279,-3.3093,-3.4556,-3.5564,-3.4803,-3.4566,-3.4014,-3.2303,-3.1231,-3.0575,0.0,0.0,-3.2357,-3.4148,-3.5813,-3.7514,-3.927,-3.8841,-3.8865,0.0,0.0,0.0,0.0,0.0,0.0,-3.921,0.0,-3.9183,-3.9101,-3.9101,-3.9101,-3.9101,-3.8979,-3.8892,-3.891,-3.878,-3.8483,-3.805,-3.654,-3.5797,-3.565,-3.4397,-3.3322,-3.2457,-3.1606,-3.076,-2.9989,-2.9279,-2.9011,-2.9011,-2.9011,-2.8958,-2.8924,-2.874,-2.8317,-2.7807,-2.7131,-2.6548,-2.6091,-2.5679,-2.5121,-2.4522,-2.4522,-2.4118,-2.361,-2.3494,-2.3407,-2.3275,-2.3127,-2.2992,-2.2888,-2.2888,-2.2555,-2.203,-2.1527,-2.0993,-2.0459,-1.9901,-1.9798,-1.9798,-1.9798,-1.9798,-1.9798,-1.9798,-1.9798,-1.9798,-1.9798,-1.9798,-1.9798,-1.9798,-1.9798,-1.9798,-1.9798,-1.9656,-1.9617,-1.9617,-1.9473,-1.942,-1.942,-1.9368,-1.9081,-1.8525,-1.8471,-1.8135,-1.7578,-1.7523,-1.7523,-1.7523,-1.7101,-1.6899,-3.0195,-3.1598,-3.3028,-3.3232,-3.3676,-3.3984,-3.3789,-3.2773,-3.1738,-3.1289,-2.9427,-2.8079,0.0,0.0,0.0,-3.3149,-3.5476,0.0,-3.9342,-3.989,0.0,-4.026,0.0,-3.9793,-3.9661,-3.9602,0.0,0.0,-3.9283,-3.9183,-3.9183,-3.9129,-3.9101,-3.9101,-3.9007,-3.895,-3.891,-3.878,-3.8368,-3.765,-3.6684,-3.5664,-3.4493,-3.3402,-3.2222,-3.0936,-3.0561,-2.9993,-2.9262,-2.9059,-2.9011,-2.9011,-2.9011,-2.86,-2.8022,-2.7914,-2.7401,-2.6611,-2.5758,-2.5498,-2.552,-2.5002,-2.4418,-2.3864,-2.3864,-2.3744,-2.361,-2.3494,-2.3407,-2.3275,-2.3127,-2.2992,-2.2888,-2.2888,-2.2555,-2.203,-2.1527,-2.0993,-2.0459,-1.9901,-1.9798,-1.9798,-1.9798,-1.9798,-1.9747,-1.9656,-1.9656,-1.9708,-1.9798,-1.9798,-1.9759,-1.9656,-1.9656,-1.9617,-1.9512,-1.9473,-1.946,-1.9617,-1.9473,-1.942,-1.9565,-1.9016,-1.859,-1.8387,-1.7929,-1.7545,-1.7302,-1.6856,-1.6641,-1.6641,-1.6093,-1.5816,-3.0955,-3.1848,-3.274,-3.3145,-3.3314,-3.317,-3.2458,-3.158,-3.0564,-2.9411,-2.7988,0.0,-2.7042,0.0,0.0,0.0,0.0,0.0,-3.8161,-3.8858,-3.9141,0.0,-3.9444,0.0,-3.9184,-3.9425,-3.9577,0.0,-3.938,-3.9256,-3.921,-3.9129,-3.9101,-3.9101,-3.9036,-3.8783,-3.8317,-3.8394,-3.779,-3.6488,-3.5919,-3.4918,-3.3524,-3.2324,-3.125,-3.0338,0.0,-2.8946,-2.845,-2.8112,-2.7977,-2.7977,-2.7958,-2.7634,-2.7212,-2.7071,-2.6485,-2.5668,-2.5098,-2.4766,-2.4572,-2.4267,-2.3924,-2.3595,-2.3566,-2.3581,-2.3523,-2.3378,-2.329,-2.3201,-2.3037,-2.2947,-2.2888,-2.2888,-2.2356,-2.1779,-2.1465,-2.0782,-2.0156,-1.985,-1.9759,-1.9708,-1.9708,-1.9656,-1.9604,-1.9617,-1.9617,-1.9604,-1.9708,-1.9708,-1.9656,-1.9617,-1.9617,-1.9565,-1.946,-1.9368,-1.9328,-1.942,-1.9316,-1.9263,-1.9356,-1.8922,-1.8536,-1.8213,-1.76,-1.7146,-1.681,-1.6197,-1.5911,-1.5921,-1.5642,-1.5546,-3.1496,-3.1765,-3.2027,-3.2842,-3.3009,-3.2572,-3.1063,-3.0639,-2.9878,-2.7495,0.0,-2.658,-2.5744,-2.6981,-2.8632,-3.0257,0.0,-3.4175,-3.6512,-3.7017,-3.7362,-3.7847,-3.8415,-3.8707,-3.8603,-3.91,-3.9489,-3.9602,-3.9495,-3.9346,-3.921,-3.9044,-3.8897,-3.8785,-3.872,-3.8274,-3.7477,-3.7708,-3.7006,-3.5272,-3.4854,-3.4037,-3.2772,-3.1389,-3.0487,-2.9997,0.0,0.0,-2.7587,-2.6962,-2.6691,-2.6691,-2.664,-2.6572,-2.6452,-2.6295,-2.5705,-2.4965,-2.4863,-2.4338,-2.3681,-2.3595,-2.3595,-2.361,-2.3538,-2.3509,-2.3466,-2.3216,-2.3127,-2.3082,-2.2947,-2.2888,-2.2888,-2.2797,-2.2109,-2.1369,-2.1321,-2.0484,-1.9747,-1.9747,-1.9656,-1.9565,-1.9565,-1.946,-1.942,-1.9512,-1.9565,-1.9565,-1.9512,-1.9565,-1.9617,-1.9565,-1.9565,-1.9565,-1.9512,-1.9316,-1.917,-1.9182,-1.9052,-1.8999,-1.9052,-1.8881,-1.8483,-1.7984,-1.7313,-1.6698,-1.6197,-1.5633,-1.541,-1.541,-1.5604,-1.5672,-3.1667,-3.1831,-3.2007,-3.2174,-3.1718,-3.0989,-3.0035,-2.9262,0.0,0.0,-2.6433,-2.5858,-2.5634,-2.7025,-2.8501,-2.9467,0.0,0.0,0.0,0.0,-3.8053,0.0,0.0,0.0,0.0,0.0,0.0,0.0,0.0,-3.9391,-3.9373,-3.8622,-3.7854,-3.7132,-3.7052,-3.6915,-3.6685,-3.6673,-3.6346,-3.5584,-3.4866,-3.3809,-3.2389,-3.1342,-3.0007,-2.8493,-2.8048,0.0,-2.6877,-2.6742,-2.6691,-2.6691,-2.664,-2.633,-2.5941,-2.5848,-2.5406,-2.4863,-2.4533,-2.4302,-2.412,-2.3739,-2.3595,-2.3595,-2.361,-2.3538,-2.3466,-2.3319,-2.3201,-2.3082,-2.2947,-2.2888,-2.2797,-2.2417,-2.1874,-2.1272,-2.0845,-2.0156,-1.9604,-1.9604,-1.9512,-1.942,-1.942,-1.942,-1.9368,-1.9275,-1.9275,-1.9223,-1.9105,-1.9408,-1.9512,-1.9275,-1.9275,-1.921,-1.9093,-1.9052,-1.9052,-1.917,-1.9052,-1.9052,-1.917,-1.8104,-1.7479,-1.7368,-1.6255,-1.5633,-1.5584,-1.5468,-1.541,-1.541,-1.542,-1.5478,-3.1652,-3.1845,-3.1954,-3.1954,-3.1714,-3.1031,-2.9313,0.0,0.0,0.0,-2.6,-2.568,-2.5616,0.0,0.0,0.0,0.0,0.0,0.0,0.0,0.0,0.0,0.0,0.0,0.0,0.0,0.0,0.0,0.0,-3.8347,-3.8707,-3.7813,-3.7147,-3.6705,-3.6626,-3.6387,-3.5917,-3.6233,-3.5768,-3.4492,-3.3942,-3.3005,-3.1703,-3.0245,-2.9058,-2.8049,-2.7607,0.0,-2.6691,-2.6691,-2.6691,-2.6691,-2.664,-2.6417,-2.6154,-2.603,-2.5668,-2.516,-2.4759,-2.4492,-2.4219,-2.3739,-2.3566,-2.3523,-2.348,-2.3363,-2.3246,-2.3112,-2.3023,-2.2992,-2.2947,-2.2888,-2.2843,-2.2615,-2.1969,-2.1175,-2.0359,-1.9952,-1.9708,-1.9708,-1.9565,-1.942,-1.942,-1.9263,-1.921,-1.9182,-1.9182,-1.917,-1.9105,-1.9263,-1.9328,-1.9235,-1.9182,-1.917,-1.9117,-1.9052,-1.9052,-1.9105,-1.8709,-1.8709,-1.9052,-1.8201,-1.782,-1.8147,-1.6922,-1.6368,-1.6368,-1.569,-1.541,-1.541,-1.541,-1.541,-3.1646,-3.1875,-3.1929,-3.1935,-3.1885,-3.1259,-2.906,-2.8555,0.0,0.0,-2.6253,-2.6245,-2.6163,0.0,-2.8684,0.0,-3.0282,0.0,0.0,0.0,0.0,0.0,0.0,0.0,0.0,0.0,0.0,0.0,0.0,0.0,-3.7567,-3.6856,-3.6352,-3.6166,-3.6114,-3.5766,-3.5118,-3.5642,-3.5009,-3.3249,-3.2913,-3.2081,-3.073,-2.9184,-2.8266,-2.7844,-2.723,0.0,0.0,-2.6691,-2.6691,-2.6691,-2.664,-2.6503,-2.6329,-2.6225,-2.5795,-2.5198,-2.4863,-2.4477,-2.4094,-2.3696,-2.3538,-2.3466,-2.3363,-2.3246,-2.3082,-2.2992,-2.2947,-2.2888,-2.2888,-2.2843,-2.2692,-2.2463,-2.1718,-2.0832,-1.9952,-1.9759,-1.9708,-1.9656,-1.946,-1.9316,-1.9316,-1.9158,-1.9052,-1.9117,-1.917,-1.917,-1.917,-1.917,-1.917,-1.917,-1.917,-1.917,-1.917,-1.9052,-1.8987,-1.8987,-1.8548,-1.8483,-1.8987,-1.8321,-1.8147,-1.8602,-1.7424,-1.681,-1.681,-1.5853,-1.541,-1.541,-1.541,-1.541,-3.1882,-3.1974,-3.208,-3.208,-3.1508,-3.0645,-2.9611,0.0,0.0,-2.8237,-2.8064,-2.804,-2.7979,-2.873,-2.9374,-2.9408,0.0,-3.1972,0.0,0.0,0.0,0.0,0.0,0.0,0.0,0.0,0.0,0.0,0.0,0.0,-3.5917,-3.5721,-3.5237,-3.4439,-3.442,-3.4377,-3.421,-3.4284,-3.3776,-3.2757,-3.2475,-3.1353,-2.9465,-2.8974,-2.8149,-2.7077,-2.6993,0.0,0.0,-2.6691,-2.6691,-2.6691,-2.664,-2.6295,-2.5868,-2.5758,-2.5192,-2.4426,-2.4385,-2.4036,-2.3653,-2.3538,-2.3509,-2.3509,-2.3509,-2.329,-2.3082,-2.3082,-2.2992,-2.2888,-2.2888,-2.2555,-2.203,-2.1042,-2.0346,-1.9901,-1.9668,-1.9512,-1.942,-1.9275,-1.9158,-1.904,-1.904,-1.8999,-1.8987,-1.8999,-1.8999,-1.8999,-1.8999,-1.8999,-1.8999,-1.8999,-1.8999,-1.8999,-1.8999,-1.8999,-1.8987,-1.8987,-1.8934,-1.8934,-1.8987,-1.7875,-1.7313,-1.7368,-1.6197,-1.5584,-1.5584,-1.5468,-1.541,-1.541,-1.541,-1.541,-3.1095,-3.1661,-3.1971,-3.1445,-3.1453,-3.1227,-2.9822,0.0,-2.9269,-2.8469,-2.8293,-2.8286,-2.8203,-2.8919,-2.9484,-2.9416,-2.9985,0.0,0.0,0.0,0.0,0.0,0.0,0.0,0.0,0.0,0.0,0.0,0.0,0.0,-3.4978,-3.4862,-3.4599,-3.4197,-3.4197,-3.3956,-3.3449,-3.3833,-3.3352,-3.2029,-3.1483,-3.0535,-2.9262,-2.8325,-2.7589,-2.7007,-2.6992,0.0,0.0,-2.6691,-2.6691,-2.6691,-2.664,-2.6417,-2.617,-2.5811,-2.5406,-2.4942,-2.4451,-2.4177,-2.3952,-2.3653,-2.3494,-2.3363,-2.329,-2.3127,-2.2992,-2.2992,-2.2947,-2.2888,-2.2888,-2.2555,-2.203,-2.1237,-2.0646,-2.0156,-1.9811,-1.9656,-1.9617,-1.9473,-1.9316,-1.921,-1.9117,-1.9052,-1.8987,-1.8987,-1.8987,-1.8987,-1.8987,-1.8987,-1.8987,-1.8987,-1.8987,-1.8987,-1.8987,-1.8987,-1.8881,-1.8483,-1.8093,-1.7929,-1.7929,-1.709,-1.681,-1.7202,-1.6358,-1.5911,-1.5911,-1.5575,-1.541,-1.541,-1.541,-1.541,-3.0559,-3.1246,-3.1577,-3.0953,-3.127,-3.1391,0.0,0.0,-2.9715,-2.9169,-2.9035,-2.9025,-2.8983,-2.9469,-2.986,-2.9803,-2.9788,-3.0205,-3.1448,0.0,0.0,0.0,0.0,0.0,0.0,0.0,0.0,0.0,0.0,0.0,0.0,-3.3695,-3.3697,-3.3873,-3.3868,-3.3454,-3.2637,-3.3099,-3.2619,-3.1246,-3.0622,-2.9889,-2.9062,-2.7935,-2.731,-2.7184,0.0,0.0,0.0,-2.6742,-2.6691,-2.6691,-2.664,-2.6554,-2.645,-2.6046,-2.5631,-2.5237,-2.4679,-2.4302,-2.4009,-2.3653,-2.3407,-2.3201,-2.3082,-2.2992,-2.2888,-2.2888,-2.2797,-2.2661,-2.2509,-2.2077,-2.1589,-2.1028,-2.0597,-2.0207,-1.9759,-1.9656,-1.9552,-1.946,-1.9356,-1.9263,-1.917,-1.9052,-1.8987,-1.8987,-1.8987,-1.8987,-1.8987,-1.8987,-1.8987,-1.8881,-1.8934,-1.8934,-1.8762,-1.8709,-1.8429,-1.7863,-1.7545,-1.7313,-1.7202,-1.681,-1.6698,-1.6922,-1.6358,-1.6026,-1.6026,-1.5633,-1.541,-1.541,-1.5362,-1.5362,-3.055,-3.0799,-3.0799,-3.0799,-3.0799,-3.0804,0.0,-3.079,-3.0781,-3.0771,-3.0777,-3.0771,-3.076,-3.0771,-3.0765,-3.07,-3.0698,-3.069,-3.071,0.0,0.0,0.0,0.0,0.0,0.0,0.0,0.0,0.0,0.0,0.0,0.0,-3.2054,-3.2366,-3.3105,-3.3055,-3.2618,-3.1819,-3.1733,-3.1279,-3.042,-3.007,-2.945,-2.8594,-2.7971,-2.7672,0.0,0.0,0.0,0.0,-2.6742,-2.6691,-2.6691,-2.664,-2.6554,-2.6485,-2.6347,-2.5705,-2.4902,-2.4902,-2.4313,-2.3509,-2.3363,-2.3201,-2.3082,-2.2947,-2.2888,-2.2888,-2.2888,-2.2555,-2.2077,-2.1561,-2.1042,-2.0459,-1.9952,-1.9708,-1.9565,-1.942,-1.9328,-1.917,-1.904,-1.8999,-1.8987,-1.8987,-1.8987,-1.8987,-1.8987,-1.8987,-1.8987,-1.8987,-1.8987,-1.8881,-1.8614,-1.8827,-1.8762,-1.8147,-1.8007,-1.7722,-1.7257,-1.7667,-1.7667,-1.7202,-1.7202,-1.6922,-1.6312,-1.569,-1.541,-1.541,-1.541,-1.541,-1.541,-1.5264,-1.5215,-3.057,-3.0799,-3.0799,-3.0799,-3.0799,-3.0804,-3.0798,-3.079,-3.0801,-3.0791,-3.081,-3.0796,-3.0796,-3.0761,-3.0747,-3.0758,-3.0734,-3.069,0.0,0.0,0.0,0.0,0.0,0.0,0.0,0.0,0.0,0.0,0.0,0.0,0.0,-3.2079,-3.2147,-3.2281,-3.2195,-3.1782,-3.1005,-3.1477,-3.1006,-2.965,-2.982,-2.9362,-2.8308,-2.7886,0.0,0.0,0.0,0.0,0.0,-2.6742,-2.6691,-2.6691,-2.664,-2.6554,-2.6415,-2.5668,-2.5198,-2.4823,-2.4214,-2.3809,-2.3566,-2.3451,-2.3334,-2.3201,-2.3082,-2.2992,-2.2888,-2.2888,-2.2797,-2.2661,-2.2449,-2.1766,-2.1077,-2.0832,-2.0144,-1.9565,-1.942,-1.9368,-1.9328,-1.917,-1.9117,-1.9117,-1.8999,-1.8987,-1.8987,-1.8987,-1.8987,-1.8987,-1.8987,-1.8987,-1.8987,-1.8881,-1.8934,-1.8827,-1.8494,-1.856,-1.8213,-1.7257,-1.7279,-1.6832,-1.5874,-1.5758,-1.5594,-1.542,-1.5196,-1.5196,-1.5264,-1.5264,-1.5313,-1.541,-1.5362,-1.5362,0.0,-3.0799,-3.0799,-3.0799,-3.0799,0.0,-3.0793,-3.0802,-3.0794,-3.0801,-3.0807,-3.0799,-3.0793,-3.0761,-3.0743,-3.0781,-3.0739,-3.069,0.0,0.0,0.0,0.0,0.0,0.0,0.0,0.0,0.0,0.0,0.0,0.0,0.0,-3.1163,-3.1121,-3.1019,-3.1254,-3.0987,-3.0169,-3.0587,-3.0283,-2.9302,-2.9494,-2.9173,-2.8378,-2.801,0.0,0.0,0.0,0.0,0.0,-2.6725,-2.6691,-2.6691,-2.6606,-2.652,-2.6415,-2.5701,-2.5329,-2.5044,-2.4323,-2.3921,-2.3681,-2.3494,-2.329,-2.3142,-2.3037,-2.2992,-2.2888,-2.2888,-2.2646,-2.2356,-2.2356,-2.1513,-2.0733,-2.0683,-2.0055,-1.942,-1.942,-1.9316,-1.921,-1.917,-1.9117,-1.9105,-1.8987,-1.8987,-1.8987,-1.8987,-1.8987,-1.8987,-1.8987,-1.8987,-1.8881,-1.8667,-1.8774,-1.8667,-1.829,-1.8333,-1.7941,-1.6944,-1.6775,-1.6332,-1.5449,-1.5381,-1.5254,-1.5098,-1.5098,-1.5147,-1.5254,-1.5215,-1.5205,-1.5118,-1.5186,-1.5186,0.0,-3.0808,-3.0804,0.0,0.0,0.0,-3.0808,-3.0798,0.0,-3.081,-3.0794,-3.0793,-3.08,-3.079,-3.079,-3.0784,-3.0736,0.0,0.0,0.0,0.0,0.0,0.0,0.0,0.0,0.0,0.0,0.0,0.0,0.0,0.0,-2.9645,-2.9607,-2.9607,-3.0275,-3.0211,-2.9407,-2.9344,-2.9302,-2.9302,-2.9175,-2.8957,-2.8694,-2.8281,0.0,0.0,0.0,0.0,0.0,-2.6775,-2.6691,-2.6691,-2.6572,-2.652,-2.6485,-2.6239,-2.5864,-2.5389,-2.4981,-2.442,-2.3809,-2.3392,-2.3112,-2.2888,-2.2888,-2.2888,-2.2888,-2.2888,-2.2203,-2.1513,-2.1513,-2.0584,-1.9759,-1.985,-1.9512,-1.9223,-1.9368,-1.9158,-1.8987,-1.8987,-1.8987,-1.8987,-1.8987,-1.8987,-1.8987,-1.8987,-1.8987,-1.8987,-1.8987,-1.8987,-1.8732,-1.8139,-1.841,-1.8344,-1.7767,-1.7512,-1.7112,-1.6343,-1.6265,-1.6036,-1.5672,-1.571,-1.5594,-1.5156,-1.5156,-1.5254,-1.5352,-1.5264,-1.5029,-1.4715,-1.4911,-1.4902,-3.0798,0.0,-3.0804,-3.0804,-3.0804,-3.081,0.0,-3.0804,-3.0799,-3.0796,0.0,-3.0793,-3.0796,-3.0801,-3.0778,-3.0725,-3.0698,0.0,0.0,0.0,0.0,0.0,0.0,0.0,0.0,0.0,0.0,0.0,0.0,0.0,0.0,-2.9737,-2.9645,-2.9607,-2.9717,-2.9658,-2.9411,-2.9388,-2.9386,-2.9386,-2.924,-2.9007,-2.8694,-2.8272,0.0,0.0,0.0,0.0,-2.6926,-2.6876,-2.6792,-2.6691,-2.6674,-2.6589,-2.645,-2.6046,-2.5519,-2.4981,-2.4461,-2.3979,-2.3538,-2.3246,-2.3023,-2.2888,-2.2888,-2.2888,-2.2888,-2.2888,-2.2752,-2.2555,-2.2555,-2.167,-2.0795,-2.0733,-1.9965,-1.917,-1.9105,-1.904,-1.8987,-1.8987,-1.8987,-1.8987,-1.8987,-1.8987,-1.8987,-1.8987,-1.8987,-1.8946,-1.8721,-1.8667,-1.856,-1.8139,-1.8193,-1.8084,-1.7711,-1.7512,-1.7112,-1.6492,-1.6016,-1.5507,-1.4951,-1.4843,-1.4803,-1.4684,-1.4793,-1.4834,-1.4883,-1.497,-1.5029,-1.4911,-1.497,-1.497,-3.0793,-3.1093,-3.1392,-3.1392,-3.1392,-3.1395,-3.1403,-3.1088,-3.0792,0.0,0.0,0.0,0.0,0.0,0.0,0.0,-3.0724,0.0,0.0,0.0,0.0,0.0,0.0,0.0,0.0,0.0,0.0,0.0,0.0,0.0,0.0,-2.9823,-2.9737,-2.9645,-2.955,-2.9472,-2.9412,-2.9409,-2.9386,-2.9365,-2.9262,-2.9007,-2.8688,-2.829,-2.7936,0.0,0.0,0.0,-2.6942,-2.6926,-2.6825,-2.6691,-2.6607,-2.6572,-2.645,-2.5868,-2.5465,-2.5082,-2.4354,-2.3754,-2.329,-2.3082,-2.2947,-2.2888,-2.2888,-2.2888,-2.2888,-2.2888,-2.2555,-2.2203,-2.2156,-2.1224,-2.0359,-2.0308,-1.9656,-1.9117,-1.9105,-1.9052,-1.8987,-1.8987,-1.8987,-1.8987,-1.8987,-1.8987,-1.8934,-1.8827,-1.8827,-1.8721,-1.8398,-1.8344,-1.8236,-1.792,-1.7931,-1.7822,-1.7545,-1.7011,-1.6775,-1.6853,-1.6379,-1.5806,-1.5284,-1.4951,-1.4725,-1.4616,-1.4725,-1.4775,-1.4715,-1.4834,-1.4852,-1.4743,-1.4743,-1.4743,-3.0798,-3.1438,-3.2109,-3.2107,-3.2205,-3.2264,-3.2128,0.0,0.0,0.0,0.0,0.0,0.0,0.0,0.0,0.0,0.0,0.0,0.0,0.0,0.0,0.0,0.0,0.0,0.0,0.0,0.0,0.0,0.0,0.0,0.0,-2.9891,-2.9825,-2.9683,-2.9569,-2.9472,-2.9412,-2.9409,-2.9365,-2.9323,-2.924,-2.9067,-2.8767,-2.8308,-2.7982,0.0,0.0,0.0,-2.6975,-2.6926,-2.6825,-2.6691,-2.6555,-2.652,-2.645,-2.5868,-2.5594,-2.5335,-2.442,-2.361,-2.3037,-2.2947,-2.2888,-2.2888,-2.2888,-2.2888,-2.2888,-2.2797,-2.2203,-2.1609,-2.1479,-2.0547,-1.9668,-1.9668,-1.9303,-1.904,-1.9117,-1.9052,-1.8987,-1.8987,-1.8987,-1.8987,-1.8987,-1.8999,-1.8881,-1.8614,-1.856,-1.8398,-1.8084,-1.8041,-1.792,-1.7656,-1.759,-1.7434,-1.7211,-1.64,-1.6228,-1.7043,-1.6581,-1.6114,-1.57,-1.5294,-1.4951,-1.4656,-1.4852,-1.4784,-1.4597,-1.4597,-1.4488,-1.4327,-1.4327,-1.4327,-3.0784,-3.1437,-3.2107,-3.2107,-3.2655,-3.3006,-3.2276,-3.2008,0.0,0.0,0.0,0.0,0.0,0.0,0.0,0.0,0.0,0.0,0.0,0.0,0.0,0.0,0.0,0.0,0.0,0.0,0.0,0.0,0.0,0.0,0.0,0.0,-2.9719,-2.9701,-2.9626,-2.955,-2.9492,-2.9429,-2.9386,-2.9386,-2.9262,-2.9178,-2.9112,-2.842,-2.8075,0.0,0.0,-2.7038,-2.6975,-2.6926,-2.6825,-2.6691,-2.6674,-2.6589,-2.6485,-2.6364,-2.5994,-2.5351,-2.4282,-2.348,-2.2947,-2.2902,-2.2888,-2.2888,-2.2888,-2.2888,-2.2797,-2.2417,-2.2463,-2.2646,-2.2646,-2.1718,-2.0746,-2.0746,-1.9837,-1.8999,-1.9052,-1.8987,-1.8987,-1.8987,-1.8987,-1.8987,-1.8987,-1.8827,-1.8667,-1.8614,-1.8344,-1.8084,-1.7822,-1.7767,-1.7656,-1.739,-1.7043,-1.6751,-1.6694,-1.6218,-1.5989,-1.6104,-1.5313,-1.4803,-1.4743,-1.4625,-1.4565,-1.4506,-1.4565,-1.4437,-1.413,-1.413,-1.3941,-1.3631,-1.3631,-1.3631,-3.0774,-3.1445,-3.2092,-3.2096,-3.2764,-3.3309,-3.2892,-3.2448,0.0,0.0,0.0,0.0,0.0,0.0,0.0,0.0,0.0,0.0,0.0,0.0,0.0,0.0,0.0,0.0,0.0,0.0,0.0,0.0,0.0,0.0,0.0,0.0,-2.9773,-2.9701,-2.9626,-2.9588,-2.955,-2.9451,-2.9388,-2.9344,-2.9283,-2.9218,-2.9134,-2.8633,-2.8308,-2.8057,0.0,-2.7261,-2.7007,-2.6959,-2.6859,-2.6691,-2.664,-2.6606,-2.64,-2.5458,-2.4748,-2.4179,-2.3345,-2.298,-2.2888,-2.2888,-2.2671,-2.2439,-2.2651,-2.2462,-2.2186,-2.2179,-2.2077,-2.1908,-2.1513,-2.0733,-2.0016,-1.994,-1.9448,-1.8987,-1.8987,-1.8987,-1.8987,-1.8987,-1.8881,-1.8774,-1.8774,-1.8506,-1.8356,-1.8356,-1.8084,-1.7822,-1.7711,-1.7545,-1.7445,-1.7334,-1.7099,-1.6987,-1.6987,-1.6343,-1.5874,-1.5874,-1.5245,-1.4902,-1.4902,-1.4428,-1.4198,-1.4198,-1.407,-1.3881,-1.3761,-1.3761,-1.3761,-1.3761,-1.3571,-1.3571,-3.0774,-3.1285,-3.1851,-3.2048,0.0,-3.3398,-3.3398,-3.2734,0.0,0.0,0.0,0.0,0.0,0.0,0.0,0.0,0.0,0.0,0.0,0.0,0.0,0.0,0.0,0.0,0.0,0.0,0.0,0.0,0.0,0.0,0.0,0.0,-2.9806,-2.9701,-2.9645,-2.9607,-2.9607,-2.9472,-2.9297,-2.9047,-2.9026,-2.8923,-2.8813,-2.8542,-2.8301,-2.8075,-2.78,-2.7417,-2.7007,-2.6975,-2.6757,-2.6454,-2.6371,-2.6286,-2.6013,-2.441,-2.3732,-2.349,-2.2557,-2.2423,-2.2671,-2.2671,-2.2337,-2.1975,-2.2474,-2.2181,-2.1733,-2.1783,-2.1336,-2.082,-2.0607,-1.9952,-1.9368,-1.9251,-1.9093,-1.8987,-1.8987,-1.8987,-1.8987,-1.8987,-1.8827,-1.8667,-1.8667,-1.841,-1.8193,-1.8084,-1.7865,-1.7656,-1.7601,-1.7434,-1.7278,-1.7278,-1.7222,-1.7043,-1.6694,-1.5931,-1.54,-1.5342,-1.505,-1.4883,-1.4815,-1.424,-1.3881,-1.3881,-1.3631,-1.345,-1.339,-1.339,-1.3459,-1.3649,-1.3398,-1.3459,-3.0789,-3.0843,-3.109,-3.1909,-3.2753,-3.3398,-3.3398,-3.2734,0.0,-3.2012,0.0,0.0,0.0,0.0,0.0,0.0,0.0,0.0,0.0,0.0,0.0,0.0,0.0,0.0,0.0,0.0,0.0,0.0,0.0,0.0,0.0,0.0,0.0,-2.9701,-2.9701,-2.9645,-2.9607,-2.9531,-2.908,-2.8275,-2.8157,-2.8093,-2.8064,-2.7684,-2.7734,-2.8075,-2.7754,-2.7386,-2.6992,-2.6926,-2.6435,-2.5661,-2.5612,-2.5447,-2.5146,-2.3978,-2.3952,-2.4275,-2.2622,-2.2036,-2.2062,-2.2062,-2.1845,-2.1741,-2.2415,-2.2388,-2.1955,-2.0931,-2.0254,-2.0136,-2.1212,-2.0696,-1.994,-1.994,-1.9436,-1.8987,-1.8987,-1.8987,-1.8987,-1.8987,-1.8987,-1.8987,-1.8987,-1.8721,-1.8452,-1.8139,-1.7865,-1.7601,-1.739,-1.7334,-1.7278,-1.7278,-1.692,-1.6171,-1.5001,-1.4419,-1.4001,-1.3683,-1.3941,-1.3941,-1.3631,-1.3571,-1.3511,-1.3511,-1.3511,-1.3338,-1.305,-1.305,-1.2928,-1.2683,-1.2683,-1.2683,-3.0789,-3.0799,-3.0871,-3.1204,-3.1543,0.0,0.0,-3.2343,-3.1953,-3.1407,-3.1036,0.0,0.0,0.0,0.0,0.0,0.0,0.0,0.0,0.0,0.0,0.0,0.0,0.0,0.0,0.0,0.0,0.0,0.0,0.0,0.0,0.0,0.0,-2.9701,-2.9701,-2.9701,-2.9645,-2.955,-2.9081,-2.8278,-2.8623,-2.8799,-2.8735,-2.8562,-2.807,-2.7415,-2.7281,-2.6597,-2.5589,-2.5541,-2.5295,-2.4898,-2.4757,-2.4365,-2.3775,-2.2788,-2.2508,-2.244,-2.1404,-2.1433,-2.1989,-2.1989,-2.1671,-2.1312,-2.1842,-2.1265,-2.0412,-2.0257,-1.9745,-1.9323,-1.9391,-1.8915,-1.8388,-1.8388,-1.8457,-1.8506,-1.8506,-1.8758,-1.8987,-1.8987,-1.8679,-1.8464,-1.8464,-1.7809,-1.7438,-1.782,-1.7323,-1.7082,-1.7512,-1.7379,-1.7278,-1.7278,-1.7155,-1.6513,-1.5235,-1.4942,-1.441,-1.3277,-1.3519,-1.3631,-1.3511,-1.3277,-1.3164,-1.3164,-1.3042,-1.2858,-1.2744,-1.2744,-1.2805,-1.2867,-1.2552,-1.256,-3.0867,-3.0808,-3.0802,-3.0794,0.0,0.0,-3.1585,-3.1694,-3.1571,-3.1267,-3.0969,0.0,0.0,0.0,0.0,0.0,0.0,0.0,0.0,0.0,0.0,0.0,0.0,0.0,0.0,0.0,0.0,0.0,0.0,0.0,0.0,0.0,0.0,0.0,-2.9439,-2.9288,-2.9288,-2.8933,-2.8465,-2.7923,-2.8327,-2.8484,-2.8384,-2.8101,-2.7524,-2.6731,-2.6655,-2.5922,-2.482,-2.4731,-2.4462,-2.4059,-2.3653,-2.3259,-2.2772,-2.1779,-2.1486,-2.1441,-2.041,-2.064,-2.1394,-2.1394,-2.0992,-2.0567,-2.104,-2.0386,-1.953,-1.9623,-1.9128,-1.8449,-1.7872,-1.7634,-1.7557,-1.7557,-1.7738,-1.8001,-1.8157,-1.835,-1.859,-1.8821,-1.8301,-1.7878,-1.8081,-1.7258,-1.6833,-1.7611,-1.7113,-1.6861,-1.7479,-1.7434,-1.7211,-1.6976,-1.674,-1.6161,-1.4982,-1.4756,-1.4172,-1.292,-1.3094,-1.3216,-1.3216,-1.2981,-1.2867,-1.2867,-1.2621,-1.2498,-1.2498,-1.2436,-1.256,-1.2736,-1.2367,-1.2243,-3.1028,-3.0802,-3.0801,0.0,0.0,0.0,-3.0886,-3.0804,-3.0958,-3.1889,0.0,-3.0672,0.0,0.0,0.0,0.0,0.0,0.0,0.0,0.0,0.0,0.0,0.0,0.0,0.0,0.0,0.0,0.0,0.0,0.0,0.0,0.0,0.0,0.0,-2.8838,-2.8388,-2.8388,-2.753,-2.7101,-2.7101,-2.6878,-2.6762,-2.6667,-2.5891,-2.5764,-2.6193,-2.5918,-2.5526,-2.5073,-2.4802,-2.4096,-2.3117,-2.23,-2.2165,-2.2248,-2.1049,-2.1177,-2.1736,-1.9916,-1.9666,-2.0103,-2.0103,-1.981,-1.9543,-2.0119,-2.0028,-1.9551,-1.8969,-1.8253,-1.7586,-1.7059,-1.7395,-1.7881,-1.7881,-1.7642,-1.7544,-1.8073,-1.7784,-1.7625,-1.8454,-1.7788,-1.7322,-1.7955,-1.7341,-1.6905,-1.7598,-1.7274,-1.7033,-1.7268,-1.7278,-1.6965,-1.6177,-1.5565,-1.4805,-1.3768,-1.326,-1.2867,-1.2621,-1.2621,-1.2621,-1.2621,-1.2621,-1.2621,-1.2621,-1.2375,-1.2305,-1.2305,-1.2182,-1.2127,-1.2058,-1.2058,-1.167,-3.0962,-3.0755,0.0,-3.0801,0.0,0.0,0.0,-3.0762,0.0,0.0,0.0,0.0,0.0,0.0,0.0,0.0,0.0,0.0,0.0,0.0,0.0,0.0,0.0,0.0,0.0,0.0,0.0,0.0,0.0,0.0,0.0,0.0,0.0,0.0,-2.8112,-2.7629,-2.7629,-2.7285,-2.7101,-2.7101,-2.6377,-2.6283,-2.678,-2.7071,-2.6845,-2.625,-2.5991,-2.5303,-2.4311,-2.3397,-2.2835,-2.2529,-2.2157,-2.191,-2.1678,-2.1119,-2.0881,-2.0742,-1.9882,-1.9938,-2.0371,-2.0167,-2.0023,-1.9933,-2.0105,-1.9565,-1.8836,-1.8641,-1.8208,-1.7797,-1.7624,-1.7418,-1.7068,-1.6532,-1.664,-1.6859,-1.686,-1.7025,-1.7225,-1.7256,-1.688,-1.6615,-1.6809,-1.6132,-1.577,-1.6269,-1.6247,-1.6222,-1.6444,-1.6161,-1.5686,-1.4951,-1.4965,-1.4557,-1.3468,-1.3459,-1.326,-1.2621,-1.2621,-1.2621,-1.2621,-1.2621,-1.256,-1.2367,-1.2305,-1.2243,-1.2182,-1.212,-1.1856,-1.1337,-1.1094,-1.0577,-3.1022,-3.075,0.0,-3.0794,-3.0791,-3.0796,-3.0771,0.0,0.0,0.0,0.0,0.0,0.0,0.0,0.0,0.0,0.0,0.0,0.0,0.0,0.0,0.0,0.0,0.0,0.0,0.0,0.0,0.0,0.0,0.0,0.0,0.0,0.0,0.0,-2.7324,-2.6843,-2.6811,-2.6397,-2.6163,-2.6093,-2.5501,-2.5466,-2.5894,-2.6335,-2.6121,-2.5439,-2.5003,-2.4317,-2.3404,-2.2592,-2.2225,-2.2163,-2.2015,-2.1735,-2.137,-2.1071,-2.0648,-2.0139,-1.9747,-1.9745,-1.9935,-1.9773,-1.9594,-1.9477,-1.9477,-1.8891,-1.8282,-1.8282,-1.7989,-1.7666,-1.7543,-1.7073,-1.6607,-1.6306,-1.6256,-1.632,-1.6384,-1.6527,-1.6598,-1.6642,-1.6192,-1.5898,-1.6053,-1.5405,-1.505,-1.5625,-1.5506,-1.5394,-1.5425,-1.498,-1.4506,-1.3959,-1.4057,-1.3754,-1.278,-1.3041,-1.302,-1.2414,-1.2419,-1.2498,-1.2498,-1.2498,-1.2243,-1.1787,-1.1725,-1.1476,-1.1094,-1.1031,-1.071,-1.0192,-1.0002,-0.9558,-3.1158,0.0,0.0,-3.0794,-3.081,0.0,-3.0709,0.0,0.0,0.0,0.0,0.0,0.0,0.0,0.0,0.0,0.0,0.0,0.0,0.0,0.0,0.0,0.0,0.0,0.0,0.0,0.0,0.0,0.0,0.0,0.0,0.0,0.0,0.0,-2.6513,-2.6052,-2.5993,-2.5197,-2.4745,0.0,-2.4528,-2.4497,-2.45,-2.4504,-2.4395,-2.4207,-2.3594,-2.3003,-2.2487,-2.2282,-2.2135,-2.1998,-2.194,-2.1691,-2.1309,-2.1039,-2.0548,-1.9934,-1.966,-1.9384,-1.9139,-1.9101,-1.8851,-1.8556,-1.8556,-1.8268,-1.7963,-1.7963,-1.7706,-1.7365,-1.7086,-1.6637,-1.6411,-1.6778,-1.6318,-1.5924,-1.6358,-1.6083,-1.5887,-1.6302,-1.5645,-1.5174,-1.5603,-1.4963,-1.4642,-1.5415,-1.5008,-1.4583,-1.4398,-1.3846,-1.3424,-1.3086,-1.2926,-1.2588,-1.1982,-1.2289,-1.2369,-1.1984,-1.2171,-1.2243,-1.2243,-1.2236,-1.1787,-1.0954,-1.0766,-1.0255,-0.9424,-0.9302,-0.9116,-0.8924,-0.886,-0.8474,-3.0969,-3.0748,0.0,0.0,-3.0798,-3.0796,-3.079,0.0,0.0,0.0,0.0,0.0,0.0,0.0,0.0,0.0,0.0,0.0,0.0,0.0,0.0,0.0,0.0,0.0,0.0,0.0,0.0,0.0,0.0,0.0,0.0,0.0,0.0,-2.6619,-2.5786,-2.5264,-2.5158,-2.4926,-2.476,0.0,-2.4564,-2.4495,-2.4515,-2.5078,-2.5071,-2.459,-2.4367,-2.3611,-2.2487,-2.2394,-2.2282,-2.2152,-2.2015,-2.1882,-2.1721,-2.1355,-2.0991,-2.0614,-2.008,-1.969,-1.9384,-1.9176,-1.9026,-1.895,-1.895,-1.8697,-1.8361,-1.8361,-1.8069,-1.7788,-1.7706,-1.7047,-1.6484,-1.6565,-1.6175,-1.5727,-1.5474,-1.5325,-1.5177,-1.4929,-1.4598,-1.4485,-1.4657,-1.4385,-1.4249,-1.4804,-1.4499,-1.41,-1.4048,-1.3423,-1.2687,-1.1881,-1.183,-1.1664,-1.1241,-1.1665,-1.1929,-1.185,-1.2057,-1.2058,-1.1926,-1.1469,-1.108,-1.064,-1.0066,-0.9558,-0.9116,-0.9052,-0.8796,-0.8221,-0.7897,-0.7386,-3.0928,0.0,0.0,-3.0793,0.0,-3.0796,-3.0801,0.0,0.0,0.0,0.0,0.0,0.0,0.0,0.0,0.0,0.0,0.0,0.0,0.0,0.0,0.0,0.0,0.0,0.0,0.0,0.0,0.0,0.0,0.0,0.0,-2.588,-2.5868,-2.5834,-2.5385,-2.5107,-2.4993,-2.4898,-2.4798,-2.4745,-2.4596,-2.453,-2.4515,-2.4819,-2.4739,-2.4346,-2.4086,-2.3517,-2.2712,-2.246,-2.231,-2.2225,-2.2015,-2.194,-2.1853,-2.1464,-2.1039,-2.063,-2.015,-1.969,-1.9273,-1.9139,-1.895,-1.8812,-1.8812,-1.8542,-1.8202,-1.8202,-1.8043,-1.7801,-1.7365,-1.6879,-1.6386,-1.5944,-1.5647,-1.5379,-1.5153,-1.5108,-1.4971,-1.4605,-1.4512,-1.4419,-1.4419,-1.4233,-1.4111,-1.421,-1.3591,-1.3068,-1.2929,-1.2175,-1.1584,-1.1263,-1.1208,-1.1076,-1.0902,-1.1246,-1.1484,-1.1484,-1.1571,-1.1645,-1.1677,-1.0647,-1.0002,-0.9945,-0.9373,-0.8617,-0.7678,-0.7718,-0.7459,-0.6916,-0.6755,-0.6478,-3.0886,0.0,-3.0714,-3.0786,-3.0807,0.0,0.0,0.0,0.0,0.0,0.0,0.0,0.0,0.0,0.0,0.0,0.0,0.0,0.0,0.0,0.0,0.0,0.0,0.0,0.0,0.0,0.0,0.0,0.0,0.0,-2.5222,-2.5222,-2.5201,-2.5198,-2.5214,-2.5156,-2.5101,-2.4993,-2.4912,-2.4817,-2.4695,-2.4582,-2.45,-2.4393,-2.421,-2.3958,-2.3522,-2.3194,-2.2952,-2.2515,-2.231,-2.2254,-2.2015,-2.1911,-2.1853,-2.1464,-2.0958,-2.0447,-2.0115,-1.9581,-1.9064,-1.9064,-1.8812,-1.8517,-1.8517,-1.8242,-1.7963,-1.7963,-1.7882,-1.7625,-1.6863,-1.6497,-1.6139,-1.5367,-1.5062,-1.4971,-1.5017,-1.5017,-1.4971,-1.4708,-1.4651,-1.4558,-1.4326,-1.4233,-1.4068,-1.3711,-1.2988,-1.2299,-1.1956,-1.1207,-1.078,-1.0929,-1.08,-1.0639,-1.0639,-1.0831,-1.0959,-1.0902,-1.0989,-1.1046,-1.1193,-0.9762,-0.896,-0.892,-0.8452,-0.7563,-0.6193,-0.6278,-0.6147,-0.5751,-0.5825,-0.5822,0.0,0.0,-3.0714,0.0,-3.0801,0.0,0.0,0.0,0.0,0.0,0.0,0.0,0.0,0.0,0.0,0.0,0.0,0.0,0.0,0.0,0.0,0.0,0.0,0.0,0.0,0.0,0.0,0.0,0.0,0.0,-2.5282,-2.5282,-2.5261,-2.5198,-2.5206,-2.516,-2.5101,-2.507,-2.5012,-2.4893,-2.4817,-2.4679,-2.4495,-2.4481,-2.4303,-2.3976,-2.3566,-2.32,-2.2884,-2.2525,-2.231,-2.2197,-2.2061,-2.194,-2.1853,-2.1464,-2.0958,-2.0447,-2.0115,-1.9508,-1.8822,-1.8822,-1.8697,-1.8517,-1.8517,-1.8361,-1.8163,-1.8163,-1.7828,-1.7447,-1.731,-1.6497,-1.5668,-1.5546,-1.5006,-1.4558,-1.4708,-1.4743,-1.4697,-1.4477,-1.4419,-1.4326,-1.3952,-1.3962,-1.3936,-1.3655,-1.3508,-1.3152,-1.2429,-1.1918,-1.1401,-1.0783,-1.0379,-1.0119,-1.0119,-1.0271,-1.0349,-1.0217,-1.0421,-1.0205,-0.9642,-0.8997,-0.8276,-0.7481,-0.6948,-0.6506,-0.6179,-0.6075,-0.5943,-0.5858,-0.5741,-0.5554,-3.0688,-3.0671,-3.0672,0.0,-3.0714,0.0,0.0,0.0,0.0,0.0,0.0,0.0,0.0,0.0,0.0,0.0,0.0,0.0,0.0,0.0,0.0,0.0,0.0,0.0,0.0,0.0,0.0,0.0,0.0,-2.537,-2.5361,-2.5332,-2.5283,-2.5262,-2.5231,-2.5198,-2.5153,-2.5113,-2.5012,-2.4842,-2.4802,-2.4711,-2.4547,-2.4515,-2.4321,-2.3976,-2.361,-2.3265,-2.2927,-2.2579,-2.2405,-2.231,-2.2073,-2.1969,-2.1911,-2.1587,-2.1135,-2.0697,-2.0444,-1.996,-1.9435,-1.9273,-1.8959,-1.8707,-1.8542,-1.8282,-1.8043,-1.8043,-1.7868,-1.7529,-1.6866,-1.6299,-1.5744,-1.5096,-1.4651,-1.4419,-1.4512,-1.4512,-1.4466,-1.4326,-1.4244,-1.4104,-1.3962,-1.3973,-1.3821,-1.3314,-1.2967,-1.2423,-1.1701,-1.1141,-1.0694,-1.036,-0.9991,-0.9777,-0.9777,-0.9708,-0.9592,-0.9357,-0.9388,-0.9131,-0.858,-0.7899,-0.7354,-0.6938,-0.6621,-0.6227,-0.575,-0.5709,-0.5639,-0.5427,-0.5456,-0.5362,0.0,0.0,-3.0614,-3.0656,0.0,0.0,0.0,0.0,0.0,0.0,0.0,0.0,0.0,0.0,0.0,0.0,0.0,0.0,0.0,0.0,0.0,0.0,0.0,0.0,0.0,0.0,0.0,0.0,0.0,-2.5423,-2.5395,-2.534,-2.5332,-2.5303,-2.5253,-2.5222,-2.5192,-2.5153,-2.5032,-2.4894,-2.4846,-2.4772,-2.4647,-2.4584,-2.4358,-2.3998,-2.3631,-2.3318,-2.3035,-2.2632,-2.2432,-2.2377,-2.2101,-2.1998,-2.1969,-2.1648,-2.1277,-2.0861,-2.063,-2.0204,-1.969,-1.9442,-1.902,-1.8616,-1.8425,-1.8123,-1.7882,-1.7842,-1.7706,-1.7352,-1.6373,-1.594,-1.5511,-1.464,-1.4373,-1.4326,-1.4326,-1.4326,-1.4326,-1.4186,-1.4057,-1.3926,-1.3716,-1.3716,-1.3467,-1.2764,-1.2209,-1.1674,-1.1049,-1.0498,-1.0095,-0.994,-0.9673,-0.951,-0.951,-0.9309,-0.909,-0.886,-0.8599,-0.8193,-0.7753,-0.6895,-0.6433,-0.6307,-0.6185,-0.5847,-0.5329,-0.5377,-0.524,-0.5008,-0.5127,-0.513,0.0,-3.0657,0.0,0.0,0.0,0.0,0.0,0.0,0.0,0.0,0.0,0.0,0.0,0.0,0.0,0.0,0.0,0.0,0.0,0.0,0.0,0.0,0.0,0.0,0.0,0.0,0.0,0.0,0.0,-2.5476,-2.5401,-2.5393,-2.5367,-2.5313,-2.5303,-2.5264,-2.5192,-2.5198,-2.5172,-2.5088,-2.4961,-2.4851,-2.4791,-2.4714,-2.4462,-2.4078,-2.3592,-2.3369,-2.323,-2.2651,-2.2405,-2.2377,-2.2101,-2.1998,-2.194,-2.1479,-2.1135,-2.0861,-2.0512,-1.9773,-1.8968,-1.893,-1.85,-1.7963,-1.7922,-1.7922,-1.7882,-1.776,-1.7144,-1.6514,-1.6355,-1.5534,-1.4754,-1.4627,-1.4373,-1.4222,-1.4222,-1.4222,-1.4176,-1.4057,-1.402,-1.3763,-1.3016,-1.2861,-1.2609,-1.1814,-1.1665,-1.1425,-1.0897,-1.0685,-1.032,-0.9666,-0.951,-0.9361,-0.9211,-0.9211,-0.9113,-0.8976,-0.8328,-0.7628,-0.6998,-0.6237,-0.564,-0.5214,-0.5039,-0.5051,-0.5198,-0.5021,-0.4826,-0.4626,-0.4632,-0.464,0.0,0.0,0.0,0.0,0.0,0.0,0.0,0.0,0.0,0.0,0.0,0.0,0.0,0.0,0.0,0.0,0.0,0.0,0.0,0.0,0.0,0.0,0.0,0.0,0.0,0.0,0.0,0.0,0.0,0.0,-2.5401,-2.5395,-2.5406,-2.5423,-2.5397,-2.5332,-2.5264,-2.5253,-2.5209,-2.5101,-2.5057,-2.4953,-2.4798,-2.4776,-2.4599,-2.4266,-2.384,-2.3414,-2.3021,-2.2807,-2.2571,-2.2293,-2.2101,-2.1998,-2.1969,-2.1721,-2.1417,-2.1135,-2.1007,-2.0496,-1.9823,-1.966,-1.9221,-1.8693,-1.8386,-1.8149,-1.7935,-1.776,-1.7447,-1.6993,-1.6281,-1.5756,-1.522,-1.4384,-1.415,-1.3999,-1.3847,-1.38,-1.38,-1.3763,-1.3314,-1.2861,-1.2609,-1.2267,-1.1823,-1.1191,-1.0922,-1.0618,-1.0072,-0.9821,-0.9614,-0.9361,-0.9211,-0.9113,-0.9061,-0.8896,-0.8626,-0.8203,-0.745,-0.675,-0.6105,-0.5394,-0.4933,-0.4783,-0.4758,-0.4874,-0.5143,-0.4861,-0.4736,-0.4689,-0.389,-0.3459,-3.0632,0.0,0.0,0.0,0.0,0.0,0.0,0.0,0.0,0.0,0.0,0.0,0.0,0.0,0.0,0.0,0.0,0.0,0.0,0.0,0.0,0.0,0.0,0.0,0.0,0.0,0.0,0.0,0.0,0.0,-2.5412,-2.5378,-2.5397,-2.5468,-2.536,-2.5303,-2.5331,-2.5264,-2.5212,-2.5206,-2.5137,-2.5032,-2.4888,-2.4798,-2.4629,-2.4428,-2.4097,-2.3631,-2.3087,-2.2933,-2.2686,-2.2377,-2.2203,-2.2118,-2.2015,-2.1751,-2.1509,-2.1309,-2.1183,-2.0778,-2.0239,-1.9889,-1.9406,-1.8921,-1.8425,-1.8149,-1.7935,-1.7679,-1.731,-1.6769,-1.6008,-1.549,-1.4903,-1.4093,-1.3821,-1.3716,-1.3515,-1.3515,-1.3563,-1.3467,-1.3016,-1.2618,-1.2374,-1.1873,-1.1266,-1.0685,-1.0277,-0.9865,-0.951,-0.9309,-0.9159,-0.9061,-0.9008,-0.8903,-0.8798,-0.8468,-0.8037,-0.761,-0.6745,-0.6018,-0.5541,-0.4858,-0.4542,-0.4609,-0.4534,-0.4495,-0.4623,-0.454,-0.4478,-0.4364,-0.3374,-0.2414,0.0,0.0,0.0,0.0,0.0,0.0,0.0,0.0,0.0,0.0,0.0,0.0,0.0,0.0,0.0,0.0,0.0,0.0,0.0,0.0,0.0,0.0,0.0,0.0,0.0,0.0,0.0,0.0,0.0,-2.5393,-2.5387,-2.535,-2.533,-2.5387,-2.5203,-2.5194,-2.5401,-2.5214,-2.5212,-2.5398,-2.5206,-2.5099,-2.5091,-2.4818,-2.4623,-2.4489,-2.4356,-2.3998,-2.3481,-2.3003,-2.2738,-2.2596,-2.246,-2.231,-2.214,-2.1617,-2.1417,-2.1355,-2.0942,-2.0512,-2.003,-1.9471,-1.9006,-1.8553,-1.8069,-1.7922,-1.7842,-1.7487,-1.6697,-1.5872,-1.5511,-1.4628,-1.3773,-1.3621,-1.3467,-1.3362,-1.3218,-1.342,-1.3515,-1.3266,-1.317,-1.2977,-1.2246,-1.1633,-1.0965,-1.0261,-0.9614,-0.9211,-0.9159,-0.9159,-0.9054,-0.8804,-0.8752,-0.8646,-0.8368,-0.7818,-0.7385,-0.723,-0.614,-0.5405,-0.5239,-0.4677,-0.4401,-0.4544,-0.4306,-0.3996,-0.3663,-0.411,-0.4046,-0.3533,-0.2961,-0.1436,-3.0576,0.0,0.0,0.0,0.0,0.0,0.0,0.0,0.0,0.0,0.0,0.0,0.0,0.0,0.0,0.0,0.0,0.0,0.0,0.0,0.0,0.0,0.0,0.0,0.0,0.0,0.0,0.0,-2.5441,-2.5382,-2.533,-2.5302,-2.5312,-2.5332,-2.5274,-2.5293,-2.5395,-2.5331,-2.5351,-2.5397,-2.5341,-2.5201,-2.4936,-2.4874,-2.462,-2.4211,-2.4115,-2.3958,-2.3771,-2.3405,-2.2975,-2.2596,-2.246,-2.2366,-2.2254,-2.1928,-2.1645,-2.1386,-2.1214,-2.0761,-2.0185,-1.9945,-1.966,-1.931,-1.8707,-1.8436,-1.8201,-1.7597,-1.7086,-1.6441,-1.5466,-1.472,-1.4093,-1.3457,-1.3266,-1.3218,-1.3162,-1.3113,-1.3065,-1.3017,-1.2608,-1.2008,-1.1309,-1.0728,-1.0167,-0.9562,-0.9263,-0.8956,-0.8685,-0.8533,-0.8321,-0.7895,-0.7842,-0.7676,-0.7283,-0.6843,-0.6401,-0.6013,-0.4988,-0.4408,-0.434,-0.376,-0.3431,-0.337,-0.336,-0.2933,-0.2183,-0.2768,-0.2772,-0.212,-0.059,0.0865,0.0,0.0,0.0,0.0,0.0,0.0,-2.5348,-2.5283,0.0,0.0,0.0,0.0,0.0,0.0,0.0,0.0,0.0,0.0,0.0,0.0,0.0,0.0,0.0,0.0,0.0,0.0,0.0,-2.5461,-2.5429,-2.5367,-2.5303,-2.5303,-2.5303,-2.5351,-2.5262,-2.5283,-2.5406,-2.5313,-2.5303,-2.536,-2.5303,-2.5179,-2.4975,-2.4929,-2.4663,-2.4265,-2.4264,-2.4155,-2.3939,-2.3741,-2.3328,-2.2816,-2.2605,-2.246,-2.2293,-2.2003,-2.1675,-2.1417,-2.1183,-2.0827,-2.046,-2.012,-1.9909,-1.9624,-1.902,-1.8616,-1.8254,-1.7706,-1.6934,-1.5964,-1.4926,-1.4247,-1.3752,-1.319,-1.2997,-1.29,-1.2871,-1.2627,-1.248,-1.2783,-1.2274,-1.1719,-1.156,-1.0787,-1.0218,-1.0182,-0.951,-0.889,-0.8672,-0.8209,-0.7788,-0.7461,-0.7354,-0.7192,-0.6864,-0.6362,-0.581,-0.5202,-0.4446,-0.3837,-0.348,-0.2922,-0.2554,-0.2377,-0.2117,-0.1519,-0.0619,-0.1754,-0.1716,-0.0578,0.0775,0.1891,0.0,0.0,0.0,0.0,0.0,0.0,-2.5282,-2.538,-2.5513,0.0,0.0,0.0,0.0,0.0,0.0,0.0,0.0,0.0,0.0,0.0,0.0,0.0,0.0,0.0,0.0,-2.5468,-2.5418,-2.5415,-2.5416,-2.538,-2.5302,-2.5302,-2.5341,-2.5389,-2.5217,-2.5209,-2.5406,-2.5209,-2.5187,-2.5313,-2.5187,-2.5099,-2.5061,-2.4949,-2.4756,-2.4522,-2.4625,-2.4449,-2.4061,-2.4043,-2.3707,-2.3212,-2.2884,-2.2632,-2.2405,-2.1991,-2.1691,-2.1493,-2.1039,-2.086,-2.0712,-2.0158,-1.9914,-1.9717,-1.908,-1.8577,-1.8135,-1.776,-1.6459,-1.5062,-1.434,-1.3732,-1.3218,-1.2958,-1.2676,-1.2421,-1.2421,-1.2026,-1.1828,-1.2421,-1.2017,-1.171,-1.2175,-1.1242,-1.0626,-1.1057,-0.9806,-0.8817,-0.8771,-0.7931,-0.73,-0.7128,-0.6972,-0.6815,-0.6603,-0.5941,-0.5222,-0.445,-0.3974,-0.3405,-0.2625,-0.2083,-0.1745,-0.1525,-0.0723,0.0058,0.0876,-0.0722,-0.0682,0.0893,0.1495,0.2062,0.0,0.0,0.0,0.0,0.0,0.0,-2.561,-2.5832,-2.6179,0.0,0.0,0.0,0.0,0.0,0.0,0.0,0.0,0.0,0.0,0.0,0.0,0.0,0.0,0.0,0.0,-2.5601,-2.5552,-2.5554,-2.5468,-2.5397,-2.5388,-2.5322,-2.5312,-2.5331,-2.5271,-2.5321,-2.5398,-2.5303,-2.5303,-2.5378,-2.5293,-2.5152,-2.4942,-2.4915,-2.4771,-2.4572,-2.4554,-2.4551,-2.4551,-2.4281,-2.3906,-2.35,-2.3277,-2.2977,-2.2712,-2.2579,-2.2215,-2.1764,-2.1417,-2.1103,-2.0811,-2.0426,-2.0254,-1.9995,-1.8954,-1.8511,-1.812,-1.7005,-1.6349,-1.5824,-1.522,-1.44,-1.3643,-1.3112,-1.2403,-1.1877,-1.1877,-1.1678,-1.1528,-1.1578,-1.1477,-1.1217,-1.071,-1.002,-0.9384,-0.904,-0.8309,-0.7676,-0.7354,-0.6923,-0.649,-0.6114,-0.5832,-0.5336,-0.4625,-0.4236,-0.3624,-0.2738,-0.2298,-0.1995,-0.1843,-0.1179,-0.0708,-0.0597,0.0708,0.1449,0.1468,0.1225,0.1506,0.2175,0.2532,0.2841,0.0,0.0,0.0,-2.7419,0.0,0.0,0.0,-2.5906,-2.5781,0.0,0.0,0.0,0.0,0.0,0.0,0.0,0.0,0.0,0.0,0.0,0.0,0.0,0.0,0.0,0.0,-2.5591,-2.5543,-2.5538,-2.5488,-2.544,-2.5404,-2.5359,-2.536,-2.5351,-2.5341,-2.5341,-2.5351,-2.5322,-2.5293,-2.5293,-2.5243,-2.5149,-2.5056,-2.5056,-2.4936,-2.4775,-2.4891,-2.4855,-2.4689,-2.4554,-2.4352,-2.4061,-2.3566,-2.323,-2.2952,-2.251,-2.2164,-2.182,-2.1276,-2.0974,-2.0827,-2.0543,-2.0289,-1.9925,-1.9244,-1.8588,-1.7841,-1.6837,-1.602,-1.5311,-1.4595,-1.37,-1.2851,-1.2286,-1.1543,-1.099,-1.1141,-1.0846,-1.0541,-1.049,-1.0395,-1.0293,-1.0131,-0.9814,-0.9496,-0.9242,-0.8508,-0.7865,-0.7545,-0.6701,-0.595,-0.5563,-0.534,-0.4897,-0.4184,-0.3901,-0.3347,-0.2294,-0.2022,-0.1647,-0.1,-0.0294,0.0466,0.1261,0.2008,0.2411,0.2464,0.2464,0.2568,0.2653,0.2846,0.3139,0.0,0.0,0.0,0.0,0.0,-2.6747,0.0,0.0,0.0,0.0,0.0,0.0,0.0,0.0,0.0,0.0,0.0,0.0,0.0,0.0,0.0,0.0,0.0,0.0,0.0,-2.5538,-2.5499,-2.5492,-2.5492,-2.5492,-2.541,-2.5429,-2.5421,-2.5395,-2.5397,-2.5379,-2.5322,-2.5322,-2.5292,-2.5222,-2.5164,-2.5164,-2.5201,-2.5201,-2.5115,-2.4994,-2.5252,-2.5153,-2.4832,-2.4865,-2.4785,-2.4601,-2.3905,-2.3495,-2.3236,-2.2548,-2.2224,-2.2029,-2.1275,-2.0942,-2.0812,-2.0512,-1.9929,-1.9325,-1.9051,-1.8131,-1.7076,-1.6441,-1.5466,-1.4468,-1.3737,-1.2861,-1.2008,-1.1401,-1.0685,-1.0167,-1.0312,-0.9917,-0.951,-0.9465,-0.9413,-0.9465,-0.9814,-0.9703,-0.9599,-0.9658,-0.8751,-0.8,-0.7788,-0.6416,-0.5344,-0.5058,-0.4787,-0.4401,-0.3846,-0.3677,-0.3178,-0.2073,-0.2076,-0.1584,-0.0529,0.0176,0.1215,0.2693,0.2916,0.3067,0.3261,0.3286,0.3185,0.3056,0.3072,0.3457,0.0,0.0,0.0,0.0,-2.668,0.0,0.0,0.0,-2.606,0.0,0.0,0.0,0.0,0.0,0.0,0.0,0.0,0.0,0.0,0.0,0.0,0.0,0.0,0.0,0.0,0.0,-2.5511,-2.5492,-2.5507,-2.5495,-2.5488,-2.5492,-2.5456,-2.5401,-2.5393,-2.5404,-2.5378,-2.5398,-2.5351,-2.5293,-2.5282,-2.525,-2.5198,-2.5198,-2.522,-2.5253,-2.5231,-2.5231,-2.5222,-2.5187,-2.5049,-2.4815,-2.4247,-2.3919,-2.3699,-2.3427,-2.317,-2.2849,-2.2057,-2.1453,-2.0958,-2.0215,-1.8948,-1.7679,-1.7165,-1.628,-1.5266,-1.4709,-1.4479,-1.4247,-1.3794,-1.3034,-1.2169,-1.139,-1.0501,-0.9762,-0.9413,-0.9309,-0.9211,-0.9106,-0.9061,-0.9159,-0.9413,-0.8718,-0.8243,-0.8521,-0.7391,-0.647,-0.6421,-0.5105,-0.4174,-0.4174,-0.3456,-0.2792,-0.2293,-0.2237,-0.2015,-0.1458,-0.1331,-0.1237,-0.1119,-0.0236,0.0811,0.2073,0.286,0.3203,0.3149,0.363,0.391,0.3975,0.3904,0.4291,0.0,0.0,0.0,0.0,0.0,0.0,-2.6044,0.0,-2.5558,0.0,0.0,0.0,0.0,0.0,0.0,0.0,0.0,0.0,0.0,0.0,0.0,0.0,0.0,0.0,0.0,0.0,0.0,0.0,0.0,-2.5495,-2.5495,-2.5507,-2.5499,-2.5456,-2.5456,-2.5448,-2.5404,-2.5395,-2.5387,-2.536,-2.5351,-2.5351,-2.537,-2.5322,-2.5303,-2.5303,-2.5357,-2.5312,-2.5182,-2.5245,-2.5196,-2.5046,-2.4709,-2.4454,-2.419,-2.365,-2.2503,-2.1133,-2.0367,-1.9056,-1.7664,-1.763,-1.6818,-1.5819,-1.5991,-1.5138,-1.4125,-1.3893,-1.349,-1.288,-1.1938,-1.1314,-1.0637,-0.9658,-0.8908,-0.8402,-0.8243,-0.8349,-0.8302,-0.7889,-0.8096,-0.8249,-0.7966,-0.7806,-0.7646,-0.7278,-0.6519,-0.5923,-0.5701,-0.4889,-0.4239,-0.4138,-0.3744,-0.3186,-0.2464,-0.2521,-0.213,-0.1122,-0.1023,-0.0809,-0.0294,0.0751,0.1703,0.2516,0.3137,0.353,0.3633,0.4122,0.465,0.5102,0.4868,0.5109,-2.5464,0.0,0.0,0.0,0.0,0.0,0.0,0.0,0.0,0.0,0.0,0.0,0.0,0.0,0.0,0.0,0.0,0.0,0.0,0.0,0.0,0.0,0.0,0.0,0.0,0.0,0.0,-2.5607,-2.5551,-2.5524,-2.551,-2.5495,-2.5507,-2.5499,-2.5492,-2.5484,-2.5437,-2.5429,-2.5421,-2.5423,-2.5406,-2.5443,-2.5511,-2.5456,-2.5401,-2.5348,-2.5459,-2.5387,-2.5224,-2.5307,-2.5343,-2.5283,-2.5129,-2.4973,-2.4759,-2.4053,-2.2238,-2.0045,-1.9359,-1.7316,-1.5069,-1.531,-1.4752,-1.4045,-1.436,-1.3693,-1.2819,-1.2686,-1.2308,-1.1665,-1.0671,-1.0179,-0.974,-0.8659,-0.8037,-0.767,-0.7551,-0.7498,-0.7396,-0.6923,-0.7182,-0.7278,-0.6519,-0.6891,-0.7106,-0.646,-0.5919,-0.5483,-0.521,-0.4563,-0.4076,-0.3922,-0.3635,-0.3244,-0.2523,-0.2581,-0.2076,-0.0729,-0.0504,-0.0113,0.0522,0.1473,0.2291,0.2905,0.3471,0.3916,0.4242,0.4732,0.5332,0.5991,0.5773,0.6041,0.0,0.0,0.0,-2.519,0.0,0.0,0.0,0.0,-2.6235,0.0,0.0,0.0,0.0,0.0,0.0,0.0,0.0,0.0,0.0,0.0,0.0,0.0,0.0,0.0,0.0,0.0,0.0,-2.5604,-2.5599,-2.5562,-2.5499,-2.5495,-2.5499,-2.5495,-2.5499,-2.5499,-2.5495,-2.5499,-2.5511,-2.5503,-2.5429,-2.5448,-2.5492,-2.5492,-2.5505,-2.5492,-2.5492,-2.5492,-2.5495,-2.5499,-2.5523,-2.5581,-2.5503,-2.5489,-2.5415,-2.4928,-2.3052,-2.0694,-2.0159,-1.7563,-1.4462,-1.3998,-1.3222,-1.2388,-1.1886,-1.1474,-1.1072,-1.0612,-1.0855,-1.115,-1.0702,-1.06,-1.0344,-0.9413,-0.8712,-0.8125,-0.7622,-0.7025,-0.6642,-0.6588,-0.6642,-0.6367,-0.5496,-0.5982,-0.6411,-0.6239,-0.5487,-0.4952,-0.4897,-0.3904,-0.313,-0.313,-0.2629,-0.2128,-0.1853,-0.1853,-0.1347,-0.0112,0.0503,0.0838,0.0896,0.1283,0.195,0.2905,0.3755,0.4421,0.4901,0.55,0.6046,0.6588,0.6588,0.7182,0.0,0.0,-2.5465,-2.5271,0.0,0.0,0.0,0.0,0.0,0.0,0.0,0.0,0.0,0.0,0.0,0.0,0.0,0.0,0.0,0.0,0.0,0.0,0.0,0.0,0.0,0.0,0.0,-2.5655,-2.5634,-2.5593,0.0,-2.5524,-2.5488,-2.5495,-2.5499,-2.5499,-2.5495,-2.5499,-2.5503,-2.5505,-2.548,-2.5505,-2.5562,-2.5529,-2.5511,-2.557,-2.5574,-2.5547,-2.55,-2.5548,-2.5544,-2.5537,-2.5506,-2.5508,-2.5466,-2.511,-2.3324,-2.0788,-1.8883,-1.6337,-1.3918,-1.406,-1.2341,-1.0226,-1.0706,-1.0066,-0.9186,-0.9422,-0.9325,-0.9013,-0.8448,-0.8119,-0.7788,-0.723,-0.6686,-0.6303,-0.6268,-0.6268,-0.6263,-0.5996,-0.6159,-0.6046,-0.5171,-0.4889,-0.4663,-0.4216,-0.3564,-0.3125,-0.3125,-0.3016,-0.2738,-0.2124,-0.2685,-0.2689,-0.1572,-0.0785,0.0056,0.0952,0.1174,0.1453,0.173,0.2284,0.3005,0.3892,0.4512,0.512,0.5773,0.6258,0.6897,0.7581,0.8013,0.8296,-2.5556,-2.5552,0.0,-2.5374,-2.5367,0.0,-2.5274,0.0,0.0,0.0,0.0,0.0,0.0,0.0,0.0,0.0,0.0,0.0,0.0,-2.5233,0.0,0.0,0.0,0.0,0.0,0.0,-2.5636,-2.5668,-2.5619,-2.5585,0.0,0.0,-2.5488,-2.549,-2.5507,-2.5507,-2.5536,-2.5515,-2.5517,-2.5549,-2.5504,-2.5549,-2.5604,-2.5561,-2.5556,-2.5571,-2.5586,-2.5559,-2.5517,-2.5564,-2.5566,-2.5545,-2.5559,-2.5553,-2.5512,-2.5344,-2.3597,-2.0926,-1.8252,-1.6281,-1.5011,-1.527,-1.3658,-1.1572,-1.1207,-1.0398,-0.9445,-0.8954,-0.8666,-0.8349,-0.7824,-0.7545,-0.7267,-0.675,-0.6209,-0.5823,-0.5778,-0.5778,-0.5668,-0.5289,-0.5395,-0.5332,-0.4563,-0.407,-0.3624,-0.3178,-0.2571,-0.2184,-0.2184,-0.2293,-0.2124,-0.151,-0.2066,-0.1953,-0.0615,0.0615,0.1621,0.2289,0.2625,0.279,0.2841,0.3395,0.4116,0.4886,0.5218,0.5764,0.6637,0.7171,0.7753,0.8488,0.928,0.9555]},{"header":{"parameterUnit":"m.s-1","parameterCategory":1,"la1":30.6,"la2":29.2853,"lo1":-89.7004,"lo2":-87.6739,"dy":0.0162,"dx":0.0183,"nx":112,"ny":82,"refTime":"2023-10-06T12:00:00:Z","depth":0,"parameterNumber":3,"parameterNumberName":"V-component_of_WINDS"},"data":[0.0,0.0,0.0,0.0,0.0,0.0,0.0,0.0,0.0,0.0,0.0,0.0,0.0,0.0,0.0,0.0,0.0,0.0,0.0,0.0,0.0,0.0,0.0,0.0,0.0,0.0,0.0,0.0,0.0,0.0,0.0,0.0,0.0,0.0,0.0,0.0,0.0,0.0,0.0,0.0,0.0,0.0,0.0,0.0,0.0,0.0,0.0,0.0,0.0,0.0,0.0,0.0,0.0,0.0,0.0,0.0,0.0,0.0,0.0,0.0,0.0,0.0,0.0,0.0,0.0,0.0,0.0,0.0,0.0,0.0,0.0,0.0,0.0,0.0,0.0,0.0,0.0,0.0,0.0,0.0,0.0,0.0,0.0,0.0,0.0,0.0,0.0,0.0,0.0,0.0,0.0,-2.7079,-2.8664,-2.9761,-2.9737,-3.0337,-2.9797,-2.7849,0.0,0.0,0.0,0.0,0.0,0.0,0.0,0.0,0.0,0.0,0.0,0.0,0.0,0.0,0.0,0.0,0.0,0.0,0.0,0.0,0.0,0.0,0.0,0.0,0.0,0.0,0.0,0.0,0.0,0.0,0.0,0.0,0.0,0.0,0.0,0.0,0.0,0.0,0.0,0.0,0.0,0.0,0.0,0.0,0.0,0.0,0.0,0.0,0.0,0.0,0.0,0.0,0.0,0.0,0.0,0.0,0.0,0.0,0.0,0.0,0.0,0.0,0.0,0.0,0.0,0.0,0.0,0.0,0.0,0.0,0.0,0.0,0.0,0.0,0.0,0.0,0.0,0.0,0.0,0.0,0.0,0.0,0.0,0.0,0.0,0.0,0.0,0.0,0.0,0.0,0.0,0.0,0.0,0.0,0.0,0.0,0.0,0.0,0.0,0.0,0.0,0.0,0.0,0.0,-2.7536,-2.8718,-2.915,-2.9522,-2.9966,-2.9749,-2.9015,-2.7801,0.0,0.0,0.0,0.0,0.0,0.0,0.0,0.0,0.0,0.0,0.0,0.0,0.0,0.0,0.0,0.0,0.0,0.0,0.0,0.0,0.0,0.0,0.0,0.0,0.0,0.0,0.0,0.0,0.0,0.0,0.0,0.0,0.0,0.0,0.0,0.0,0.0,0.0,0.0,0.0,0.0,0.0,0.0,0.0,0.0,0.0,0.0,0.0,0.0,0.0,0.0,0.0,0.0,0.0,0.0,0.0,0.0,0.0,0.0,0.0,0.0,0.0,0.0,0.0,0.0,0.0,0.0,0.0,0.0,0.0,0.0,0.0,0.0,0.0,0.0,0.0,0.0,0.0,0.0,0.0,0.0,0.0,0.0,0.0,0.0,0.0,0.0,0.0,0.0,0.0,0.0,0.0,0.0,0.0,0.0,0.0,0.0,0.0,0.0,0.0,0.0,0.0,0.0,-2.6803,-2.7428,-2.8739,-2.9124,-2.928,-2.9232,-2.9268,-2.8715,-2.7521,-2.7651,0.0,0.0,0.0,0.0,0.0,0.0,0.0,0.0,0.0,0.0,0.0,0.0,0.0,0.0,0.0,0.0,0.0,0.0,0.0,0.0,0.0,0.0,0.0,0.0,0.0,0.0,0.0,0.0,0.0,0.0,0.0,0.0,0.0,0.0,0.0,0.0,0.0,0.0,0.0,0.0,0.0,0.0,0.0,0.0,0.0,0.0,0.0,0.0,0.0,0.0,0.0,0.0,0.0,0.0,0.0,0.0,0.0,0.0,0.0,0.0,0.0,0.0,0.0,0.0,0.0,0.0,0.0,0.0,0.0,0.0,0.0,0.0,0.0,0.0,0.0,0.0,0.0,0.0,0.0,0.0,0.0,0.0,0.0,0.0,0.0,0.0,0.0,0.0,0.0,0.0,0.0,0.0,0.0,0.0,0.0,0.0,0.0,0.0,0.0,0.0,0.0,0.0,-2.7103,-2.7332,-2.8402,-2.8871,-2.8955,-2.8546,-2.8763,-2.8433,-2.7284,-2.7127,0.0,0.0,0.0,0.0,0.0,0.0,0.0,0.0,0.0,0.0,0.0,0.0,0.0,0.0,0.0,0.0,0.0,0.0,0.0,0.0,0.0,0.0,0.0,0.0,0.0,0.0,0.0,0.0,0.0,0.0,0.0,0.0,0.0,0.0,0.0,0.0,0.0,0.0,0.0,0.0,0.0,0.0,0.0,0.0,0.0,0.0,0.0,0.0,0.0,0.0,0.0,0.0,0.0,0.0,0.0,0.0,0.0,0.0,0.0,0.0,0.0,0.0,0.0,0.0,0.0,0.0,0.0,0.0,0.0,0.0,0.0,0.0,0.0,0.0,0.0,0.0,0.0,0.0,0.0,0.0,0.0,0.0,0.0,0.0,0.0,0.0,0.0,0.0,0.0,0.0,0.0,0.0,0.0,0.0,0.0,0.0,0.0,0.0,0.0,0.0,0.0,0.0,-2.6635,-2.7332,-2.8402,-2.8546,-2.8546,-2.851,-2.8089,-2.7649,-2.7247,-2.6274,0.0,0.0,0.0,0.0,0.0,0.0,0.0,0.0,0.0,0.0,0.0,0.0,0.0,0.0,0.0,0.0,0.0,0.0,0.0,0.0,0.0,0.0,0.0,0.0,0.0,0.0,0.0,0.0,0.0,0.0,0.0,0.0,0.0,0.0,0.0,0.0,0.0,0.0,0.0,0.0,0.0,0.0,0.0,0.0,0.0,0.0,0.0,0.0,0.0,0.0,0.0,0.0,0.0,0.0,0.0,0.0,0.0,0.0,0.0,0.0,0.0,0.0,0.0,0.0,0.0,0.0,0.0,0.0,0.0,0.0,0.0,0.0,0.0,0.0,0.0,0.0,0.0,0.0,0.0,0.0,0.0,0.0,0.0,0.0,0.0,0.0,0.0,0.0,0.0,0.0,0.0,0.0,0.0,0.0,0.0,0.0,0.0,0.0,0.0,0.0,0.0,0.0,-2.6875,-2.7705,0.0,-2.851,-2.851,-2.851,-2.8096,-2.756,-2.692,0.0,0.0,0.0,0.0,0.0,0.0,0.0,0.0,0.0,0.0,0.0,0.0,0.0,0.0,0.0,0.0,0.0,0.0,0.0,0.0,0.0,0.0,0.0,0.0,0.0,0.0,0.0,0.0,0.0,0.0,0.0,0.0,0.0,0.0,0.0,0.0,0.0,0.0,0.0,0.0,0.0,0.0,0.0,0.0,0.0,0.0,0.0,0.0,0.0,0.0,0.0,0.0,0.0,0.0,0.0,0.0,0.0,0.0,0.0,0.0,0.0,0.0,0.0,0.0,0.0,0.0,0.0,0.0,0.0,0.0,0.0,0.0,0.0,0.0,0.0,0.0,0.0,0.0,0.0,0.0,0.0,0.0,0.0,0.0,0.0,0.0,0.0,0.0,0.0,0.0,0.0,0.0,0.0,0.0,0.0,0.0,0.0,0.0,0.0,0.0,0.0,0.0,-2.5757,-2.6647,-2.7476,0.0,-2.818,-2.8071,-2.8161,-2.7819,-2.7262,-2.6584,0.0,0.0,0.0,0.0,0.0,0.0,0.0,0.0,0.0,0.0,0.0,0.0,0.0,0.0,0.0,0.0,0.0,0.0,0.0,0.0,0.0,0.0,0.0,0.0,0.0,0.0,0.0,0.0,0.0,0.0,0.0,0.0,0.0,0.0,0.0,0.0,0.0,0.0,0.0,0.0,0.0,0.0,0.0,0.0,0.0,0.0,0.0,0.0,0.0,0.0,0.0,0.0,0.0,0.0,0.0,0.0,0.0,0.0,0.0,0.0,0.0,0.0,0.0,0.0,0.0,0.0,0.0,0.0,0.0,0.0,0.0,0.0,0.0,0.0,0.0,0.0,0.0,0.0,0.0,0.0,0.0,0.0,0.0,0.0,0.0,0.0,0.0,0.0,0.0,0.0,0.0,0.0,0.0,0.0,0.0,0.0,0.0,0.0,0.0,0.0,0.0,0.0,-2.518,-2.5781,-2.6588,-2.7879,-2.7527,-2.7273,-2.752,-2.7016,-2.6535,0.0,0.0,0.0,0.0,0.0,0.0,0.0,0.0,0.0,0.0,0.0,0.0,0.0,0.0,0.0,0.0,0.0,0.0,0.0,0.0,0.0,0.0,0.0,0.0,0.0,0.0,0.0,0.0,0.0,0.0,0.0,0.0,0.0,0.0,0.0,0.0,0.0,0.0,0.0,0.0,0.0,0.0,0.0,0.0,0.0,0.0,0.0,0.0,0.0,0.0,0.0,0.0,0.0,0.0,0.0,0.0,0.0,0.0,0.0,0.0,0.0,0.0,0.0,0.0,0.0,0.0,0.0,0.0,0.0,0.0,0.0,0.0,0.0,0.0,0.0,0.0,0.0,0.0,0.0,0.0,0.0,0.0,0.0,0.0,0.0,0.0,0.0,0.0,0.0,0.0,0.0,0.0,0.0,0.0,0.0,0.0,0.0,0.0,0.0,0.0,0.0,0.0,0.0,-2.5216,-2.6251,-2.7148,-2.7928,-2.7677,-2.7446,-2.752,-2.7135,-2.6676,-2.6184,0.0,0.0,0.0,0.0,0.0,0.0,0.0,0.0,0.0,0.0,0.0,0.0,0.0,0.0,0.0,0.0,0.0,0.0,0.0,0.0,0.0,0.0,0.0,0.0,0.0,0.0,0.0,0.0,0.0,0.0,0.0,0.0,0.0,0.0,0.0,0.0,0.0,0.0,0.0,0.0,0.0,0.0,0.0,0.0,0.0,0.0,0.0,0.0,0.0,0.0,0.0,0.0,0.0,0.0,0.0,0.0,0.0,0.0,0.0,0.0,0.0,0.0,0.0,0.0,0.0,0.0,0.0,0.0,0.0,0.0,0.0,0.0,0.0,0.0,0.0,0.0,0.0,0.0,0.0,0.0,0.0,0.0,0.0,0.0,0.0,0.0,0.0,0.0,0.0,0.0,0.0,0.0,0.0,0.0,0.0,0.0,0.0,0.0,0.0,0.0,0.0,0.0,-2.5217,-2.6304,-2.7331,-2.7952,-2.7601,-2.749,-2.7889,-2.7715,-2.7236,-2.6435,0.0,0.0,0.0,0.0,0.0,0.0,0.0,0.0,0.0,0.0,0.0,0.0,0.0,0.0,0.0,0.0,0.0,0.0,0.0,0.0,0.0,0.0,0.0,0.0,0.0,0.0,0.0,0.0,0.0,0.0,0.0,0.0,0.0,0.0,0.0,0.0,0.0,0.0,0.0,0.0,0.0,0.0,0.0,0.0,0.0,0.0,0.0,0.0,0.0,0.0,0.0,0.0,0.0,0.0,0.0,0.0,0.0,0.0,0.0,0.0,0.0,0.0,0.0,0.0,0.0,0.0,0.0,0.0,0.0,0.0,0.0,0.0,0.0,0.0,0.0,0.0,0.0,0.0,0.0,0.0,0.0,0.0,0.0,0.0,0.0,0.0,0.0,0.0,0.0,0.0,0.0,0.0,0.0,0.0,0.0,0.0,0.0,0.0,0.0,0.0,0.0,0.0,-2.5282,-2.6333,-2.7288,-2.8006,-2.7634,-2.7657,-2.836,-2.8434,-2.7917,-2.6775,0.0,0.0,0.0,0.0,0.0,0.0,0.0,0.0,0.0,0.0,0.0,0.0,0.0,0.0,0.0,0.0,0.0,0.0,0.0,0.0,0.0,0.0,0.0,0.0,0.0,0.0,0.0,0.0,0.0,0.0,0.0,0.0,0.0,0.0,0.0,0.0,0.0,0.0,0.0,0.0,0.0,0.0,0.0,0.0,0.0,0.0,0.0,0.0,0.0,0.0,0.0,0.0,0.0,0.0,0.0,0.0,0.0,0.0,0.0,0.0,-1.328,0.0,0.0,0.0,0.0,0.0,0.0,0.0,0.0,0.0,0.0,0.0,0.0,0.0,0.0,0.0,0.0,0.0,0.0,0.0,0.0,0.0,0.0,0.0,0.0,0.0,0.0,0.0,0.0,0.0,0.0,0.0,0.0,0.0,0.0,0.0,0.0,0.0,0.0,0.0,0.0,0.0,-2.6504,-2.7353,-2.8133,-2.8718,-2.8464,-2.8123,-2.7818,-2.7809,-2.7468,-2.6759,-2.6762,0.0,0.0,0.0,0.0,0.0,0.0,0.0,0.0,0.0,0.0,0.0,0.0,0.0,0.0,0.0,0.0,0.0,0.0,0.0,0.0,0.0,0.0,0.0,0.0,0.0,0.0,0.0,0.0,0.0,0.0,0.0,0.0,0.0,0.0,0.0,0.0,0.0,0.0,0.0,0.0,0.0,0.0,0.0,0.0,0.0,0.0,0.0,0.0,0.0,0.0,0.0,0.0,0.0,0.0,0.0,0.0,0.0,0.0,0.0,0.0,-1.3933,0.0,0.0,0.0,0.0,0.0,0.0,0.0,0.0,0.0,0.0,0.0,0.0,0.0,0.0,0.0,0.0,0.0,0.0,0.0,0.0,0.0,0.0,0.0,0.0,0.0,0.0,0.0,0.0,0.0,0.0,0.0,0.0,0.0,0.0,0.0,0.0,0.0,0.0,0.0,0.0,-2.6301,-2.701,-2.7818,-2.8734,-2.8381,-2.8083,-2.8106,-2.8137,-2.7855,-2.7242,-2.7295,0.0,0.0,0.0,0.0,0.0,0.0,0.0,0.0,0.0,0.0,0.0,0.0,0.0,0.0,0.0,0.0,0.0,0.0,0.0,0.0,0.0,0.0,0.0,0.0,0.0,0.0,0.0,0.0,0.0,0.0,0.0,0.0,0.0,0.0,0.0,0.0,0.0,0.0,0.0,0.0,0.0,0.0,0.0,0.0,0.0,0.0,0.0,0.0,0.0,0.0,0.0,0.0,0.0,-1.5838,-1.5879,-1.5772,-1.6713,-1.7128,-1.7224,-1.5665,-1.5878,-1.7048,0.0,0.0,0.0,0.0,0.0,0.0,0.0,0.0,0.0,0.0,0.0,0.0,0.0,0.0,0.0,0.0,0.0,0.0,0.0,0.0,0.0,0.0,0.0,0.0,0.0,-2.4424,-2.4738,0.0,0.0,0.0,0.0,0.0,0.0,0.0,0.0,0.0,0.0,0.0,0.0,-2.6041,-2.6553,-2.7354,-2.8482,-2.8119,-2.8011,-2.8465,-2.8521,-2.8245,-2.7607,-2.7657,-2.7477,0.0,0.0,0.0,0.0,0.0,0.0,0.0,0.0,0.0,0.0,0.0,0.0,0.0,0.0,0.0,0.0,0.0,0.0,0.0,0.0,0.0,0.0,0.0,0.0,0.0,0.0,0.0,0.0,0.0,0.0,0.0,0.0,-0.7461,-0.7686,0.0,0.0,0.0,0.0,0.0,0.0,0.0,0.0,0.0,0.0,0.0,0.0,0.0,-1.4649,-1.5277,-1.6079,-1.6493,-1.6547,-1.7589,-1.7809,-1.7398,-1.8366,-1.8662,-1.8342,-1.8761,0.0,-1.8217,-1.8475,0.0,0.0,0.0,0.0,0.0,0.0,0.0,0.0,0.0,0.0,0.0,0.0,0.0,0.0,0.0,0.0,0.0,0.0,0.0,0.0,0.0,0.0,-2.4017,-2.3954,-2.4042,-2.3954,0.0,-2.3653,-2.4067,-2.3916,-2.3602,0.0,0.0,0.0,0.0,0.0,0.0,0.0,-2.7257,-2.7569,-2.7923,-2.8612,-2.8611,-2.8336,-2.7842,-2.7853,-2.7578,-2.6953,-2.6963,-2.6972,-2.7018,-2.7003,0.0,0.0,0.0,0.0,0.0,0.0,0.0,0.0,0.0,0.0,0.0,0.0,0.0,0.0,0.0,0.0,0.0,0.0,0.0,0.0,0.0,0.0,0.0,0.0,0.0,0.0,0.0,0.0,0.0,-0.7383,-0.7535,-0.7573,-0.8693,-0.9473,0.0,0.0,0.0,0.0,0.0,0.0,0.0,0.0,0.0,-1.4816,-1.5424,-1.6032,-1.662,-1.7181,-1.7462,-1.7468,-1.7989,-1.8009,-1.7687,-1.893,-1.9698,-2.0092,-2.1198,-2.1722,-2.1798,-2.0219,-1.9714,-2.0029,0.0,0.0,0.0,0.0,-1.9639,-1.9678,-1.9922,-2.001,0.0,0.0,0.0,0.0,0.0,0.0,0.0,0.0,0.0,0.0,0.0,0.0,0.0,-2.4079,-2.4456,-2.4745,-2.4205,-2.4042,-2.3904,0.0,-2.3828,-2.3879,-2.3178,0.0,0.0,0.0,0.0,0.0,-2.6961,-2.6905,-2.7116,-2.8045,-2.7824,-2.7505,-2.7215,-2.72,-2.7137,-2.6913,-2.6989,-2.7093,-2.7196,-2.7196,-2.7248,0.0,0.0,0.0,0.0,0.0,0.0,0.0,0.0,0.0,0.0,0.0,0.0,0.0,0.0,0.0,0.0,0.0,0.0,0.0,0.0,0.0,0.0,0.0,0.0,0.0,0.0,0.0,0.0,-0.7521,-0.7706,-0.7648,-0.9255,-1.0336,0.0,0.0,0.0,0.0,0.0,0.0,-1.4208,-1.5013,-1.5725,-1.5952,-1.6667,-1.7328,-1.7923,-1.8083,-1.8196,-1.827,-1.8196,-1.8036,-1.7916,-1.9515,-2.0514,-2.1216,-2.2735,-2.372,-2.4102,-2.1761,-2.1128,-2.1631,-2.0762,-2.042,-2.041,-2.0293,-2.0254,-2.0283,-2.0488,-2.0566,-2.0508,-2.0185,0.0,-1.9397,-1.9737,0.0,0.0,0.0,0.0,-2.2211,-2.3131,-2.3754,-2.4204,-2.4067,-2.4607,-2.5034,-2.4506,-2.418,-2.3866,0.0,-2.3916,-2.413,-2.3215,0.0,0.0,0.0,0.0,-2.4956,-2.6595,-2.627,-2.6295,-2.7378,-2.707,-2.6779,-2.6779,-2.6779,-2.6846,-2.7003,-2.7093,-2.7233,-2.7401,-2.7238,-2.7274,-2.7524,0.0,0.0,0.0,0.0,0.0,0.0,0.0,0.0,0.0,0.0,0.0,0.0,0.0,0.0,0.0,0.0,0.0,0.0,0.0,0.0,0.0,0.0,0.0,0.0,0.0,0.0,0.0,0.0,0.0,-0.7936,-0.9935,0.0,0.0,0.0,0.0,-1.4041,-1.4401,-1.4969,-1.5691,-1.5853,-1.6414,-1.7448,-1.7802,-1.8263,-1.8851,-1.8597,-1.8604,-1.8878,-1.8597,-1.8464,-1.8541,-2.0681,-2.1296,-2.0917,-2.3079,-2.3621,-2.3145,-2.3028,-2.2969,-2.2959,-2.2119,-2.1787,-2.1738,-2.1318,-2.1162,-2.1113,-2.0703,-2.0566,-2.0634,-2.0537,-1.9971,-1.9637,-2.1568,-2.1417,0.0,0.0,-2.2957,-2.3203,-2.3803,-2.359,-2.329,-2.3879,-2.4042,-2.3916,-2.3339,-2.3627,-2.3991,0.0,-2.3552,-2.314,-2.3078,0.0,-2.4234,-2.4851,-2.4951,-2.5425,-2.665,-2.6247,-2.6125,-2.677,-2.6808,-2.6779,-2.6779,-2.6779,-2.6846,-2.7003,-2.7003,-2.7159,-2.7401,-2.6807,-2.6763,-2.7386,-2.6221,0.0,0.0,0.0,0.0,0.0,0.0,0.0,0.0,0.0,0.0,0.0,0.0,0.0,0.0,0.0,0.0,0.0,0.0,0.0,0.0,0.0,0.0,0.0,0.0,0.0,0.0,0.0,0.0,-0.9083,-0.985,0.0,-1.1925,-1.3016,-1.4022,-1.4847,-1.5825,-1.646,-1.6667,-1.7403,-1.7928,-1.8163,-1.8637,-1.8998,-1.9205,-1.8918,-1.8731,-1.8644,-1.8343,-1.8421,-1.8943,-1.9849,-2.0869,-2.2088,-2.2871,-2.3483,-2.3945,-2.3672,-2.3555,-2.3477,-2.2617,-2.2451,-2.2568,-2.1592,-2.1416,-2.1543,-2.082,-2.0752,-2.0977,-2.1065,-2.0969,-2.0994,-2.223,-2.2321,-2.2199,-2.2823,-2.3078,-2.3128,-2.3389,-2.3288,-2.3128,-2.3389,-2.3439,-2.3389,-2.3175,-2.3301,-2.3439,-2.3439,-2.3276,-2.3078,-2.3078,-2.3662,-2.4292,-2.4894,-2.5314,-2.5879,-2.6674,-2.6621,-2.6568,-2.6779,-2.6899,-2.6951,-2.6951,-2.6989,-2.6902,-2.6657,-2.6627,-2.6485,-2.6236,-2.5998,-2.5983,-2.6221,-2.5388,-2.5045,0.0,0.0,0.0,0.0,0.0,0.0,0.0,0.0,0.0,0.0,0.0,0.0,0.0,0.0,0.0,0.0,0.0,0.0,0.0,0.0,0.0,0.0,0.0,0.0,0.0,0.0,-0.8682,-0.9827,-1.0082,-1.0952,-1.3067,-1.3515,-1.435,-1.5842,-1.6759,-1.733,-1.7729,-1.8404,-1.8738,-1.8637,-1.9011,-1.9172,-1.9072,-1.8778,-1.8531,-1.8337,-1.8036,-1.8245,-1.906,-1.9636,-2.0794,-2.2318,-2.2907,-2.3461,-2.3965,-2.3682,-2.3662,-2.3721,-2.3008,-2.2891,-2.2998,-2.1875,-2.1641,-2.1777,-2.1045,-2.0801,-2.0957,-2.1381,-2.1349,-2.1336,-2.2355,-2.2621,-2.2653,-2.3017,-2.3078,-2.3027,-2.2912,-2.2862,-2.2862,-2.2862,-2.2862,-2.2912,-2.3027,-2.3078,-2.3078,-2.3078,-2.3078,-2.3198,-2.3424,-2.3943,-2.4624,-2.5189,-2.5825,-2.634,-2.6727,-2.6779,-2.6832,-2.6846,-2.6951,-2.6916,-2.6748,-2.6806,-2.6627,-2.6124,-2.6079,-2.5935,-2.563,-2.539,-2.539,-2.5615,-2.4956,-2.4462,-2.4283,0.0,0.0,0.0,0.0,0.0,0.0,0.0,0.0,0.0,0.0,0.0,0.0,0.0,0.0,0.0,0.0,0.0,0.0,0.0,0.0,0.0,0.0,0.0,-0.7513,-0.8099,-0.8995,-1.0053,-1.0884,-1.1977,-1.3796,-1.4475,-1.5435,-1.6955,-1.7179,-1.7666,-1.8865,-1.8644,-1.8617,-1.8905,-1.8911,-1.8778,-1.8497,-1.8196,-1.8043,-1.8029,-1.7716,-1.7929,-1.8644,-2.019,-2.1088,-2.1472,-2.3119,-2.3525,-2.3135,-2.3135,-2.3389,-2.3721,-2.3291,-2.3125,-2.3037,-2.2178,-2.1855,-2.1787,-2.1348,-2.08,-2.0452,-2.158,-2.1227,-2.0571,-2.2108,-2.2282,-2.2125,-2.2859,-2.3053,-2.2975,-2.2422,-2.2284,-2.2284,-2.2284,-2.2284,-2.2435,-2.2915,-2.3075,-2.3088,-2.3088,-2.3088,-2.3327,-2.4002,-2.4624,-2.5189,-2.5825,-2.6394,0.0,-2.6779,-2.6832,-2.6832,-2.7003,-2.7003,-2.6792,-2.6297,-2.6223,-2.5977,-2.5441,-2.5381,-2.5414,-2.554,-2.4881,-2.4851,-2.554,-2.4881,-2.4268,-2.3595,0.0,0.0,0.0,0.0,0.0,0.0,0.0,0.0,0.0,0.0,0.0,0.0,0.0,0.0,0.0,0.0,0.0,0.0,0.0,0.0,0.0,0.0,-0.7425,-0.7676,-0.8266,-0.9131,-1.0505,-1.0895,-1.1973,-1.4112,-1.4724,-1.5412,-1.6749,-1.7255,-1.7681,-1.8243,-1.8419,-1.8524,-1.8604,-1.8611,-1.8571,-1.849,-1.8196,-1.7929,-1.7709,-1.7408,-1.7721,-1.85,-1.9685,-2.0703,-2.1639,-2.2815,-2.3252,-2.3135,-2.3135,-2.3213,-2.3271,-2.2852,-2.2881,-2.3018,-2.1846,-2.1301,-2.1204,-2.1166,-2.1131,-2.1324,-2.2517,-2.2411,-2.2108,-2.325,-2.3195,-2.2737,-2.2589,-2.2535,-2.241,-2.1857,-2.1707,-2.1707,-2.1707,-2.1707,-2.1757,-2.1907,-2.199,-2.2091,-2.2091,-2.2416,-2.3011,-2.3916,-2.4624,-2.5245,-2.592,-2.6539,0.0,-2.7093,-2.7078,-2.7078,-2.713,-2.7248,-2.7225,-2.7083,-2.6723,-2.6221,-2.5597,-2.5105,-2.4627,-2.4178,-2.3984,-2.3969,-2.4148,-2.3969,-2.3789,0.0,0.0,0.0,0.0,0.0,0.0,0.0,0.0,0.0,0.0,0.0,0.0,0.0,0.0,0.0,0.0,0.0,0.0,0.0,0.0,0.0,0.0,-0.7225,-0.7545,-0.7859,-0.8245,-0.8991,-1.0478,-1.0843,-1.1908,-1.4211,-1.4642,-1.5367,-1.6767,-1.7029,-1.738,-1.8007,-1.8143,-1.8194,-1.8303,-1.8303,-1.8183,-1.7936,-1.7756,-1.7515,-1.7215,-1.7048,-1.7403,-1.8177,-1.9288,-2.0332,0.0,-2.2527,-2.3057,-2.3135,-2.3135,-2.3037,0.0,0.0,0.0,0.0,0.0,-2.1046,-2.0944,-2.1381,-2.1471,-2.1603,-2.2821,-2.2847,-2.2507,-2.3368,-2.3401,-2.3015,-2.2749,-2.2485,-2.2184,-2.1631,-2.1317,-2.1142,-2.1142,-2.1142,-2.1259,-2.1542,-2.1801,-2.2008,-2.2063,-2.2524,0.0,-2.4014,-2.4682,-2.535,-2.6055,-2.6695,-2.7093,-2.7181,-2.7181,-2.7233,-2.7284,-2.735,-2.7333,-2.7101,-2.6508,0.0,0.0,0.0,-2.4029,-2.361,-2.3595,0.0,0.0,0.0,-2.3595,-2.3595,0.0,0.0,0.0,-2.4014,-2.4043,0.0,0.0,0.0,0.0,0.0,0.0,0.0,0.0,0.0,0.0,0.0,0.0,0.0,0.0,0.0,0.0,-0.7594,-0.7907,-0.8001,-0.8174,-0.8799,-1.0194,-1.0835,-1.1926,-1.4177,-1.4509,-1.5248,-1.6913,-1.6596,-1.675,-1.7903,0.0,0.0,0.0,0.0,-1.7689,-1.7154,-1.7114,-1.6947,-1.6653,-1.6653,-1.6993,-1.7757,-1.8965,-2.0088,-2.1042,-2.2246,-2.2862,-2.3066,-2.3066,-2.2793,-2.2363,-2.2363,-2.2344,-2.2197,-2.1445,-2.1076,-2.1041,-2.1717,0.0,0.0,-2.2736,-2.2731,-2.2298,-2.2944,-2.3027,-2.2977,-2.2977,-2.2598,-2.202,-2.1518,-2.0991,-2.0618,-2.0618,-2.0618,-2.0756,-2.1399,-2.1869,-2.2273,-2.2432,-2.2943,-2.3492,-2.4056,-2.4704,-2.5422,-2.6094,-2.676,-2.7144,-2.7218,-2.7233,-2.7284,-2.7401,0.0,0.0,-2.6752,-2.6093,-2.5435,-2.4777,-2.4029,-2.3595,-2.3595,-2.3595,-2.3595,-2.3595,-2.3595,-2.3595,-2.3595,-2.3595,-2.3595,-2.3595,-2.3684,-2.3988,0.0,0.0,0.0,0.0,0.0,0.0,0.0,0.0,0.0,0.0,0.0,0.0,0.0,0.0,0.0,-0.7125,-0.7475,-0.7831,-0.8014,-0.8174,-0.8529,-0.917,-1.1021,-1.244,-1.2937,-1.474,-1.6011,-1.6162,-1.6273,-1.6474,-1.7002,-1.7177,0.0,-1.7675,-1.7442,-1.7268,-1.7148,-1.6914,-1.6647,-1.6359,0.0,0.0,-1.7421,-1.8698,-1.9837,-2.1042,-2.2246,-2.2698,-2.2637,-2.2637,-2.2178,-2.1484,-2.1484,-2.126,-2.0918,-2.0762,-2.0888,-2.1171,-2.1704,-2.2076,-2.2343,-2.2892,-2.2984,-2.2944,-2.3078,-2.2824,0.0,-2.2472,-2.1757,-2.0966,-2.0853,-2.0401,-1.9962,-1.9962,-1.9962,-2.0051,-2.0281,-2.0848,-2.1326,-2.1425,-2.2289,-2.3008,-2.3161,-2.3908,-2.4905,-2.6184,-2.6476,-2.6792,-2.7449,-2.7524,-2.7524,-2.7575,-2.7575,-2.753,-2.7395,-2.6782,-2.6123,-2.5465,-2.4268,-2.3595,-2.3595,-2.3595,-2.3595,-2.3595,-2.3595,-2.3595,-2.3595,-2.3595,-2.3595,-2.361,-2.4163,-2.4699,0.0,0.0,0.0,0.0,0.0,0.0,0.0,0.0,0.0,0.0,0.0,-0.4815,0.0,0.0,-0.7042,-0.7404,-0.7665,-0.7865,-0.8018,-0.8106,-0.8265,-0.857,-1.0864,-1.2412,-1.2408,-1.4592,-1.6042,-1.5897,-1.5998,-1.6211,-1.653,-1.6643,-1.6897,-1.7166,-1.7021,-1.6905,-1.6714,-1.656,-1.6346,-1.6052,-1.6525,-1.7013,-1.7326,-1.8964,-2.0141,-2.1042,-2.2148,-2.2678,-2.2793,-2.2373,-2.1816,-2.1211,-2.0986,-2.0762,-2.0566,-2.0566,-2.0661,-2.0818,-2.1615,-2.1958,-2.2099,-2.2887,-2.3078,-2.3027,-2.2811,-2.2535,-2.2246,-2.1983,-2.1305,-2.0718,-2.0718,-2.0303,-1.9926,-1.9926,-1.9965,-2.008,-2.0195,-2.0858,-2.1513,-2.1609,-2.2498,-2.3246,-2.3246,-2.364,-2.4285,-2.5322,-2.6087,-2.6673,-2.7036,-2.7415,-2.7625,-2.7625,-2.7625,-2.7625,-2.7625,-2.6662,-2.5809,-2.5151,-2.4163,-2.3759,-2.4103,-2.3789,-2.3759,-2.4103,-2.3774,-2.3595,-2.3595,-2.3595,-2.3595,-2.361,-2.4172,-2.4597,0.0,0.0,0.0,0.0,0.0,0.0,0.0,0.0,-0.2757,-0.3848,-0.4101,-0.4728,-0.6397,-0.6806,-0.7091,-0.759,-0.7721,-0.7791,-0.7885,-0.7898,-0.8141,-0.8466,-1.06,-1.2097,-1.214,-1.4328,-1.5734,-1.5734,-1.5734,-1.5846,-1.6163,-1.6163,-1.6377,-1.6568,-1.6606,-1.6553,-1.6279,-1.6213,-1.6066,-1.5832,-1.6574,-1.7232,-1.7699,-1.9247,-2.043,-2.132,-2.1989,-2.2505,-2.2705,-2.1943,-2.1416,-2.1064,-2.0703,-2.0508,-2.0449,-2.0537,-2.0436,-2.0441,-2.1528,-2.1733,-2.1701,-2.2739,-2.3078,-2.3025,-2.2472,-2.2309,-2.2196,-2.1644,-2.1091,-2.0718,-2.0718,-2.0355,-1.999,-1.999,-2.0093,-2.0233,-2.0549,-2.1299,-2.1988,-2.2221,-2.2995,-2.3595,-2.3595,-2.3595,-2.3834,-2.4477,-2.554,-2.6303,-2.6557,-2.7051,-2.7475,-2.761,-2.7625,-2.7625,-2.7625,-2.6482,-2.5525,-2.4821,-2.4178,-2.3984,-2.4418,-2.3894,-2.3864,-2.4373,-2.3879,-2.3595,-2.3595,-2.3595,-2.3653,-2.3739,-2.4036,-2.4322,0.0168,-0.0631,-0.1619,-0.2535,-0.2734,-0.2781,0.0,0.0,-0.2639,-0.4245,-0.4552,-0.5038,-0.6583,-0.6959,-0.7024,-0.7208,-0.7453,-0.7582,-0.7469,-0.7644,-0.8225,-0.9204,-1.0703,-1.172,-1.1808,-1.3821,-1.5197,-1.5197,-1.5197,-1.5293,-1.5586,-1.5796,-1.6094,-1.6371,-1.6315,-1.6339,-1.6273,-1.6012,-1.5865,-1.5832,-1.592,-1.6943,-1.8603,-1.888,-2.0158,-2.2217,-2.2005,-2.1724,-2.1406,-2.0918,-2.0684,-2.0635,-2.0586,-2.0332,-2.0029,-2.042,-2.0523,-2.0609,-2.1539,-2.1812,-2.1932,-2.2813,-2.3078,-2.3025,-2.2472,-2.2309,-2.2196,-2.1644,-2.1091,-2.0718,-2.0718,-2.0238,-1.9862,-1.9978,-1.999,-2.0233,-2.0944,-2.1513,-2.2081,-2.2694,-2.3246,-2.3595,-2.3595,-2.3595,-2.3834,-2.4477,-2.4701,-2.527,-2.6437,-2.6662,-2.6916,-2.7565,-2.7625,-2.7625,-2.7625,-2.6901,-2.6198,-2.554,-2.4881,-2.4268,-2.3729,-2.364,-2.364,-2.3714,-2.364,-2.3595,-2.3595,-2.3595,-2.3824,-2.4219,-2.3867,-2.4453,0.0,-0.0649,0.0,0.0,-0.2265,-0.2346,-0.2223,-0.2096,-0.2348,-0.3924,-0.4212,-0.4782,-0.6717,-0.6979,-0.6985,0.0,-0.7276,-0.7211,-0.723,-0.726,-0.7648,-0.8571,-0.9905,-1.121,-1.247,-1.4083,-1.5107,-1.5107,-1.5107,-1.504,-1.5083,-1.5171,-1.5226,-1.5101,-1.5261,-1.5308,-1.5318,-1.5292,-1.5324,-1.5324,-1.5853,-1.6838,-1.8184,-1.8806,-2.0035,-2.1684,-2.1864,-2.1641,-2.1221,-2.1035,-2.0801,-2.0566,-2.0566,-2.0536,-2.0485,-2.0575,-2.0412,-2.0307,-2.1472,-2.1888,-2.1985,-2.2837,-2.3078,-2.3025,-2.2472,-2.2309,-2.2133,-2.1255,-2.084,-2.0643,-2.0368,-2.0155,-2.008,-2.0246,-2.0347,-2.0498,-2.0835,-2.1479,-2.2081,-2.2374,-2.3054,-2.3595,-2.3595,-2.3595,-2.3699,-2.3984,-2.4328,-2.4776,-2.5375,-2.5779,-2.6273,-2.6931,-2.7006,-2.7156,-2.7595,-2.6976,-2.6467,-2.6198,-2.5555,-2.5076,-2.4777,-2.4403,-2.4193,-2.4193,-2.3804,-2.3595,-2.3595,-2.3595,-2.3681,-2.3909,-2.4346,-2.5095,0.0175,0.0,0.0,-0.1242,-0.1722,-0.2021,-0.1777,-0.1661,-0.2012,-0.3698,-0.3951,-0.4498,-0.6509,-0.6705,-0.6668,-0.701,-0.6856,-0.6768,-0.6917,-0.6813,-0.7161,-0.8083,-0.9228,-1.0691,-1.2528,-1.3849,-1.4666,-1.4666,-1.4666,-1.4582,-1.4395,-1.4485,-1.4398,-1.4192,-1.445,-1.4624,-1.4591,-1.4867,-1.4963,-1.5053,-1.5651,-1.661,-1.7755,-1.9127,-2.0123,-2.0841,-2.1351,-2.1211,-2.0693,-2.0693,-2.0508,-2.0215,-2.0215,-2.0223,-2.0295,-2.0338,-2.0272,-2.0408,-2.1426,-2.1889,-2.2063,-2.2884,-2.3025,-2.2811,-2.2246,-2.2083,-2.1845,-2.074,-2.0605,-2.0658,-2.0142,-2.008,-2.0233,-2.0461,-2.0562,-2.0749,-2.1019,-2.1623,-2.2175,-2.2452,-2.3098,-2.3595,-2.3595,-2.3595,-2.3595,-2.3595,-2.4029,-2.4418,-2.4567,-2.5211,-2.5794,-2.6273,-2.6318,-2.6512,-2.6991,-2.6587,-2.6243,-2.6063,-2.56,-2.5255,-2.5061,-2.4597,-2.4343,-2.4343,-2.3849,-2.3595,-2.3595,-2.3595,-2.3681,-2.3824,-2.4625,-2.5321,0.0934,0.0,-0.0717,-0.0758,-0.1237,-0.175,-0.1868,-0.1567,-0.1816,-0.363,-0.3742,-0.4135,-0.6071,-0.6147,-0.5941,-0.6077,-0.6394,-0.6511,-0.6305,-0.6445,-0.6933,-0.8053,-0.9,-1.0107,0.0,-1.2905,-1.3562,-1.3562,-1.3562,-1.3562,-1.355,-1.3738,-1.3919,-1.3901,-1.434,-1.4597,-1.4591,-1.4867,-1.4963,-1.4963,-1.5053,-1.6013,-1.7755,-2.0063,-2.0737,-1.9979,-2.0449,-2.0127,-1.9346,-1.9346,-1.9336,-1.9326,-1.9326,-1.9072,-1.875,-1.9407,-2.0247,-2.1183,-2.1442,-2.1783,-2.2237,-2.2871,-2.2774,-2.2234,-2.1681,-2.1506,-2.128,-2.015,-2.0355,-2.0777,-2.0142,-2.008,-2.0233,-2.0461,-2.0511,-2.0785,-2.1846,-2.2081,-2.2406,-2.3377,-2.3595,-2.3595,-2.3595,-2.3595,-2.3595,-2.3595,-2.3625,-2.3879,-2.4537,-2.5211,-2.5615,-2.563,-2.563,-2.5644,-2.5674,-2.5644,-2.536,-2.4686,-2.4627,-2.4358,-2.3684,-2.364,-2.3625,-2.3625,-2.361,-2.3595,-2.3595,-2.3595,-2.3809,-2.4261,-2.4317,-2.4751,0.1572,0.0,-0.0069,-0.0071,-0.0665,-0.1143,-0.1249,-0.1008,-0.1152,-0.2396,-0.2845,-0.3467,-0.4807,-0.5196,-0.5508,-0.5892,-0.5852,-0.586,-0.5979,-0.5984,-0.6593,-0.8186,-0.8844,0.0,0.0,0.0,0.0,-1.3513,-1.3513,-1.3441,-1.3266,-1.3343,-1.3264,-1.3076,-1.3591,-1.3758,-1.3758,-1.4203,-1.4382,-1.4382,-1.5553,-1.6596,-1.7529,-1.9222,-1.9648,-1.9108,-1.9568,-1.9551,-1.9287,-1.9287,-1.9287,-1.9287,-1.9287,-1.9095,-1.8844,-1.8844,-1.9334,-2.0031,-2.1151,-2.1551,-2.1705,-2.2337,-2.2221,-2.1732,-2.1543,-2.1493,-2.133,-2.0589,-2.0646,-2.0777,-2.0284,-2.0246,-2.0448,-2.0612,-2.0612,-2.0799,-2.1506,-2.186,-2.2314,-2.3009,-2.3377,-2.3595,-2.3595,-2.3595,-2.3595,-2.3595,-2.3595,-2.3684,-2.3924,-2.4133,-2.4448,-2.4911,-2.4956,-2.5136,-2.557,-2.5615,-2.551,-2.53,-2.527,-2.4971,-2.4313,-2.4283,-2.4118,-2.3754,-2.3739,-2.3782,-2.3882,-2.4147,-2.4338,-2.4533,-2.523,-2.5863,0.2243,0.1522,0.0916,0.0651,0.0075,-0.0461,-0.0696,-0.0689,-0.0828,-0.1698,-0.2274,-0.2854,-0.3889,-0.4452,-0.4908,-0.5308,-0.5366,-0.5416,-0.5652,-0.5588,-0.6207,-0.7846,-0.841,-0.937,0.0,0.0,0.0,-1.3046,-1.3135,-1.3063,-1.2982,-1.2976,-1.2892,-1.2711,-1.3137,-1.3398,-1.3398,-1.3828,-1.425,-1.4573,-1.6172,-1.7116,-1.7449,-1.8483,-1.8797,-1.8455,-1.8672,-1.8669,-1.8594,-1.8437,-1.8379,-1.8379,-1.8379,-1.8282,-1.82,-1.8055,-1.8382,-1.9003,-2.0374,-2.0927,-2.116,-2.1778,-2.1644,-2.1192,-2.1192,-2.1054,-2.0815,-2.0517,-2.0534,-2.0615,-2.0399,-2.0448,-2.0612,-2.0662,-2.0848,-2.1082,-2.1541,-2.2049,-2.2558,-2.3068,-2.3377,-2.3595,-2.3595,-2.3595,-2.3595,-2.3595,-2.3595,-2.3595,-2.3595,-2.3595,-2.3774,-2.4223,-2.4253,-2.4433,-2.4852,-2.4942,-2.4942,-2.4942,-2.4987,-2.4852,-2.4372,-2.4372,-2.4277,-2.4078,-2.4078,-2.4188,-2.4436,-2.4704,-2.4808,-2.4808,-2.5639,-2.616,0.3071,0.2554,0.2045,0.1445,0.098,0.0388,-0.038,-0.0528,-0.0816,-0.1622,-0.191,-0.2339,0.0,0.0,-0.426,-0.4269,-0.4794,-0.5189,-0.517,-0.5286,-0.5808,0.0,0.0,0.0,0.0,0.0,0.0,-1.2363,0.0,-1.2448,-1.2705,-1.2705,-1.2705,-1.2705,-1.3137,-1.3392,-1.3398,-1.3828,-1.458,-1.547,-1.6748,-1.7363,-1.7484,-1.8097,-1.8281,-1.7991,-1.7791,-1.7581,-1.7314,-1.6904,-1.6665,-1.6665,-1.6665,-1.6719,-1.6699,-1.7014,-1.7523,-1.8144,-1.9174,-2.0006,-2.0661,-2.1263,-2.1079,-2.0668,-2.0668,-2.0238,-1.9811,-1.9978,-2.008,-2.0233,-2.0461,-2.0612,-2.0699,-2.0699,-2.1033,-2.1554,-2.2002,-2.2512,-2.3024,-2.3508,-2.3595,-2.3595,-2.3595,-2.3595,-2.3595,-2.3595,-2.3595,-2.3595,-2.3595,-2.3595,-2.3595,-2.3595,-2.3595,-2.3595,-2.3595,-2.3739,-2.3797,-2.3797,-2.394,-2.3982,-2.3982,-2.4024,-2.4204,-2.4583,-2.4623,-2.4847,-2.5221,-2.5259,-2.5259,-2.5259,-2.5594,-2.5775,0.3774,0.2764,0.1948,0.1814,0.1029,0.0222,0.0074,0.0,0.0069,-0.0068,-0.0642,-0.1226,0.0,0.0,0.0,-0.407,-0.4513,0.0,-0.4918,-0.5252,0.0,-0.7735,0.0,-0.9187,-1.0906,-1.1262,0.0,0.0,-1.2198,-1.2448,-1.2448,-1.2619,-1.2705,-1.2705,-1.3052,-1.3222,-1.3398,-1.3828,-1.4824,-1.637,-1.6429,-1.6916,-1.7956,-1.8136,-1.7769,-1.7148,-1.7378,-1.7229,-1.6894,-1.6777,-1.6665,-1.6665,-1.6665,-1.6596,-1.6424,-1.6607,-1.6627,-1.679,-1.8036,-1.9127,-2.0029,-2.0702,-2.0489,-2.0024,-2.0024,-1.9924,-1.9811,-1.9978,-2.008,-2.0233,-2.0461,-2.0612,-2.0699,-2.0699,-2.1033,-2.1554,-2.2002,-2.2512,-2.3024,-2.3508,-2.3595,-2.3595,-2.3595,-2.3595,-2.3638,-2.3739,-2.3739,-2.3696,-2.3595,-2.3595,-2.3653,-2.3739,-2.3739,-2.3797,-2.3882,-2.394,-2.3925,-2.3797,-2.394,-2.3982,-2.3839,-2.423,-2.4558,-2.4735,-2.502,-2.5291,-2.5411,-2.5709,-2.5872,-2.5872,-2.6262,-2.6453,0.4557,0.3769,0.2936,0.2536,0.1746,0.0941,0.0425,0.0344,0.04,0.0449,-0.0061,0.0,-0.124,0.0,0.0,0.0,0.0,0.0,-0.4601,-0.4857,-0.5675,0.0,-0.7935,0.0,-1.0499,-1.1026,-1.1348,0.0,-1.1946,-1.2283,-1.2363,-1.2619,-1.2705,-1.2705,-1.2966,-1.3165,-1.3381,-1.426,-1.5173,-1.6246,-1.6369,-1.6936,-1.7825,-1.7459,-1.7145,-1.6817,0.0,-1.6544,-1.6426,-1.623,-1.6152,-1.6152,-1.6223,-1.6197,-1.6029,-1.6266,-1.655,-1.6989,-1.782,-1.8833,-1.9809,-2.0182,-2.0075,-1.9798,-1.9862,-1.9875,-1.9914,-2.0144,-2.0246,-2.0347,-2.0562,-2.0662,-2.0699,-2.0699,-2.1215,-2.1779,-2.2035,-2.268,-2.329,-2.3551,-2.3653,-2.3696,-2.3696,-2.3739,-2.3782,-2.3797,-2.3797,-2.3782,-2.3696,-2.3696,-2.3739,-2.3797,-2.3797,-2.3839,-2.3925,-2.4024,-2.4082,-2.3982,-2.4067,-2.4109,-2.4009,-2.4328,-2.4599,-2.4839,-2.5253,-2.554,-2.5762,-2.6175,-2.635,-2.6367,-2.6556,-2.6657,0.5271,0.4818,0.4074,0.3307,0.2525,0.1707,0.0813,0.0602,0.0522,0.054,0.0,-0.029,-0.0955,-0.165,-0.2379,-0.3047,0.0,-0.4045,-0.4241,-0.4463,-0.5002,-0.6249,-0.7293,-0.8404,-0.9625,-1.066,-1.123,-1.1262,-1.1699,-1.2123,-1.2363,-1.2498,-1.2638,-1.2602,-1.2862,-1.3085,-1.3179,-1.4475,-1.5234,-1.552,-1.616,-1.6693,-1.7242,-1.6515,-1.6381,-1.6627,0.0,0.0,-1.6007,-1.5566,-1.541,-1.541,-1.5614,-1.573,-1.5894,-1.6114,-1.6933,-1.7972,-1.8147,-1.8845,-1.9695,-1.9798,-1.9798,-1.9811,-1.9926,-1.999,-2.0042,-2.036,-2.0461,-2.0511,-2.0662,-2.0699,-2.0699,-2.0799,-2.1444,-2.2128,-2.2175,-2.295,-2.3638,-2.3638,-2.3739,-2.3839,-2.3839,-2.3925,-2.3982,-2.3882,-2.3839,-2.3839,-2.3882,-2.3839,-2.3797,-2.3839,-2.3839,-2.3839,-2.3882,-2.4067,-2.4208,-2.4223,-2.4276,-2.4317,-2.4276,-2.4385,-2.4639,-2.4981,-2.5427,-2.5835,-2.6175,-2.6539,-2.6691,-2.6691,-2.6623,-2.6606,0.4945,0.3908,0.28,0.2673,0.194,0.1285,0.118,0.0958,0.0,0.0,0.0808,0.0226,-0.0727,-0.118,-0.1743,-0.2902,0.0,0.0,0.0,0.0,-0.4841,0.0,0.0,0.0,0.0,0.0,0.0,0.0,0.0,-1.2043,-1.2037,-1.2085,-1.2117,-1.2065,-1.2308,-1.2531,-1.2721,-1.3167,-1.377,-1.4739,-1.4531,-1.4964,-1.606,-1.5883,-1.5787,-1.5794,-1.595,0.0,-1.5518,-1.5439,-1.541,-1.541,-1.5614,-1.6056,-1.6606,-1.6786,-1.7379,-1.8147,-1.8655,-1.8987,-1.9186,-1.9656,-1.9798,-1.9798,-1.9811,-1.9926,-2.0042,-2.0182,-2.0347,-2.0511,-2.0662,-2.0699,-2.0799,-2.118,-2.1684,-2.2221,-2.2649,-2.329,-2.3782,-2.3782,-2.3882,-2.3982,-2.3982,-2.3982,-2.4024,-2.4124,-2.4124,-2.4166,-2.4234,-2.3967,-2.3882,-2.4124,-2.4124,-2.4151,-2.4219,-2.4276,-2.4276,-2.4208,-2.4276,-2.4276,-2.4208,-2.4918,-2.5313,-2.5389,-2.6139,-2.6539,-2.659,-2.6657,-2.6691,-2.6691,-2.6708,-2.6674,0.4378,0.3628,0.2725,0.2725,0.2009,0.1219,0.1152,0.0,0.0,0.0,0.0908,0.0448,-0.0671,0.0,0.0,0.0,0.0,0.0,0.0,0.0,0.0,0.0,0.0,0.0,0.0,0.0,0.0,0.0,0.0,-1.145,-1.1742,-1.1922,-1.1891,-1.1926,-1.2166,-1.2263,-1.2192,-1.2653,-1.3196,-1.3848,-1.4059,-1.4609,-1.5463,-1.5411,-1.545,-1.5628,-1.554,0.0,-1.541,-1.541,-1.541,-1.541,-1.5614,-1.5951,-1.6343,-1.6503,-1.6989,-1.7699,-1.8321,-1.8709,-1.9093,-1.9656,-1.9862,-1.9914,-1.9965,-2.0131,-2.0296,-2.0448,-2.0549,-2.0612,-2.0662,-2.0699,-2.0749,-2.0997,-2.1589,-2.2314,-2.3113,-2.3465,-2.3696,-2.3696,-2.3839,-2.3982,-2.3982,-2.4109,-2.4151,-2.4223,-2.4223,-2.4208,-2.4234,-2.4109,-2.4082,-2.4181,-2.4223,-2.4208,-2.425,-2.4276,-2.4276,-2.4234,-2.4492,-2.4492,-2.4276,-2.4823,-2.5098,-2.4863,-2.5689,-2.6068,-2.6068,-2.6505,-2.6691,-2.6691,-2.6691,-2.6691,0.3816,0.335,0.2793,0.2724,0.209,0.1365,0.1142,0.106,0.0,0.0,0.0917,0.0515,-0.0685,0.0,-0.1629,0.0,-0.3183,0.0,0.0,0.0,0.0,0.0,0.0,0.0,0.0,0.0,0.0,0.0,0.0,0.0,-1.1396,-1.1709,-1.1811,-1.1751,-1.1909,-1.1967,-1.175,-1.2272,-1.2656,-1.2846,-1.3633,-1.4283,-1.474,-1.487,-1.5109,-1.5434,-1.5172,0.0,0.0,-1.541,-1.541,-1.541,-1.5614,-1.5846,-1.6134,-1.6228,-1.6832,-1.7644,-1.8147,-1.8697,-1.9251,-1.9708,-1.9926,-2.0042,-2.0131,-2.0296,-2.0511,-2.0612,-2.0662,-2.0699,-2.0699,-2.0749,-2.0885,-2.1131,-2.1813,-2.2634,-2.3465,-2.3653,-2.3696,-2.3739,-2.3925,-2.4067,-2.4067,-2.4193,-2.4276,-2.425,-2.4208,-2.4208,-2.4208,-2.4208,-2.4208,-2.4208,-2.4208,-2.4208,-2.4208,-2.4276,-2.4302,-2.4302,-2.4614,-2.4639,-2.4302,-2.4759,-2.4863,-2.4574,-2.5351,-2.5762,-2.5762,-2.6385,-2.6691,-2.6691,-2.6691,-2.6691,0.3281,0.2727,0.2103,0.2103,0.1858,0.1539,0.1487,0.0,0.0,0.1171,0.1103,0.0612,-0.0733,-0.1066,-0.1539,-0.2896,0.0,-0.336,0.0,0.0,0.0,0.0,0.0,0.0,0.0,0.0,0.0,0.0,0.0,0.0,-1.0981,-1.1349,-1.1449,-1.119,-1.1184,-1.1253,-1.1446,-1.1471,-1.163,-1.1761,-1.2466,-1.2907,-1.3196,-1.3975,-1.4576,-1.5086,-1.5117,0.0,0.0,-1.541,-1.541,-1.541,-1.5614,-1.6114,-1.6719,-1.6888,-1.7722,-1.8827,-1.8881,-1.9291,-1.9759,-1.9926,-1.999,-1.999,-1.999,-2.0246,-2.0511,-2.0511,-2.0612,-2.0699,-2.0699,-2.1033,-2.1554,-2.2466,-2.3098,-2.3508,-2.3754,-2.3882,-2.3982,-2.4124,-2.4193,-2.4261,-2.4261,-2.4317,-2.4302,-2.4317,-2.4317,-2.4317,-2.4317,-2.4317,-2.4317,-2.4317,-2.4317,-2.4317,-2.4317,-2.4317,-2.4302,-2.4302,-2.4343,-2.4343,-2.4302,-2.5059,-2.5427,-2.5389,-2.6175,-2.659,-2.659,-2.6657,-2.6691,-2.6691,-2.6691,-2.6691,0.2447,0.2214,0.1955,0.1923,0.1786,0.1637,0.1563,0.0,0.1278,0.1243,0.1235,0.0926,0.0,-0.0631,-0.1287,-0.2121,-0.2821,0.0,0.0,0.0,0.0,0.0,0.0,0.0,0.0,0.0,0.0,0.0,0.0,0.0,-1.0444,-1.0825,-1.1075,-1.1111,-1.1111,-1.1033,-1.0949,-1.1403,-1.1484,-1.1185,-1.2481,-1.304,-1.3028,-1.3968,-1.4592,-1.497,-1.5039,0.0,0.0,-1.541,-1.541,-1.541,-1.5614,-1.5951,-1.6353,-1.6842,-1.7379,-1.8038,-1.8762,-1.9146,-1.9396,-1.9759,-1.9978,-2.0131,-2.0246,-2.0461,-2.0612,-2.0612,-2.0662,-2.0699,-2.0699,-2.1033,-2.1554,-2.2282,-2.283,-2.329,-2.361,-2.3739,-2.3797,-2.394,-2.4067,-2.4151,-2.425,-2.4276,-2.4302,-2.4302,-2.4302,-2.4302,-2.4302,-2.4302,-2.4302,-2.4302,-2.4302,-2.4302,-2.4302,-2.4302,-2.4385,-2.4639,-2.4902,-2.502,-2.502,-2.5577,-2.5762,-2.5503,-2.6052,-2.635,-2.635,-2.6573,-2.6691,-2.6691,-2.6691,-2.6691,0.2003,0.198,0.2001,0.1961,0.1913,0.1851,0.0,0.0,0.1362,0.1337,0.1268,0.1014,0.0253,-0.045,-0.1173,-0.1888,-0.2606,-0.3175,-0.3305,0.0,0.0,0.0,0.0,0.0,0.0,0.0,0.0,0.0,0.0,0.0,0.0,-1.0302,-1.0625,-1.0843,-1.0923,-1.087,-1.0604,-1.1075,-1.1152,-1.0759,-1.2217,-1.2764,-1.2561,-1.37,-1.4369,-1.4606,0.0,0.0,0.0,-1.5362,-1.541,-1.541,-1.5614,-1.5798,-1.5972,-1.6513,-1.7045,-1.7589,-1.8429,-1.8987,-1.9356,-1.9759,-2.008,-2.0347,-2.0511,-2.0612,-2.0699,-2.0699,-2.0799,-2.0947,-2.1082,-2.1506,-2.1969,-2.2452,-2.2875,-2.3246,-2.3653,-2.3739,-2.3824,-2.3925,-2.4009,-2.4109,-2.4208,-2.4276,-2.4302,-2.4302,-2.4302,-2.4302,-2.4302,-2.4302,-2.4302,-2.4385,-2.4343,-2.4343,-2.4451,-2.4492,-2.4679,-2.5044,-2.5291,-2.5427,-2.5503,-2.5762,-2.5835,-2.5689,-2.6052,-2.628,-2.628,-2.6539,-2.6691,-2.6691,-2.6742,-2.6742,0.2136,0.2221,0.2221,0.2221,0.2221,0.2154,0.0,0.1748,0.1546,0.1344,0.1209,0.0806,-0.0268,-0.0806,-0.1478,-0.2484,-0.2956,-0.3226,-0.3228,0.0,0.0,0.0,0.0,0.0,0.0,0.0,0.0,0.0,0.0,0.0,0.0,-0.9723,-0.9972,-1.0359,-1.0581,-1.0598,-1.0339,-1.0541,-1.0542,-1.04,-1.1317,-1.1675,-1.1553,-1.2895,-1.3571,0.0,0.0,0.0,0.0,-1.5362,-1.541,-1.541,-1.5614,-1.5798,-1.5914,-1.6066,-1.6933,-1.8093,-1.8093,-1.891,-1.999,-2.0131,-2.0347,-2.0511,-2.0662,-2.0699,-2.0699,-2.0699,-2.1033,-2.1506,-2.1941,-2.2466,-2.3024,-2.3465,-2.3696,-2.3839,-2.3982,-2.4082,-2.4208,-2.4261,-2.4317,-2.4302,-2.4302,-2.4302,-2.4302,-2.4302,-2.4302,-2.4302,-2.4302,-2.4302,-2.4385,-2.4589,-2.4426,-2.4451,-2.4863,-2.5013,-2.5192,-2.5465,-2.523,-2.523,-2.5503,-2.5503,-2.5689,-2.6104,-2.6505,-2.6691,-2.6691,-2.6691,-2.6691,-2.6691,-2.6842,-2.6893,0.2138,0.2221,0.2221,0.2221,0.2221,0.2154,0.1951,0.1748,0.1547,0.1344,0.1345,0.121,0.0538,-0.0201,-0.0939,-0.1612,-0.2554,-0.3226,0.0,0.0,0.0,0.0,0.0,0.0,0.0,0.0,0.0,0.0,0.0,0.0,0.0,-0.9502,-0.9752,-1.0178,-1.0383,-1.0327,-1.0,-1.038,-1.0374,-0.9993,-1.1149,-1.1789,-1.2089,-1.3078,0.0,0.0,0.0,0.0,0.0,-1.5362,-1.541,-1.541,-1.5614,-1.5798,-1.6029,-1.6989,-1.7644,-1.8201,-1.9004,-1.954,-1.9862,-2.0029,-2.0195,-2.0347,-2.0511,-2.0612,-2.0699,-2.0699,-2.0799,-2.0947,-2.1118,-2.1766,-2.2406,-2.2634,-2.3275,-2.3839,-2.3982,-2.4024,-2.4082,-2.4208,-2.425,-2.425,-2.4317,-2.4302,-2.4302,-2.4302,-2.4302,-2.4302,-2.4302,-2.4302,-2.4302,-2.4385,-2.4343,-2.4426,-2.4655,-2.463,-2.4839,-2.5465,-2.5497,-2.5795,-2.6418,-2.6487,-2.6607,-2.6708,-2.6859,-2.6859,-2.6842,-2.6842,-2.6792,-2.6691,-2.6742,-2.6742,0.0,0.2221,0.2221,0.2221,0.2221,0.0,0.2018,0.1884,0.1681,0.1547,0.1412,0.1143,0.0672,-0.0201,-0.1074,-0.1546,-0.2487,-0.3226,0.0,0.0,0.0,0.0,0.0,0.0,0.0,0.0,0.0,0.0,0.0,0.0,0.0,-0.9157,-0.9366,-0.9632,-0.9929,-0.9994,-0.973,-1.0086,-1.0133,-0.9804,-1.0735,-1.1418,-1.1973,-1.2765,0.0,0.0,0.0,0.0,0.0,-1.5352,-1.541,-1.541,-1.5672,-1.5856,-1.6029,-1.7011,-1.749,-1.7863,-1.8833,-1.9371,-1.9695,-1.9978,-2.0246,-2.0385,-2.0562,-2.0612,-2.0699,-2.0699,-2.0934,-2.1215,-2.1215,-2.1988,-2.2725,-2.277,-2.3377,-2.3982,-2.3982,-2.4067,-2.4151,-2.4208,-2.425,-2.4234,-2.4302,-2.4302,-2.4302,-2.4302,-2.4302,-2.4302,-2.4302,-2.4302,-2.4385,-2.4549,-2.4467,-2.4549,-2.4831,-2.4775,-2.5036,-2.5721,-2.5832,-2.6137,-2.6759,-2.6775,-2.6825,-2.6959,-2.6959,-2.6909,-2.6825,-2.6893,-2.6876,-2.6858,-2.6842,-2.6842,0.0,0.2087,0.2154,0.0,0.0,0.0,0.2087,0.1951,0.0,0.1749,0.1277,0.0672,0.0269,-0.0806,-0.1748,-0.2153,-0.2757,0.0,0.0,0.0,0.0,0.0,0.0,0.0,0.0,0.0,0.0,0.0,0.0,0.0,0.0,-0.8641,-0.877,-0.877,-0.9328,-0.9598,-0.9484,-0.9676,-0.9804,-0.9804,-1.0117,-1.0611,-1.1303,-1.2151,0.0,0.0,0.0,0.0,0.0,-1.5303,-1.541,-1.541,-1.573,-1.5856,-1.5914,-1.6316,-1.6797,-1.7368,-1.7984,-1.8738,-1.954,-2.0067,-2.0448,-2.0699,-2.0699,-2.0699,-2.0699,-2.0699,-2.1348,-2.1988,-2.1988,-2.286,-2.3653,-2.3551,-2.3882,-2.4166,-2.4024,-2.4193,-2.4302,-2.4302,-2.4302,-2.4302,-2.4302,-2.4302,-2.4302,-2.4302,-2.4302,-2.4302,-2.4302,-2.4302,-2.4523,-2.4966,-2.4766,-2.4791,-2.5256,-2.5362,-2.561,-2.6154,-2.6156,-2.6297,-2.6606,-2.6538,-2.6607,-2.6926,-2.6926,-2.6825,-2.6725,-2.6842,-2.6975,-2.7103,-2.704,-2.7023,0.0403,0.0,0.148,0.148,0.148,0.1345,0.0,0.1008,0.1143,0.0538,0.0,0.0672,-0.0538,-0.1076,-0.1613,-0.2418,-0.2956,0.0,0.0,0.0,0.0,0.0,0.0,0.0,0.0,0.0,0.0,0.0,0.0,0.0,0.0,-0.8247,-0.8641,-0.877,-0.9015,-0.9209,-0.9344,-0.9478,-0.9548,-0.9548,-0.9926,-1.0415,-1.1087,-1.2074,0.0,0.0,0.0,0.0,-1.5156,-1.5205,-1.5313,-1.541,-1.5478,-1.5662,-1.5972,-1.6513,-1.7213,-1.7984,-1.8685,-1.9331,-1.9926,-2.0296,-2.0549,-2.0699,-2.0699,-2.0699,-2.0699,-2.0699,-2.0848,-2.1033,-2.1033,-2.186,-2.2694,-2.2725,-2.348,-2.4208,-2.4234,-2.4261,-2.4302,-2.4302,-2.4302,-2.4302,-2.4302,-2.4302,-2.4302,-2.4302,-2.4302,-2.4359,-2.4508,-2.4549,-2.463,-2.4966,-2.4926,-2.5005,-2.5294,-2.5362,-2.561,-2.6013,-2.6264,-2.659,-2.6973,-2.7055,-2.7122,-2.7186,-2.7105,-2.7038,-2.6989,-2.7007,-2.6975,-2.704,-2.7007,-2.7007,-0.0672,0.0136,0.0959,0.0959,0.0959,0.0822,0.048,0.061,0.0739,0.0,0.0,0.0,0.0,0.0,0.0,0.0,-0.2891,0.0,0.0,0.0,0.0,0.0,0.0,0.0,0.0,0.0,0.0,0.0,0.0,0.0,0.0,-0.7852,-0.8247,-0.8641,-0.8894,-0.9081,-0.9274,-0.9414,-0.9548,-0.9612,-0.9862,-1.0415,-1.1156,-1.2081,-1.2879,0.0,0.0,0.0,-1.5088,-1.5156,-1.5254,-1.541,-1.5594,-1.573,-1.5972,-1.6719,-1.7257,-1.7809,-1.8857,-1.9668,-2.0246,-2.0511,-2.0662,-2.0699,-2.0699,-2.0699,-2.0699,-2.0699,-2.1033,-2.1348,-2.1396,-2.2267,-2.3113,-2.3157,-2.3739,-2.425,-2.4234,-2.4276,-2.4302,-2.4302,-2.4302,-2.4302,-2.4302,-2.4302,-2.4343,-2.4426,-2.4426,-2.4508,-2.4751,-2.4791,-2.4871,-2.5123,-2.5139,-2.5217,-2.541,-2.5701,-2.5832,-2.5828,-2.6085,-2.6436,-2.6741,-2.6973,-2.712,-2.7201,-2.712,-2.707,-2.7103,-2.7038,-2.7072,-2.7154,-2.7154,-2.7154,-0.1614,-0.0686,0.021,0.035,0.0351,0.0352,0.028,0.0,0.0,0.0,0.0,0.0,0.0,0.0,0.0,0.0,0.0,0.0,0.0,0.0,0.0,0.0,0.0,0.0,0.0,0.0,0.0,0.0,0.0,0.0,0.0,-0.7591,-0.7922,-0.8511,-0.8829,-0.9081,-0.9274,-0.9414,-0.9612,-0.974,-0.9926,-1.0364,-1.1115,-1.2089,-1.2826,0.0,0.0,0.0,-1.5029,-1.5156,-1.5254,-1.541,-1.572,-1.5856,-1.5972,-1.6719,-1.7101,-1.7413,-1.8738,-1.9811,-2.0562,-2.0662,-2.0699,-2.0699,-2.0699,-2.0699,-2.0699,-2.0799,-2.1348,-2.1894,-2.2049,-2.292,-2.3754,-2.3754,-2.4051,-2.4261,-2.425,-2.4276,-2.4302,-2.4302,-2.4302,-2.4302,-2.4302,-2.4317,-2.4385,-2.4589,-2.463,-2.4751,-2.5005,-2.506,-2.5123,-2.5333,-2.5355,-2.5486,-2.5637,-2.6118,-2.6225,-2.5749,-2.6026,-2.6295,-2.6521,-2.6758,-2.6973,-2.7135,-2.7072,-2.7087,-2.7166,-2.7166,-2.7247,-2.7376,-2.7376,-2.7376,-0.2153,-0.1716,-0.1191,-0.035,-0.0214,-0.036,-0.0775,-0.0489,0.0,0.0,0.0,0.0,0.0,0.0,0.0,0.0,0.0,0.0,0.0,0.0,0.0,0.0,0.0,0.0,0.0,0.0,0.0,0.0,0.0,0.0,0.0,0.0,-0.8382,-0.8517,-0.8705,-0.8894,-0.9017,-0.935,-0.9548,-0.9548,-0.9862,-1.0047,-1.0238,-1.1772,-1.2573,0.0,0.0,-1.4834,-1.5029,-1.5156,-1.5254,-1.541,-1.5478,-1.5662,-1.5914,-1.6077,-1.656,-1.7424,-1.8886,-1.9965,-2.0662,-2.0712,-2.0699,-2.0699,-2.0699,-2.0699,-2.0799,-2.118,-2.1131,-2.0934,-2.0934,-2.1813,-2.274,-2.274,-2.3537,-2.4317,-2.4276,-2.4302,-2.4302,-2.4302,-2.4302,-2.4302,-2.4302,-2.4426,-2.4549,-2.4589,-2.4791,-2.5005,-2.5217,-2.5256,-2.5333,-2.554,-2.5749,-2.5917,-2.5954,-2.6208,-2.6349,-2.6279,-2.6792,-2.7122,-2.7154,-2.7218,-2.725,-2.7282,-2.725,-2.7296,-2.7434,-2.7434,-2.7509,-2.7642,-2.7642,-2.7642,-0.2287,-0.1923,-0.1541,-0.0911,-0.0786,-0.0872,-0.1077,-0.0921,0.0,0.0,0.0,0.0,0.0,0.0,0.0,0.0,0.0,0.0,0.0,0.0,0.0,0.0,0.0,0.0,0.0,0.0,0.0,0.0,0.0,0.0,0.0,0.0,-0.8117,-0.8517,-0.8705,-0.8835,-0.8894,-0.9215,-0.9478,-0.9676,-0.9798,-0.9989,-1.0174,-1.1351,-1.2089,-1.2565,0.0,-1.4419,-1.497,-1.5098,-1.5196,-1.541,-1.5536,-1.5672,-1.5941,-1.6454,-1.7571,-1.8891,-1.9244,-1.9976,-2.0699,-2.0699,-2.0502,-2.0293,-2.0756,-2.0673,-2.0598,-2.1232,-2.1506,-2.1623,-2.1988,-2.2725,-2.3436,-2.345,-2.3909,-2.4302,-2.4302,-2.4302,-2.4302,-2.4302,-2.4385,-2.4467,-2.4467,-2.467,-2.4806,-2.4806,-2.5005,-2.5217,-2.5294,-2.541,-2.5502,-2.5578,-2.5712,-2.5787,-2.5787,-2.6154,-2.6418,-2.6418,-2.6808,-2.7023,-2.7023,-2.7279,-2.7421,-2.7421,-2.7465,-2.7539,-2.76,-2.76,-2.76,-2.76,-2.7672,-2.7672,-0.2287,-0.1982,-0.1669,-0.1189,0.0,-0.1166,-0.1166,-0.1143,0.0,0.0,0.0,0.0,0.0,0.0,0.0,0.0,0.0,0.0,0.0,0.0,0.0,0.0,0.0,0.0,0.0,0.0,0.0,0.0,0.0,0.0,0.0,0.0,-0.7917,-0.8447,-0.8641,-0.877,-0.877,-0.9081,-0.9378,-0.9578,-0.9642,-0.9888,-1.0203,-1.0885,-1.165,-1.2573,-1.326,-1.4121,-1.497,-1.5029,-1.5138,-1.5273,-1.5456,-1.5638,-1.5863,-1.662,-1.8128,-1.971,-1.9181,-1.9664,-2.0502,-2.0502,-2.0201,-2.0048,-2.0775,-2.0775,-2.0624,-2.122,-2.1806,-2.2326,-2.2786,-2.3465,-2.4024,-2.4094,-2.4219,-2.4302,-2.4302,-2.4302,-2.4302,-2.4302,-2.4426,-2.4549,-2.4549,-2.4766,-2.4926,-2.5005,-2.5162,-2.5333,-2.5371,-2.5486,-2.5616,-2.5616,-2.5654,-2.5749,-2.5954,-2.6383,-2.6674,-2.6708,-2.6873,-2.6989,-2.7004,-2.7355,-2.7539,-2.7539,-2.7642,-2.773,-2.776,-2.776,-2.7748,-2.7677,-2.7777,-2.7748,-0.2356,-0.2157,-0.197,-0.1254,-0.1144,-0.1166,-0.1166,-0.1143,0.0,-0.1118,0.0,0.0,0.0,0.0,0.0,0.0,0.0,0.0,0.0,0.0,0.0,0.0,0.0,0.0,0.0,0.0,0.0,0.0,0.0,0.0,0.0,0.0,0.0,-0.8517,-0.8517,-0.8641,-0.877,-0.8958,-0.9029,-0.8983,-0.9285,-0.9536,-0.9801,-1.0558,-1.1488,-1.2573,-1.3312,-1.4181,-1.5039,-1.5156,-1.5032,-1.489,-1.5012,-1.5215,-1.5485,-1.5721,-1.7006,-1.8543,-1.7995,-1.8738,-1.9865,-1.9865,-2.0017,-2.0273,-2.0811,-2.1153,-2.1295,-2.13,-2.1625,-2.1974,-2.2062,-2.2785,-2.345,-2.345,-2.3894,-2.4302,-2.4302,-2.4302,-2.4302,-2.4302,-2.4302,-2.4302,-2.4302,-2.4508,-2.471,-2.4966,-2.5162,-2.5371,-2.554,-2.5578,-2.5616,-2.5616,-2.5807,-2.626,-2.6923,-2.7261,-2.7478,-2.7595,-2.7509,-2.7509,-2.7642,-2.7672,-2.7701,-2.7701,-2.7701,-2.7806,-2.7986,-2.7986,-2.8042,-2.8154,-2.8154,-2.8154,-0.2356,-0.2221,-0.2023,-0.1294,-0.1102,0.0,0.0,-0.1129,-0.1116,-0.1097,-0.1084,0.0,0.0,0.0,0.0,0.0,0.0,0.0,0.0,0.0,0.0,0.0,0.0,0.0,0.0,0.0,0.0,0.0,0.0,0.0,0.0,0.0,0.0,-0.8447,-0.8517,-0.8517,-0.8641,-0.8894,-0.8891,-0.8713,-0.9369,-0.9706,-0.9894,-1.0325,-1.1128,-1.2134,-1.2433,-1.3188,-1.4184,-1.4231,-1.4311,-1.4375,-1.4656,-1.5225,-1.5886,-1.5808,-1.6961,-1.8498,-1.7881,-1.8631,-1.9799,-1.9799,-1.9598,-1.9529,-2.0279,-2.018,-1.9884,-2.0346,-2.0898,-2.1367,-2.1726,-2.2245,-2.2707,-2.2707,-2.3203,-2.3686,-2.3686,-2.401,-2.4302,-2.4302,-2.4564,-2.4726,-2.4726,-2.4625,-2.4675,-2.5098,-2.497,-2.497,-2.5362,-2.5524,-2.5616,-2.5616,-2.5675,-2.6046,-2.6791,-2.6956,-2.7244,-2.7836,-2.7719,-2.7642,-2.7701,-2.7836,-2.7911,-2.7911,-2.7968,-2.8053,-2.8126,-2.8126,-2.8099,-2.8071,-2.8191,-2.8209,-0.2362,-0.2087,-0.1884,-0.1277,0.0,0.0,-0.1034,-0.1245,-0.1378,-0.116,-0.1284,0.0,0.0,0.0,0.0,0.0,0.0,0.0,0.0,0.0,0.0,0.0,0.0,0.0,0.0,0.0,0.0,0.0,0.0,0.0,0.0,0.0,0.0,0.0,-0.8441,-0.8398,-0.8398,-0.8639,-0.8703,-0.8537,-0.9204,-0.96,-0.9773,-0.9813,-1.0428,-1.1554,-1.1728,-1.2434,-1.3476,-1.3638,-1.384,-1.4031,-1.4142,-1.4818,-1.5797,-1.5679,-1.6786,-1.8232,-1.7664,-1.8261,-1.9264,-1.9264,-1.9068,-1.9012,-1.9793,-1.9686,-1.936,-1.9709,-2.0245,-2.0761,-2.0926,-2.1583,-2.2171,-2.2171,-2.2601,-2.304,-2.324,-2.3486,-2.3794,-2.4307,-2.4287,-2.4382,-2.4887,-2.4419,-2.4264,-2.515,-2.4783,-2.4648,-2.5313,-2.5486,-2.5637,-2.577,-2.5901,-2.6243,-2.6889,-2.7036,-2.7369,-2.8025,-2.7922,-2.7864,-2.7864,-2.7996,-2.8071,-2.8071,-2.8182,-2.8237,-2.8237,-2.8264,-2.8209,-2.8109,-2.8273,-2.8327,-0.2306,-0.1884,-0.1547,0.0,0.0,0.0,-0.0876,-0.148,-0.1893,-0.1253,0.0,-0.2347,0.0,0.0,0.0,0.0,0.0,0.0,0.0,0.0,0.0,0.0,0.0,0.0,0.0,0.0,0.0,0.0,0.0,0.0,0.0,0.0,0.0,0.0,-0.8269,-0.8207,-0.8207,-0.8286,-0.8286,-0.8286,-0.8798,-0.9084,-0.9182,-0.8915,-0.9505,-1.0716,-1.1269,-1.2039,-1.2913,-1.3467,-1.3772,-1.3821,-1.3399,-1.3917,-1.5006,-1.5223,-1.6323,-1.7601,-1.716,-1.7476,-1.81,-1.81,-1.8392,-1.8872,-1.9429,-1.994,-2.0245,-1.9558,-1.9832,-2.0141,-1.9538,-2.0639,-2.1886,-2.1886,-2.2079,-2.2455,-2.3132,-2.2763,-2.2763,-2.4269,-2.3499,-2.3092,-2.4713,-2.3759,-2.3375,-2.5016,-2.467,-2.4553,-2.5481,-2.5616,-2.5754,-2.6142,-2.6556,-2.6987,-2.7465,-2.78,-2.8071,-2.8182,-2.8182,-2.8182,-2.8182,-2.8182,-2.8182,-2.8182,-2.8291,-2.83,-2.83,-2.8353,-2.8398,-2.8406,-2.8406,-2.8525,-0.2641,-0.2285,0.0,-0.1547,0.0,0.0,0.0,-0.1545,0.0,0.0,0.0,0.0,0.0,0.0,0.0,0.0,0.0,0.0,0.0,0.0,0.0,0.0,0.0,0.0,0.0,0.0,0.0,0.0,0.0,0.0,0.0,0.0,0.0,0.0,-0.7598,-0.7662,-0.7662,-0.8082,-0.8286,-0.8286,-0.8443,-0.8731,-0.9091,-0.9387,-0.9904,-1.0473,-1.1099,-1.1732,-1.2387,-1.2902,-1.3184,-1.3204,-1.3182,-1.3625,-1.4348,-1.4719,-1.5451,-1.6279,-1.6535,-1.7104,-1.7708,-1.8,-1.8188,-1.8345,-1.8504,-1.8567,-1.8591,-1.8398,-1.8691,-1.9002,-1.8817,-1.9429,-2.0251,-2.0691,-2.1203,-2.1676,-2.1972,-2.2288,-2.2652,-2.3215,-2.3128,-2.3079,-2.3565,-2.3039,-2.2838,-2.3894,-2.3861,-2.4278,-2.5812,-2.6243,-2.6235,-2.5896,-2.6451,-2.6811,-2.672,-2.7291,-2.78,-2.8182,-2.8182,-2.8182,-2.8182,-2.8182,-2.8209,-2.8273,-2.83,-2.8327,-2.8353,-2.838,-2.8448,-2.8597,-2.8713,-2.8865,-0.285,-0.2353,0.0,-0.1681,-0.1344,-0.121,-0.1747,0.0,0.0,0.0,0.0,0.0,0.0,0.0,0.0,0.0,0.0,0.0,0.0,0.0,0.0,0.0,0.0,0.0,0.0,0.0,0.0,0.0,0.0,0.0,0.0,0.0,0.0,0.0,-0.7066,-0.713,-0.7247,-0.7569,-0.7812,-0.7977,-0.804,-0.8213,-0.8601,-0.9004,-0.9378,-0.9702,-1.0678,-1.1534,-1.2313,-1.2782,-1.3027,-1.3055,-1.3228,-1.3647,-1.4212,-1.4617,-1.5209,-1.5876,-1.6423,-1.6939,-1.7406,-1.7648,-1.7876,-1.8004,-1.8004,-1.8085,-1.8123,-1.8123,-1.8386,-1.8697,-1.8812,-1.9213,-1.9617,-1.9869,-2.0436,-2.0983,-2.1352,-2.1538,-2.1926,-2.2697,-2.2493,-2.2391,-2.3141,-2.252,-2.2313,-2.3385,-2.3651,-2.4281,-2.5799,-2.5947,-2.5902,-2.5979,-2.6437,-2.6705,-2.6644,-2.7342,-2.7763,-2.7718,-2.8058,-2.8237,-2.8237,-2.8237,-2.8327,-2.8456,-2.8482,-2.8583,-2.8713,-2.8737,-2.8837,-2.8983,-2.9049,-2.9198,-0.2863,0.0,0.0,-0.1681,-0.1345,0.0,-0.2619,0.0,0.0,0.0,0.0,0.0,0.0,0.0,0.0,0.0,0.0,0.0,0.0,0.0,0.0,0.0,0.0,0.0,0.0,0.0,0.0,0.0,0.0,0.0,0.0,0.0,0.0,0.0,-0.661,-0.6677,-0.6904,-0.6929,-0.7095,0.0,-0.7616,-0.7783,-0.7901,-0.8139,-0.8459,-0.8871,-1.0198,-1.1469,-1.2529,-1.2929,-1.3104,-1.3218,-1.3314,-1.3752,-1.4373,-1.4731,-1.5344,-1.6071,-1.6497,-1.685,-1.7157,-1.7199,-1.7502,-1.7842,-1.7842,-1.8109,-1.8439,-1.8439,-1.8659,-1.895,-1.9228,-1.9566,-1.9732,-1.9472,-1.9884,-2.0474,-2.1126,-2.0771,-2.0798,-2.2438,-2.1732,-2.1372,-2.3024,-2.2183,-2.181,-2.329,-2.3786,-2.4391,-2.5448,-2.5107,-2.5114,-2.6103,-2.6356,-2.6541,-2.6756,-2.7603,-2.7781,-2.7076,-2.7826,-2.8327,-2.8327,-2.8309,-2.8456,-2.8724,-2.8795,-2.896,-2.9221,-2.928,-2.9359,-2.9418,-2.9438,-2.9551,-0.3187,-0.2622,0.0,0.0,-0.1614,-0.121,-0.1748,0.0,0.0,0.0,0.0,0.0,0.0,0.0,0.0,0.0,0.0,0.0,0.0,0.0,0.0,0.0,0.0,0.0,0.0,0.0,0.0,0.0,0.0,0.0,0.0,0.0,0.0,-0.5901,-0.5953,-0.6124,-0.6389,-0.6737,-0.7041,0.0,-0.7568,-0.7723,-0.7788,-0.8269,-0.9125,-1.0249,-1.0722,-1.1516,-1.2529,-1.2735,-1.2929,-1.3113,-1.3228,-1.3409,-1.3705,-1.4269,-1.4766,-1.5254,-1.6044,-1.6522,-1.685,-1.7115,-1.7282,-1.7365,-1.7365,-1.7666,-1.8043,-1.8043,-1.8307,-1.8581,-1.8659,-1.9184,-1.9645,-1.9654,-1.9975,-2.0404,-2.0816,-2.0805,-2.0889,-2.152,-2.144,-2.1374,-2.173,-2.163,-2.1837,-2.2687,-2.3091,-2.3701,-2.4703,-2.4981,-2.5035,-2.4909,-2.5516,-2.5743,-2.5247,-2.6512,-2.7271,-2.7092,-2.7896,-2.8406,-2.844,-2.8565,-2.8676,-2.8842,-2.9027,-2.9198,-2.9359,-2.9379,-2.9457,-2.9643,-2.9731,-2.9902,-0.3387,0.0,0.0,-0.2018,0.0,-0.121,-0.1547,0.0,0.0,0.0,0.0,0.0,0.0,0.0,0.0,0.0,0.0,0.0,0.0,0.0,0.0,0.0,0.0,0.0,0.0,0.0,0.0,0.0,0.0,0.0,0.0,-0.5148,-0.5204,-0.5373,-0.5512,-0.5681,-0.6,-0.6381,-0.6761,-0.7095,-0.7461,-0.7676,-0.7788,-0.8304,-0.9065,-1.0022,-1.0535,-1.1217,-1.2076,-1.2578,-1.2881,-1.3027,-1.3228,-1.3314,-1.3457,-1.414,-1.4731,-1.5266,-1.5957,-1.6522,-1.6976,-1.7157,-1.7365,-1.7543,-1.7543,-1.7828,-1.8202,-1.8202,-1.8361,-1.8595,-1.895,-1.9332,-1.9702,-2.0135,-2.0392,-2.0595,-2.0761,-2.0794,-2.0893,-2.1151,-2.1214,-2.1277,-2.1277,-2.1402,-2.1833,-2.2742,-2.2845,-2.3215,-2.4315,-2.4418,-2.4423,-2.4573,-2.5027,-2.5171,-2.4778,-2.5864,-2.657,-2.657,-2.7425,-2.8113,-2.8543,-2.886,-2.9049,-2.9089,-2.8847,-2.8858,-2.9162,-2.9576,-2.9642,-2.9372,-2.9851,-3.0152,-0.3587,0.0,-0.2552,-0.1816,-0.1412,0.0,0.0,0.0,0.0,0.0,0.0,0.0,0.0,0.0,0.0,0.0,0.0,0.0,0.0,0.0,0.0,0.0,0.0,0.0,0.0,0.0,0.0,0.0,0.0,0.0,-0.4846,-0.4846,-0.4956,-0.5069,-0.5187,-0.5462,-0.5795,-0.6,-0.6327,-0.6766,-0.7198,-0.7574,-0.7901,-0.8162,-0.8633,-0.9256,-1.0167,-1.0939,-1.1569,-1.248,-1.2881,-1.2978,-1.3228,-1.3362,-1.3457,-1.414,-1.4812,-1.5478,-1.6001,-1.665,-1.724,-1.724,-1.7543,-1.7882,-1.7882,-1.8163,-1.8439,-1.8439,-1.8517,-1.8736,-1.9398,-1.966,-1.9929,-2.0579,-2.0827,-2.0893,-2.086,-2.086,-2.0893,-2.1103,-2.1119,-2.1183,-2.134,-2.1402,-2.1767,-2.2819,-2.2609,-2.277,-2.385,-2.3629,-2.3655,-2.4403,-2.4545,-2.4615,-2.4615,-2.5362,-2.5817,-2.5841,-2.6694,-2.7514,-2.8233,-2.8553,-2.8856,-2.9175,-2.8764,-2.8728,-2.9134,-2.9855,-2.9882,-2.9245,-2.9966,-3.0305,0.0,0.0,-0.2552,0.0,-0.1547,0.0,0.0,0.0,0.0,0.0,0.0,0.0,0.0,0.0,0.0,0.0,0.0,0.0,0.0,0.0,0.0,0.0,0.0,0.0,0.0,0.0,0.0,0.0,0.0,0.0,-0.4743,-0.4743,-0.4853,-0.5069,-0.5128,-0.5348,-0.5795,-0.5845,-0.6005,-0.6322,-0.6766,-0.7252,-0.7723,-0.7895,-0.8427,-0.9263,-1.0064,-1.088,-1.166,-1.2421,-1.2881,-1.3075,-1.319,-1.3314,-1.3457,-1.414,-1.4812,-1.5478,-1.6001,-1.6735,-1.7475,-1.7475,-1.7666,-1.7882,-1.7882,-1.8043,-1.8242,-1.8242,-1.8542,-1.8874,-1.8974,-1.966,-2.0326,-2.0444,-2.0844,-2.1183,-2.1103,-2.1055,-2.1087,-2.1262,-2.1277,-2.134,-2.1587,-2.1603,-2.1667,-2.196,-2.1936,-2.2106,-2.2654,-2.2773,-2.2993,-2.3525,-2.3728,-2.384,-2.384,-2.4644,-2.5141,-2.5131,-2.5955,-2.6585,-2.6857,-2.6317,-2.6859,-2.8669,-2.9505,-2.9966,-3.0035,-3.0196,-3.0222,-3.0139,-3.0241,-3.0336,-0.3429,-0.3224,-0.3021,0.0,-0.2552,0.0,0.0,0.0,0.0,0.0,0.0,0.0,0.0,0.0,0.0,0.0,0.0,0.0,0.0,0.0,0.0,0.0,0.0,0.0,0.0,0.0,0.0,0.0,0.0,-0.4245,-0.4301,-0.4467,-0.4629,-0.4739,-0.4904,-0.5069,-0.5289,-0.5567,-0.6005,-0.6598,-0.682,-0.7144,-0.7622,-0.7788,-0.8374,-0.9263,-0.9961,-1.0787,-1.1619,-1.2323,-1.2676,-1.2881,-1.3132,-1.3266,-1.3362,-1.3952,-1.4593,-1.5175,-1.5546,-1.6163,-1.682,-1.6976,-1.7297,-1.7598,-1.7828,-1.8123,-1.8361,-1.8361,-1.8503,-1.8798,-1.9317,-1.9773,-2.0243,-2.0778,-2.1119,-2.1277,-2.1214,-2.1214,-2.1246,-2.134,-2.1419,-2.1511,-2.1603,-2.162,-2.1694,-2.194,-2.2124,-2.2412,-2.2841,-2.3098,-2.333,-2.3544,-2.3682,-2.375,-2.375,-2.4179,-2.4665,-2.5193,-2.5619,-2.6147,-2.6805,-2.6667,-2.7207,-2.8624,-2.8679,-2.8987,-2.9583,-3.0068,-3.0061,-2.9644,-3.0175,-3.041,0.0,0.0,-0.3556,-0.3357,0.0,0.0,0.0,0.0,0.0,0.0,0.0,0.0,0.0,0.0,0.0,0.0,0.0,0.0,0.0,0.0,0.0,0.0,0.0,0.0,0.0,0.0,0.0,0.0,0.0,-0.3913,-0.3965,-0.4184,-0.4353,-0.4519,-0.468,-0.4846,-0.4897,-0.5289,-0.5837,-0.6554,-0.6657,-0.6928,-0.7359,-0.7634,-0.8268,-0.9152,-0.9909,-1.0626,-1.136,-1.2224,-1.2627,-1.2725,-1.3084,-1.3218,-1.3266,-1.3858,-1.4419,-1.4949,-1.5266,-1.5856,-1.6522,-1.6752,-1.7201,-1.7666,-1.7949,-1.8282,-1.8517,-1.8556,-1.8659,-1.8936,-1.9687,-2.0039,-2.0398,-2.1103,-2.1309,-2.134,-2.134,-2.134,-2.134,-2.1433,-2.1542,-2.165,-2.1738,-2.1738,-2.1869,-2.222,-2.2485,-2.2789,-2.3164,-2.344,-2.3638,-2.3703,-2.3792,-2.3837,-2.3837,-2.3937,-2.4313,-2.502,-2.5153,-2.5596,-2.6384,-2.6662,-2.7319,-2.845,-2.7897,-2.8109,-2.9106,-2.9733,-2.9717,-2.9143,-2.9836,-3.0252,0.0,-0.3696,0.0,0.0,0.0,0.0,0.0,0.0,0.0,0.0,0.0,0.0,0.0,0.0,0.0,0.0,0.0,0.0,0.0,0.0,0.0,0.0,0.0,0.0,0.0,0.0,0.0,0.0,0.0,-0.3694,-0.3796,-0.3852,-0.4018,-0.4463,-0.4519,-0.4625,-0.4897,-0.5069,-0.5293,-0.5677,-0.605,-0.6485,-0.6933,-0.7203,-0.7889,-0.8883,-0.9953,-1.0466,-1.0771,-1.2107,-1.2676,-1.2725,-1.3084,-1.3218,-1.3314,-1.4082,-1.4593,-1.4949,-1.5457,-1.6299,-1.7229,-1.7271,-1.7787,-1.8439,-1.8478,-1.8478,-1.8517,-1.8634,-1.9124,-1.9594,-1.9752,-2.0429,-2.1071,-2.1183,-2.1309,-2.1386,-2.1386,-2.1386,-2.1417,-2.1542,-2.1589,-2.1708,-2.2096,-2.2164,-2.2286,-2.2695,-2.2772,-2.2915,-2.3236,-2.3312,-2.3455,-2.3774,-2.3837,-2.3917,-2.3996,-2.3996,-2.4054,-2.4168,-2.4358,-2.4566,-2.4813,-2.5015,-2.5977,-2.7796,-2.7868,-2.8283,-2.911,-2.922,-2.9233,-2.9206,-2.9245,-2.9718,0.0,0.0,0.0,0.0,0.0,0.0,0.0,0.0,0.0,0.0,0.0,0.0,0.0,0.0,0.0,0.0,0.0,0.0,0.0,0.0,0.0,0.0,0.0,0.0,0.0,0.0,0.0,0.0,0.0,0.0,-0.3796,-0.3965,-0.4024,-0.3913,-0.4079,-0.4353,-0.4625,-0.468,-0.5014,-0.5622,-0.5727,-0.6164,-0.6761,-0.6987,-0.7521,-0.8474,-0.9451,-1.0364,-1.1166,-1.1683,-1.2255,-1.2871,-1.3084,-1.3218,-1.3266,-1.3705,-1.4176,-1.4593,-1.4777,-1.5445,-1.6269,-1.6497,-1.7005,-1.7585,-1.7989,-1.8228,-1.8411,-1.8634,-1.8874,-1.9207,-1.9839,-2.0258,-2.0663,-2.1325,-2.1481,-2.1556,-2.1631,-2.1661,-2.1661,-2.1708,-2.194,-2.2164,-2.2286,-2.2476,-2.2712,-2.3074,-2.3159,-2.33,-2.3584,-2.371,-2.3795,-2.3917,-2.3996,-2.4054,-2.4074,-2.4114,-2.4192,-2.4338,-2.4559,-2.476,-2.4947,-2.565,-2.6617,-2.7834,-2.8433,-2.9126,-2.9932,-2.9445,-2.9485,-3.0027,-2.955,-2.978,-0.3897,0.0,0.0,0.0,0.0,0.0,0.0,0.0,0.0,0.0,0.0,0.0,0.0,0.0,0.0,0.0,0.0,0.0,0.0,0.0,0.0,0.0,0.0,0.0,0.0,0.0,0.0,0.0,0.0,0.0,-0.3855,-0.4076,-0.4079,-0.3749,-0.4187,-0.4405,-0.4239,-0.4625,-0.4901,-0.5128,-0.5458,-0.5837,-0.6263,-0.6761,-0.7354,-0.7996,-0.883,-0.9909,-1.1074,-1.1434,-1.1999,-1.2725,-1.2949,-1.3094,-1.3228,-1.3658,-1.4035,-1.4373,-1.4558,-1.5096,-1.5812,-1.625,-1.6795,-1.7338,-1.7949,-1.8228,-1.8411,-1.8711,-1.8974,-1.9376,-2.0035,-2.0462,-2.0893,-2.1495,-2.1694,-2.1738,-2.184,-2.184,-2.1811,-2.1869,-2.2096,-2.2303,-2.2439,-2.2686,-2.2972,-2.3312,-2.3495,-2.3671,-2.3837,-2.3937,-2.4016,-2.4074,-2.4094,-2.4133,-2.4171,-2.4248,-2.4373,-2.451,-2.4741,-2.5069,-2.5519,-2.6214,-2.7142,-2.8299,-2.8627,-2.9207,-3.0037,-2.9496,-2.9525,-3.0095,-2.9613,-2.9844,0.0,0.0,0.0,0.0,0.0,0.0,0.0,0.0,0.0,0.0,0.0,0.0,0.0,0.0,0.0,0.0,0.0,0.0,0.0,0.0,0.0,0.0,0.0,0.0,0.0,0.0,0.0,0.0,0.0,-0.3852,-0.4021,-0.4128,-0.4125,-0.4021,-0.4842,-0.4783,-0.3796,-0.4787,-0.4901,-0.4193,-0.5128,-0.5449,-0.5391,-0.6534,-0.7235,-0.7545,-0.815,-0.9152,-1.0454,-1.1469,-1.2026,-1.2332,-1.2578,-1.2881,-1.3172,-1.3905,-1.4176,-1.4269,-1.4869,-1.5457,-1.6076,-1.6629,-1.7188,-1.776,-1.8307,-1.8478,-1.8556,-1.8917,-1.9464,-2.0043,-2.0398,-2.1087,-2.1724,-2.1797,-2.1869,-2.1911,-2.1998,-2.1899,-2.184,-2.1969,-2.2027,-2.2141,-2.2554,-2.2832,-2.3117,-2.3459,-2.3795,-2.3996,-2.4016,-2.4016,-2.4056,-2.419,-2.4209,-2.4247,-2.4303,-2.4424,-2.4538,-2.4604,-2.4858,-2.5428,-2.6339,-2.6524,-2.7403,-2.91,-2.8386,-2.8431,-2.9303,-2.9244,-2.9253,-2.9299,-2.9402,-2.9887,-0.4025,0.0,0.0,0.0,0.0,0.0,0.0,0.0,0.0,0.0,0.0,0.0,0.0,0.0,0.0,0.0,0.0,0.0,0.0,0.0,0.0,0.0,0.0,0.0,0.0,0.0,0.0,0.0,-0.3519,-0.3793,-0.4125,-0.4177,-0.4236,-0.4353,-0.457,-0.446,-0.3965,-0.4239,-0.4242,-0.4079,-0.4298,-0.4956,-0.5987,-0.6317,-0.7176,-0.8455,-0.8837,-0.9256,-0.9725,-1.0482,-1.1392,-1.2332,-1.2578,-1.2783,-1.2978,-1.3372,-1.3789,-1.4222,-1.4512,-1.5153,-1.5913,-1.6151,-1.6497,-1.6934,-1.7598,-1.7882,-1.8121,-1.8788,-1.9228,-1.9681,-2.0431,-2.1023,-2.1495,-2.1853,-2.1969,-2.1998,-2.2123,-2.2152,-2.218,-2.2209,-2.2398,-2.2703,-2.306,-2.3271,-2.3522,-2.3816,-2.3976,-2.4113,-2.4191,-2.4266,-2.4339,-2.4481,-2.4498,-2.453,-2.4588,-2.4674,-2.4752,-2.4809,-2.5075,-2.5322,-2.5592,-2.6334,-2.697,-2.745,-2.7865,-2.8502,-2.9372,-2.8106,-2.8145,-2.9396,-3.0033,-3.0476,0.0,0.0,0.0,0.0,0.0,0.0,-0.4812,-0.4629,0.0,0.0,0.0,0.0,0.0,0.0,0.0,0.0,0.0,0.0,0.0,0.0,0.0,0.0,0.0,0.0,0.0,0.0,0.0,-0.3522,-0.3744,-0.4018,-0.4405,-0.4405,-0.4405,-0.4356,-0.4739,-0.4629,-0.4024,-0.4463,-0.4519,-0.4187,-0.4519,-0.5066,-0.5823,-0.61,-0.6956,-0.8237,-0.8178,-0.8554,-0.9249,-0.9592,-1.0509,-1.1751,-1.2274,-1.2578,-1.2871,-1.3286,-1.3742,-1.4176,-1.4558,-1.5062,-1.5558,-1.5932,-1.6194,-1.6539,-1.7201,-1.7666,-1.8095,-1.8659,-1.931,-2.007,-2.0829,-2.1323,-2.1691,-2.2061,-2.2175,-2.2231,-2.2293,-2.2432,-2.2515,-2.2366,-2.2605,-2.2876,-2.2935,-2.3265,-2.35,-2.3558,-2.3837,-2.4096,-2.4154,-2.4357,-2.4515,-2.4596,-2.4629,-2.4676,-2.4749,-2.4823,-2.4917,-2.5011,-2.5216,-2.5672,-2.6432,-2.6676,-2.7146,-2.7868,-2.7673,-2.783,-2.8353,-2.7679,-2.8053,-2.9408,-2.958,-2.9842,0.0,0.0,0.0,0.0,0.0,0.0,-0.4743,-0.4418,-0.4098,0.0,0.0,0.0,0.0,0.0,0.0,0.0,0.0,0.0,0.0,0.0,0.0,0.0,0.0,0.0,0.0,-0.3466,-0.3685,-0.3968,-0.4082,-0.4304,-0.4632,-0.4632,-0.4525,-0.4249,-0.5073,-0.5014,-0.4024,-0.5014,-0.5124,-0.4463,-0.5124,-0.5449,-0.5441,-0.5932,-0.6691,-0.7439,-0.6945,-0.7475,-0.8758,-0.8751,-0.9518,-1.0762,-1.166,-1.2224,-1.2676,-1.3344,-1.3752,-1.4025,-1.4731,-1.5017,-1.5187,-1.582,-1.6126,-1.6398,-1.7105,-1.7707,-1.8214,-1.8553,-1.9615,-2.0731,-2.126,-2.1658,-2.1998,-2.222,-2.2405,-2.2525,-2.2525,-2.2738,-2.2842,-2.2525,-2.2721,-2.2859,-2.2659,-2.3049,-2.3318,-2.3182,-2.3674,-2.406,-2.4098,-2.4408,-2.4645,-2.4654,-2.4719,-2.4783,-2.4861,-2.4987,-2.5107,-2.5236,-2.5453,-2.6304,-2.7904,-2.7225,-2.7542,-2.9101,-2.7608,-2.6797,-2.6763,-2.7569,-2.841,-2.9244,-2.8535,-2.8598,0.0,0.0,0.0,0.0,0.0,0.0,-0.4573,-0.4555,-0.4498,0.0,0.0,0.0,0.0,0.0,0.0,0.0,0.0,0.0,0.0,0.0,0.0,0.0,0.0,0.0,0.0,-0.179,-0.2179,-0.2573,-0.3466,-0.4079,-0.4135,-0.4408,-0.4577,-0.4581,-0.4798,-0.4636,-0.4193,-0.4519,-0.4519,-0.4076,-0.4346,-0.5003,-0.6046,-0.6154,-0.6637,-0.7337,-0.7331,-0.7272,-0.7272,-0.8066,-0.9117,-1.0218,-1.0854,-1.1519,-1.2076,-1.2323,-1.289,-1.36,-1.4176,-1.464,-1.5051,-1.5603,-1.5824,-1.612,-1.7216,-1.772,-1.812,-1.9221,-1.9833,-2.0254,-2.0663,-2.1149,-2.1622,-2.2039,-2.249,-2.2816,-2.2816,-2.2919,-2.2995,-2.297,-2.302,-2.3126,-2.3365,-2.3606,-2.3824,-2.4019,-2.4302,-2.453,-2.4629,-2.4753,-2.487,-2.4985,-2.5013,-2.5103,-2.5264,-2.5312,-2.5387,-2.5517,-2.6267,-2.684,-2.7203,-2.7005,-2.7041,-2.7376,-2.7041,-2.6542,-2.5857,-2.673,-2.7576,-2.8432,-2.8226,-2.8217,0.0,0.0,0.0,-0.4037,0.0,0.0,0.0,-0.4801,-0.4836,0.0,0.0,0.0,0.0,0.0,0.0,0.0,0.0,0.0,0.0,0.0,0.0,0.0,0.0,0.0,0.0,-0.2183,-0.2685,-0.291,-0.3469,-0.3802,-0.391,-0.4073,-0.4187,-0.4356,-0.4411,-0.4411,-0.4356,-0.4522,-0.4574,-0.446,-0.4736,-0.5117,-0.5555,-0.5555,-0.5987,-0.6696,-0.6091,-0.6312,-0.7079,-0.7331,-0.7913,-0.8758,-1.0064,-1.0956,-1.1569,-1.2286,-1.2861,-1.3437,-1.4351,-1.4823,-1.5062,-1.548,-1.578,-1.6207,-1.6951,-1.7639,-1.8394,-1.9369,-2.005,-2.0597,-2.1039,-2.1609,-2.2147,-2.251,-2.29,-2.317,-2.3098,-2.3259,-2.3399,-2.3422,-2.3486,-2.3531,-2.358,-2.3692,-2.3801,-2.3921,-2.4192,-2.4388,-2.4489,-2.4794,-2.5025,-2.5094,-2.5122,-2.5192,-2.534,-2.5346,-2.5425,-2.5581,-2.6427,-2.6922,-2.6954,-2.6912,-2.6695,-2.6259,-2.6251,-2.6237,-2.6193,-2.6193,-2.6673,-2.7548,-2.7077,-2.7025,0.0,0.0,0.0,0.0,0.0,-0.4536,0.0,0.0,0.0,0.0,0.0,0.0,0.0,0.0,0.0,0.0,0.0,0.0,0.0,0.0,0.0,0.0,0.0,0.0,0.0,-0.291,-0.3527,-0.3583,-0.3583,-0.3583,-0.3741,-0.3744,-0.3799,-0.3965,-0.4079,-0.419,-0.4408,-0.4522,-0.4688,-0.4846,-0.5234,-0.5234,-0.4956,-0.4956,-0.5281,-0.5828,-0.4794,-0.5289,-0.6712,-0.6431,-0.6583,-0.7171,-0.9176,-1.0277,-1.0897,-1.2052,-1.2638,-1.2976,-1.4283,-1.4801,-1.4983,-1.5457,-1.6139,-1.6799,-1.7079,-1.8052,-1.9132,-1.9681,-2.0431,-2.115,-2.1562,-2.2164,-2.2703,-2.2993,-2.3312,-2.3522,-2.3437,-2.3649,-2.3837,-2.3876,-2.3896,-2.3876,-2.3692,-2.3717,-2.3759,-2.3756,-2.4043,-2.4262,-2.4331,-2.4809,-2.5141,-2.5141,-2.5214,-2.5284,-2.5354,-2.536,-2.5427,-2.5619,-2.6383,-2.6867,-2.6928,-2.6913,-2.6496,-2.5621,-2.5596,-2.5913,-2.6558,-2.5827,-2.5938,-2.6819,-2.5952,-2.5824,0.0,0.0,0.0,0.0,-0.4345,0.0,0.0,0.0,-0.5243,0.0,0.0,0.0,0.0,0.0,0.0,0.0,0.0,0.0,0.0,0.0,0.0,0.0,0.0,0.0,0.0,0.0,-0.3132,-0.3583,-0.3471,-0.3413,-0.3469,-0.3583,-0.3691,-0.3796,-0.3852,-0.391,-0.4076,-0.4193,-0.4356,-0.4574,-0.4743,-0.4908,-0.5069,-0.5069,-0.4959,-0.468,-0.4904,-0.4904,-0.4846,-0.5124,-0.5496,-0.6072,-0.829,-0.9302,-0.9695,-1.0431,-1.099,-1.1642,-1.2928,-1.3799,-1.4471,-1.5652,-1.7136,-1.8468,-1.8815,-1.9662,-2.063,-2.1007,-2.1166,-2.1323,-2.1549,-2.2017,-2.2529,-2.2845,-2.331,-2.3714,-2.3896,-2.3937,-2.3996,-2.4036,-2.4074,-2.4016,-2.3896,-2.4117,-2.4284,-2.4229,-2.4556,-2.4795,-2.4828,-2.5091,-2.5283,-2.5283,-2.5391,-2.5492,-2.5561,-2.5566,-2.5604,-2.5681,-2.6509,-2.6983,-2.6988,-2.6991,-2.655,-2.5619,-2.5602,-2.5621,-2.5647,-2.5426,-2.5779,-2.6599,-2.5741,-2.5303,0.0,0.0,0.0,0.0,0.0,0.0,-0.5417,0.0,-0.5258,0.0,0.0,0.0,0.0,0.0,0.0,0.0,0.0,0.0,0.0,0.0,0.0,0.0,0.0,0.0,0.0,0.0,0.0,0.0,0.0,-0.3413,-0.3413,-0.3471,-0.3527,-0.3691,-0.3691,-0.3747,-0.391,-0.3965,-0.4021,-0.4187,-0.4356,-0.4356,-0.4245,-0.4408,-0.4405,-0.4291,-0.3959,-0.4236,-0.4952,-0.4508,-0.467,-0.5324,-0.6333,-0.7186,-0.8094,-0.9555,-1.1158,-1.2761,-1.4261,-1.5849,-1.7358,-1.7862,-1.876,-1.971,-1.9747,-2.0457,-2.124,-2.1393,-2.1694,-2.2085,-2.2453,-2.2818,-2.3206,-2.3608,-2.3985,-2.4229,-2.4284,-2.4247,-2.4284,-2.4462,-2.4374,-2.4302,-2.4335,-2.4386,-2.4437,-2.457,-2.4762,-2.4911,-2.4943,-2.5154,-2.5331,-2.5407,-2.5429,-2.5485,-2.5585,-2.5599,-2.5634,-2.5698,-2.6035,-2.6472,-2.6971,-2.6474,-2.5979,-2.554,-2.555,-2.5519,-2.5445,-2.5311,-2.5398,-2.565,-2.5337,-2.5111,-0.3635,0.0,0.0,0.0,0.0,0.0,0.0,0.0,0.0,0.0,0.0,0.0,0.0,0.0,0.0,0.0,0.0,0.0,0.0,0.0,0.0,0.0,0.0,0.0,0.0,0.0,0.0,-0.2635,-0.2968,-0.319,-0.3302,-0.3413,-0.3471,-0.3527,-0.3583,-0.3638,-0.3688,-0.3744,-0.3799,-0.3913,-0.4024,-0.3916,-0.3585,-0.3691,-0.3796,-0.4015,-0.3239,-0.3624,-0.4732,-0.3895,-0.3788,-0.4174,-0.4262,-0.4798,-0.5716,-0.7757,-1.0311,-1.2955,-1.439,-1.7016,-1.9727,-1.9862,-2.0304,-2.0823,-2.0797,-2.1289,-2.1872,-2.1972,-2.2319,-2.2772,-2.3147,-2.341,-2.366,-2.4118,-2.4373,-2.4512,-2.4508,-2.4524,-2.4575,-2.4753,-2.4639,-2.457,-2.4762,-2.464,-2.4579,-2.4757,-2.4892,-2.4991,-2.505,-2.5235,-2.5378,-2.5481,-2.5464,-2.5498,-2.5618,-2.5632,-2.5658,-2.5693,-2.5679,-2.5957,-2.6596,-2.5935,-2.5542,-2.5499,-2.5507,-2.5443,-2.5351,-2.5224,-2.5084,-2.4955,-2.5006,-2.4923,0.0,0.0,0.0,-0.5011,0.0,0.0,0.0,0.0,-0.4744,0.0,0.0,0.0,0.0,0.0,0.0,0.0,0.0,0.0,0.0,0.0,0.0,0.0,0.0,0.0,0.0,0.0,0.0,-0.2465,-0.2521,-0.2687,-0.3074,-0.3413,-0.3527,-0.3413,-0.3527,-0.3527,-0.3413,-0.3527,-0.3585,-0.3641,-0.3744,-0.3747,-0.3583,-0.313,-0.3188,-0.3583,-0.313,-0.313,-0.3413,-0.3074,-0.2683,-0.2294,-0.2287,-0.223,-0.2391,-0.4283,-0.749,-1.1003,-1.1993,-1.5813,-2.0369,-2.0949,-2.147,-2.1895,-2.2237,-2.2519,-2.2828,-2.3152,-2.3147,-2.3116,-2.3348,-2.3394,-2.3508,-2.3896,-2.4099,-2.4282,-2.4547,-2.4704,-2.479,-2.4804,-2.479,-2.4842,-2.5049,-2.4917,-2.479,-2.4793,-2.501,-2.5182,-2.5192,-2.5365,-2.5492,-2.5492,-2.5549,-2.5615,-2.5695,-2.5695,-2.5707,-2.5703,-2.564,-2.5611,-2.5648,-2.5554,-2.5492,-2.5499,-2.5506,-2.5399,-2.5212,-2.5068,-2.4942,-2.4804,-2.4804,-2.4639,0.0,0.0,-0.2676,-0.4003,0.0,0.0,0.0,0.0,0.0,0.0,0.0,0.0,0.0,0.0,0.0,0.0,0.0,0.0,0.0,0.0,0.0,0.0,0.0,0.0,0.0,0.0,0.0,-0.1569,-0.213,-0.2577,0.0,-0.319,-0.3469,-0.3413,-0.3527,-0.3527,-0.3413,-0.3527,-0.3357,-0.285,-0.2903,-0.285,-0.2687,-0.2627,-0.2794,-0.297,-0.2575,-0.2235,-0.1839,-0.1395,-0.1059,-0.0724,-0.0278,-0.0111,-0.0389,-0.2695,-0.5064,-0.7413,-0.9312,-1.3467,-1.7976,-1.7915,-2.0338,-2.324,-2.2959,-2.3289,-2.3775,-2.3767,-2.3826,-2.3946,-2.4192,-2.4264,-2.4331,-2.4604,-2.4737,-2.4818,-2.4907,-2.4907,-2.4888,-2.4974,-2.4934,-2.4942,-2.5138,-2.5154,-2.5157,-2.5196,-2.5356,-2.5453,-2.5453,-2.5486,-2.5517,-2.5556,-2.5543,-2.5582,-2.5694,-2.5691,-2.5683,-2.5646,-2.5618,-2.5584,-2.5547,-2.5464,-2.5389,-2.5288,-2.5264,-2.5168,-2.5006,-2.4869,-2.4659,-2.4416,-2.4299,-2.4265,-0.2348,-0.2179,0.0,-0.3284,-0.334,0.0,-0.4229,0.0,0.0,0.0,0.0,0.0,0.0,0.0,0.0,0.0,0.0,0.0,0.0,-0.4791,0.0,0.0,0.0,0.0,0.0,0.0,-0.1568,-0.1682,-0.2073,-0.2464,0.0,0.0,-0.3469,-0.3299,-0.3471,-0.3471,-0.3249,-0.3416,-0.3246,-0.2629,-0.2681,-0.2629,-0.2465,-0.2293,-0.2348,-0.2406,-0.1733,-0.1172,-0.0724,-0.0335,0.0,0.0279,0.0613,0.0837,0.0891,-0.0608,-0.2689,-0.512,-0.7984,-1.1242,-1.4059,-1.3689,-1.5921,-1.8977,-2.0428,-2.1201,-2.1983,-2.3634,-2.4136,-2.4247,-2.4442,-2.4489,-2.4532,-2.476,-2.4902,-2.4975,-2.5025,-2.5025,-2.505,-2.5153,-2.5111,-2.5084,-2.5235,-2.5339,-2.5387,-2.5427,-2.5535,-2.561,-2.561,-2.5561,-2.5556,-2.56,-2.5541,-2.5531,-2.5618,-2.5637,-2.5593,-2.5522,-2.551,-2.5473,-2.5428,-2.536,-2.5272,-2.5135,-2.5088,-2.4968,-2.4771,-2.4601,-2.4403,-2.4137,-2.3864,-2.3798]}]]